[[{"header":{"parameterUnit":"m.s-1","parameterCategory":1,"la1":30.6,"la2":28.766,"lo1":-90.7593,"lo2":-88.6598,"dy":0.0162,"dx":0.0183,"nx":116,"ny":114,"refTime":"2023-10-28T06:00:00:Z","depth":0,"parameterNumber":2,"parameterNumberName":"U-component_of_WINDS"},"data":[0.0,0.0,0.0,0.0,0.0,0.0,0.0,0.0,0.0,0.0,0.0,0.0,0.0,0.0,0.0,0.0,0.0,0.0,0.0,0.0,0.0,0.0,0.0,0.0,0.0,0.0,0.0,0.0,0.0,0.0,0.0,0.0,0.0,0.0,0.0,0.0,0.0,0.0,0.0,0.0,0.0,0.0,0.0,0.0,0.0,0.0,0.0,0.0,0.0,0.0,0.0,0.0,0.0,0.0,0.0,0.0,0.0,0.0,0.0,0.0,0.0,0.0,0.0,0.0,0.0,0.0,0.0,0.0,0.0,0.0,0.0,0.0,0.0,0.0,0.0,0.0,0.0,0.0,0.0,0.0,0.0,0.0,0.0,0.0,0.0,0.0,0.0,0.0,0.0,0.0,0.0,0.0,0.0,0.0,0.0,0.0,0.0,0.0,0.0,0.0,0.0,0.0,0.0,0.0,0.0,0.0,0.0,0.0,0.0,0.0,0.0,0.0,0.0,0.0,0.0,0.0,0.0,0.0,0.0,0.0,0.0,0.0,0.0,0.0,0.0,0.0,0.0,0.0,0.0,0.0,0.0,0.0,0.0,0.0,0.0,0.0,0.0,0.0,0.0,0.0,0.0,0.0,0.0,0.0,0.0,0.0,0.0,0.0,0.0,0.0,0.0,0.0,0.0,0.0,0.0,0.0,0.0,0.0,0.0,0.0,0.0,0.0,0.0,0.0,0.0,0.0,0.0,0.0,0.0,0.0,0.0,0.0,0.0,0.0,0.0,0.0,0.0,0.0,0.0,0.0,0.0,0.0,0.0,0.0,0.0,0.0,0.0,0.0,0.0,0.0,0.0,0.0,0.0,0.0,0.0,0.0,0.0,0.0,0.0,0.0,0.0,0.0,0.0,0.0,0.0,0.0,0.0,0.0,0.0,0.0,0.0,0.0,0.0,0.0,0.0,0.0,0.0,0.0,0.0,0.0,0.0,0.0,0.0,0.0,0.0,0.0,0.0,0.0,0.0,0.0,0.0,0.0,0.0,0.0,0.0,0.0,0.0,0.0,0.0,0.0,0.0,0.0,0.0,0.0,0.0,0.0,0.0,0.0,0.0,0.0,0.0,0.0,0.0,0.0,0.0,0.0,0.0,0.0,0.0,0.0,0.0,0.0,0.0,0.0,0.0,0.0,0.0,0.0,0.0,0.0,0.0,0.0,0.0,0.0,0.0,0.0,0.0,0.0,0.0,0.0,0.0,0.0,0.0,0.0,0.0,0.0,0.0,0.0,0.0,0.0,0.0,0.0,0.0,0.0,0.0,0.0,0.0,0.0,0.0,0.0,0.0,0.0,0.0,0.0,0.0,0.0,0.0,0.0,0.0,0.0,0.0,0.0,0.0,0.0,0.0,0.0,0.0,0.0,0.0,0.0,0.0,0.0,0.0,0.0,0.0,0.0,0.0,0.0,0.0,0.0,0.0,0.0,0.0,0.0,0.0,0.0,0.0,0.0,0.0,0.0,0.0,0.0,0.0,0.0,0.0,0.0,0.0,0.0,0.0,0.0,0.0,0.0,0.0,0.0,0.0,0.0,0.0,0.0,0.0,0.0,0.0,0.0,0.0,0.0,0.0,0.0,0.0,0.0,0.0,0.0,0.0,0.0,0.0,0.0,0.0,0.0,0.0,0.0,0.0,0.0,0.0,0.0,0.0,0.0,0.0,0.0,0.0,0.0,0.0,0.0,0.0,0.0,0.0,0.0,0.0,0.0,0.0,0.0,0.0,0.0,0.0,0.0,0.0,0.0,0.0,0.0,0.0,0.0,0.0,0.0,0.0,0.0,0.0,0.0,0.0,0.0,0.0,0.0,0.0,0.0,0.0,0.0,0.0,0.0,0.0,0.0,0.0,0.0,0.0,0.0,0.0,0.0,0.0,0.0,0.0,0.0,0.0,0.0,0.0,0.0,0.0,0.0,0.0,0.0,0.0,0.0,0.0,0.0,0.0,0.0,0.0,0.0,0.0,0.0,0.0,0.0,0.0,0.0,0.0,0.0,0.0,0.0,0.0,0.0,0.0,0.0,0.0,0.0,0.0,0.0,0.0,0.0,0.0,0.0,0.0,0.0,0.0,0.0,0.0,0.0,0.0,0.0,0.0,0.0,0.0,0.0,0.0,0.0,0.0,0.0,0.0,0.0,0.0,0.0,0.0,0.0,0.0,0.0,0.0,0.0,0.0,0.0,0.0,0.0,0.0,0.0,0.0,0.0,0.0,0.0,0.0,0.0,0.0,0.0,0.0,0.0,0.0,0.0,0.0,0.0,0.0,0.0,0.0,0.0,0.0,0.0,0.0,0.0,0.0,0.0,0.0,0.0,0.0,0.0,0.0,0.0,0.0,0.0,0.0,0.0,0.0,0.0,0.0,0.0,0.0,0.0,0.0,0.0,0.0,0.0,0.0,0.0,0.0,0.0,0.0,0.0,0.0,0.0,0.0,0.0,0.0,0.0,0.0,0.0,0.0,0.0,0.0,0.0,0.0,0.0,0.0,0.0,0.0,0.0,0.0,0.0,0.0,0.0,0.0,0.0,0.0,0.0,0.0,0.0,0.0,0.0,0.0,0.0,0.0,0.0,0.0,0.0,0.0,0.0,0.0,0.0,0.0,0.0,0.0,0.0,0.0,0.0,0.0,0.0,0.0,0.0,0.0,0.0,0.0,0.0,0.0,0.0,0.0,0.0,0.0,0.0,0.0,0.0,0.0,0.0,0.0,0.0,0.0,0.0,0.0,0.0,0.0,0.0,0.0,0.0,0.0,0.0,0.0,0.0,0.0,0.0,0.0,0.0,0.0,0.0,0.0,0.0,0.0,0.0,0.0,0.0,0.0,0.0,0.0,0.0,0.0,0.0,0.0,0.0,0.0,0.0,0.0,0.0,0.0,0.0,0.0,0.0,0.0,0.0,0.0,0.0,0.0,0.0,0.0,0.0,0.0,0.0,0.0,0.0,0.0,0.0,0.0,0.0,0.0,0.0,0.0,0.0,0.0,0.0,0.0,0.0,0.0,0.0,0.0,0.0,0.0,0.0,0.0,0.0,0.0,0.0,0.0,0.0,0.0,0.0,0.0,0.0,0.0,0.0,0.0,0.0,0.0,0.0,0.0,0.0,0.0,0.0,0.0,0.0,0.0,0.0,0.0,0.0,0.0,0.0,0.0,0.0,0.0,0.0,0.0,0.0,0.0,0.0,0.0,0.0,0.0,0.0,0.0,0.0,0.0,0.0,0.0,0.0,0.0,0.0,0.0,0.0,0.0,0.0,0.0,0.0,0.0,0.0,0.0,0.0,0.0,0.0,0.0,0.0,0.0,0.0,0.0,0.0,0.0,0.0,0.0,0.0,0.0,0.0,0.0,0.0,0.0,0.0,0.0,0.0,0.0,0.0,0.0,0.0,0.0,0.0,0.0,0.0,0.0,0.0,0.0,0.0,0.0,0.0,0.0,0.0,0.0,0.0,0.0,0.0,0.0,0.0,0.0,0.0,0.0,0.0,0.0,0.0,0.0,0.0,0.0,0.0,0.0,0.0,0.0,0.0,0.0,0.0,0.0,0.0,0.0,0.0,0.0,0.0,0.0,0.0,0.0,0.0,0.0,0.0,0.0,0.0,0.0,0.0,0.0,0.0,0.0,0.0,0.0,0.0,0.0,0.0,0.0,0.0,0.0,0.0,0.0,0.0,0.0,0.0,0.0,0.0,0.0,0.0,0.0,0.0,0.0,0.0,0.0,0.0,0.0,0.0,0.0,0.0,0.0,0.0,0.0,0.0,0.0,0.0,0.0,0.0,0.0,0.0,0.0,0.0,0.0,0.0,0.0,0.0,0.0,0.0,0.0,0.0,0.0,0.0,0.0,0.0,0.0,0.0,0.0,0.0,0.0,0.0,0.0,0.0,0.0,0.0,0.0,0.0,0.0,0.0,0.0,0.0,0.0,0.0,0.0,0.0,0.0,0.0,0.0,0.0,0.0,0.0,0.0,0.0,0.0,0.0,0.0,0.0,0.0,0.0,0.0,0.0,0.0,0.0,0.0,0.0,0.0,0.0,0.0,0.0,0.0,0.0,0.0,0.0,0.0,0.0,0.0,0.0,0.0,0.0,0.0,0.0,0.0,0.0,0.0,0.0,0.0,0.0,0.0,0.0,0.0,0.0,0.0,0.0,0.0,0.0,0.0,0.0,0.0,0.0,0.0,0.0,0.0,0.0,0.0,0.0,0.0,0.0,0.0,0.0,0.0,0.0,0.0,0.0,0.0,0.0,0.0,0.0,0.0,0.0,0.0,0.0,0.0,0.0,0.0,0.0,0.0,0.0,0.0,0.0,0.0,0.0,0.0,0.0,0.0,0.0,0.0,0.0,0.0,0.0,0.0,0.0,0.0,0.0,0.0,0.0,0.0,0.0,0.0,0.0,0.0,0.0,0.0,0.0,0.0,0.0,0.0,0.0,0.0,0.0,0.0,0.0,0.0,0.0,0.0,0.0,0.0,0.0,0.0,0.0,0.0,0.0,0.0,0.0,0.0,0.0,0.0,0.0,0.0,0.0,0.0,0.0,0.0,0.0,0.0,0.0,0.0,0.0,0.0,0.0,0.0,0.0,0.0,0.0,0.0,0.0,0.0,0.0,0.0,0.0,0.0,0.0,0.0,0.0,0.0,0.0,0.0,0.0,0.0,0.0,0.0,0.0,0.0,0.0,0.0,0.0,0.0,0.0,0.0,0.0,0.0,0.0,0.0,0.0,0.0,0.0,0.0,0.0,0.0,0.0,0.0,0.0,0.0,0.0,0.0,0.0,0.0,0.0,0.0,0.0,0.0,0.0,0.0,0.0,0.0,0.0,0.0,0.0,0.0,0.0,0.0,0.0,0.0,0.0,0.0,0.0,0.0,0.0,0.0,0.0,0.0,0.0,0.0,0.0,0.0,0.0,0.0,0.0,0.0,0.0,0.0,0.0,0.0,0.0,0.0,0.0,0.0,0.0,0.0,0.0,0.0,0.0,0.0,0.0,0.0,0.0,0.0,0.0,0.0,0.0,0.0,0.0,0.0,0.0,0.0,0.0,0.0,0.0,0.0,0.0,0.0,0.0,0.0,0.0,0.0,0.0,0.0,0.0,0.0,0.0,0.0,0.0,0.0,0.0,0.0,0.0,0.0,0.0,0.0,0.0,0.0,0.0,0.0,0.0,0.0,0.0,0.0,0.0,0.0,0.0,0.0,0.0,0.0,0.0,0.0,0.0,0.0,0.0,0.0,0.0,0.0,0.0,0.0,0.0,0.0,0.0,0.0,0.0,0.0,0.0,0.0,0.0,0.0,0.0,0.0,0.0,0.0,0.0,0.0,0.0,0.0,0.0,0.0,0.0,0.0,0.0,0.0,0.0,0.0,0.0,0.0,0.0,0.0,0.0,0.0,0.0,0.0,0.0,0.0,0.0,0.0,0.0,0.0,0.0,0.0,0.0,0.0,0.0,0.0,0.0,0.0,0.0,0.0,0.0,0.0,0.0,0.0,0.0,0.0,0.0,0.0,0.0,0.0,0.0,0.0,0.0,0.0,0.0,0.0,0.0,0.0,0.0,0.0,0.0,0.0,0.0,0.0,0.0,0.0,0.0,0.0,0.0,0.0,0.0,0.0,0.0,0.0,0.0,0.0,0.0,0.0,0.0,0.0,0.0,0.0,0.0,0.0,0.0,0.0,0.0,0.0,0.0,0.0,0.0,0.0,0.0,0.0,0.0,0.0,0.0,0.0,0.0,0.0,0.0,0.0,0.0,0.0,0.0,0.0,0.0,0.0,0.0,0.0,0.0,0.0,0.0,0.0,0.0,0.0,0.0,0.0,0.0,0.0,0.0,0.0,0.0,0.0,0.0,0.0,0.0,0.0,0.0,0.0,0.0,0.0,0.0,0.0,0.0,0.0,0.0,0.0,0.0,0.0,0.0,0.0,0.0,0.0,0.0,0.0,0.0,0.0,0.0,0.0,0.0,0.0,0.0,0.0,0.0,0.0,0.0,0.0,0.0,0.0,0.0,0.0,0.0,0.0,0.0,0.0,0.0,0.0,0.0,0.0,0.0,0.0,0.0,0.0,0.0,0.0,0.0,0.0,0.0,0.0,0.0,0.0,0.0,0.0,0.0,0.0,0.0,0.0,0.0,0.0,0.0,0.0,0.0,0.0,0.0,0.0,0.0,0.0,0.0,0.0,0.0,0.0,0.0,0.0,0.0,0.0,0.0,0.0,0.0,0.0,0.0,0.0,0.0,0.0,-1.4466,-1.3014,-1.1894,-1.112,-1.164,-1.2123,-1.2563,0.0,0.0,0.0,0.0,0.0,0.0,0.0,0.0,0.0,0.0,0.0,0.0,0.0,0.0,0.0,0.0,0.0,0.0,0.0,0.0,0.0,0.0,0.0,0.0,0.0,0.0,0.0,0.0,0.0,0.0,0.0,0.0,0.0,0.0,0.0,0.0,0.0,0.0,0.0,0.0,0.0,0.0,0.0,0.0,0.0,0.0,0.0,0.0,0.0,0.0,0.0,0.0,0.0,0.0,0.0,0.0,0.0,0.0,0.0,0.0,0.0,0.0,0.0,0.0,0.0,0.0,0.0,0.0,0.0,0.0,0.0,0.0,0.0,0.0,0.0,0.0,0.0,0.0,0.0,0.0,0.0,0.0,0.0,0.0,0.0,0.0,0.0,0.0,0.0,0.0,0.0,0.0,0.0,0.0,0.0,-1.5931,-1.6363,-1.7417,-1.7512,-1.7656,0.0,0.0,0.0,0.0,0.0,0.0,-1.5023,-1.4412,-1.4266,-1.4596,-1.179,-1.0024,-0.9263,-0.9713,-1.0768,-1.2326,-1.3517,0.0,0.0,0.0,0.0,0.0,0.0,0.0,0.0,0.0,0.0,0.0,0.0,0.0,0.0,0.0,0.0,0.0,0.0,0.0,0.0,0.0,0.0,0.0,0.0,0.0,0.0,0.0,0.0,0.0,0.0,0.0,0.0,0.0,0.0,0.0,0.0,0.0,0.0,0.0,0.0,0.0,0.0,0.0,0.0,0.0,0.0,0.0,0.0,0.0,0.0,0.0,0.0,0.0,0.0,0.0,0.0,0.0,0.0,0.0,0.0,0.0,0.0,0.0,-0.0213,0.0,0.0,0.0,0.0,0.0,0.0,0.0,0.0,0.0,0.0,0.0,0.0,0.0,0.0,0.0,0.0,0.0,0.0,0.0,0.0,0.0,0.0,0.0,0.0,0.0,0.0,0.0,0.0,0.0,-1.5881,-1.6067,-1.6779,-1.8519,-1.8309,-1.8115,-1.8167,0.0,0.0,0.0,0.0,0.0,-1.3928,-1.3821,-1.2996,-1.1409,-0.9439,-0.8411,-0.8328,-1.0252,-1.1232,-1.1373,-1.1385,-1.2048,-1.3058,0.0,0.0,0.0,0.0,0.0,0.0,0.0,0.0,0.0,0.0,0.0,0.0,0.0,0.0,0.0,0.0,0.0,0.0,0.0,0.0,0.0,0.0,0.0,0.0,0.0,0.0,0.0,0.0,0.0,0.0,0.0,0.0,0.0,0.0,0.0,0.0,0.0,0.0,0.0,0.0,0.0,-0.6009,-0.5665,0.0,0.0,0.0,0.0,0.0,0.0,0.0,0.0,0.0,0.0,0.0,0.0,0.0,-0.0988,-0.0981,-0.0393,-0.0111,-0.0111,-0.0023,0.0,0.0,0.0,0.0,0.0,0.0,0.0,0.0,0.0,0.0,0.0,0.0,0.0,0.0,0.0,0.0,0.0,0.0,0.0,0.0,0.0,0.0,0.0,0.0,0.0,0.0,0.0,0.0,0.0,0.0,-1.6286,-1.6982,-1.8331,-1.8709,-1.8569,-1.7843,-1.7626,0.0,0.0,0.0,-1.4845,-1.4718,-1.3834,-1.2152,-0.9675,-0.8921,-0.7982,-0.6974,-0.9192,-1.0193,-1.0184,-1.1228,-1.2203,-1.3027,-1.2364,0.0,0.0,0.0,0.0,0.0,0.0,0.0,0.0,0.0,0.0,0.0,0.0,0.0,0.0,0.0,0.0,0.0,0.0,0.0,0.0,0.0,0.0,0.0,0.0,0.0,0.0,0.0,0.0,0.0,0.0,0.0,0.0,0.0,0.0,0.0,0.0,0.0,0.0,0.0,-0.5615,-0.5171,-0.5208,-0.4833,-0.459,0.0,0.0,0.0,0.0,0.0,0.0,0.0,0.0,0.0,-0.0086,0.1214,0.1894,0.1906,0.2132,0.2237,0.224,0.2253,0.1855,0.1127,0.1112,0.0701,0.0,0.0,0.0,0.0,0.0,0.0,-0.0022,0.0,0.0,0.0,0.0,-0.0129,0.0,0.0,0.0,0.0,0.0,0.0,0.0,0.0,0.0,0.0,0.0,0.0,0.0,-1.56,-1.5903,-1.6581,-1.807,-1.8463,-1.8296,-1.7528,-1.7372,-1.6793,-1.5666,-1.4958,-1.4702,-1.4959,-1.3188,-1.1259,-0.9242,-0.87,-0.7693,-0.6315,-0.8282,-0.9177,-0.9237,-1.1258,-1.2595,-1.334,-1.3099,-1.2516,-1.1761,0.0,0.0,0.0,0.0,0.0,0.0,0.0,0.0,0.0,0.0,0.0,0.0,0.0,0.0,0.0,0.0,0.0,0.0,0.0,0.0,0.0,0.0,0.0,0.0,0.0,0.0,0.0,0.0,0.0,0.0,0.0,0.0,0.0,0.0,0.0,0.0,0.0,-0.4812,-0.4343,-0.4432,-0.393,-0.3561,0.0,0.0,0.0,0.0,0.0,0.0,-0.1384,0.08,0.2024,0.1971,0.3368,0.4118,0.4139,0.4127,0.4137,0.4121,0.4121,0.3597,0.2628,0.222,0.1503,0.0534,0.0153,0.0,0.0,0.0,0.0,0.0,0.0,0.0,0.0,0.0,0.0,0.0,0.0,0.0,0.0,0.0,0.0,0.0,0.0,0.0,0.0,0.0,0.0,-1.3091,-1.4942,-1.4484,-1.5233,-1.8212,-1.7293,-1.6787,-1.7368,-1.6176,-1.5008,-1.4057,-1.3678,-1.3493,-1.3513,-1.1179,-1.0109,-1.0407,-0.8258,-0.7139,-0.7066,-0.8324,-0.8845,-0.8818,-1.0831,-1.2811,-1.4508,-1.2852,-1.2805,-1.3745,-1.2545,0.0,0.0,0.0,0.0,0.0,0.0,0.0,0.0,0.0,0.0,0.0,0.0,0.0,0.0,0.0,0.0,0.0,0.0,0.0,0.0,0.0,0.0,0.0,0.0,0.0,0.0,0.0,0.0,0.0,0.0,0.0,0.0,0.0,0.0,0.0,0.0,0.0,0.0,-0.3253,-0.3046,0.0,0.0,0.0,0.0,-0.2326,-0.0182,0.113,0.1109,0.3153,0.4327,0.4331,0.4415,0.4481,0.4479,0.4483,0.4462,0.4466,0.4466,0.4441,0.4313,0.2861,0.2153,0.2018,0.0607,0.0,0.0,0.0,0.0,0.0,0.0,0.0,0.0,0.0,0.0,0.0,0.0,0.0,0.0,0.0,0.0,0.0,0.0,0.0,-1.2426,-1.2358,-1.2847,-1.3493,-1.4251,-1.4647,-1.5417,-1.6773,-1.6954,-1.6754,-1.6206,-1.5983,-1.5467,-1.4524,-1.4156,-1.3594,-1.2766,-1.1444,-1.035,-0.9465,-0.8091,-0.7411,-0.7438,-0.8605,-0.9121,-0.9191,-1.1511,-1.2934,-1.3571,-1.3032,-1.2925,-1.306,-1.2606,-1.2223,0.0,0.0,0.0,0.0,0.0,0.0,0.0,0.0,0.0,0.0,0.0,0.0,0.0,0.0,0.0,0.0,0.0,0.0,0.0,0.0,0.0,0.0,0.0,0.0,0.0,0.0,0.0,0.0,0.0,0.0,0.0,0.0,0.0,0.0,0.0,0.0,0.0,-0.2388,-0.194,0.0,-0.1607,-0.0616,0.0185,0.0562,0.2396,0.3479,0.3495,0.512,0.6041,0.6052,0.6794,0.7207,0.7199,0.7117,0.7074,0.7074,0.7074,0.6627,0.5725,0.4191,0.3016,0.2107,0.0638,0.0,0.0,0.0,0.0,0.0,0.0,0.0,0.0,0.0,0.0,0.0,0.0,0.0,0.0,0.0,0.0,0.0,0.0,0.0,-1.1918,-1.1935,-1.2637,-1.3339,-1.3876,-1.4379,-1.4988,-1.5838,-1.5908,-1.578,-1.5451,-1.5095,-1.4659,-1.4145,-1.3566,-1.2905,-1.2176,-1.1106,-1.0091,-0.9098,-0.819,-0.7722,-0.7746,-0.8497,-0.887,-0.8942,-1.093,-1.1829,-1.1851,-1.2293,-1.2656,-1.2936,-1.3008,-1.2923,-1.2694,0.0,0.0,0.0,0.0,0.0,0.0,0.0,0.0,0.0,0.0,0.0,0.0,0.0,0.0,0.0,0.0,0.0,0.0,0.0,0.0,0.0,0.0,0.0,0.0,0.0,0.0,0.0,0.0,0.0,0.0,0.0,0.0,0.0,0.0,0.0,-0.136,-0.1336,-0.0406,0.0258,0.0248,0.1623,0.2678,0.3071,0.4605,0.5513,0.5522,0.693,0.7742,0.7742,0.8508,0.8937,0.8937,0.8835,0.8787,0.8733,0.8215,0.746,0.6502,0.4452,0.3033,0.2121,0.063,0.0,0.0,0.0,0.0,0.0,0.0,0.0,0.0,0.0,0.0,0.0,0.0,0.0,0.0,0.0,0.0,0.0,-1.0821,-1.1057,-1.1524,-1.2251,-1.2165,-1.2516,-1.3821,-1.3527,-1.3896,-1.5514,-1.4168,-1.3785,-1.5163,-1.3404,-1.2452,-1.2753,-1.1787,-1.1363,-1.1636,-0.9984,-0.922,-0.9444,-0.848,-0.7988,-0.7988,-0.7988,-0.7988,-0.8056,-0.907,-0.952,-0.9583,-1.0678,-1.2065,-1.3551,-1.3732,-1.3428,-1.2872,0.0,0.0,0.0,0.0,0.0,0.0,0.0,0.0,0.0,0.0,0.0,0.0,0.0,0.0,0.0,0.0,0.0,0.0,0.0,0.0,0.0,0.0,0.0,0.0,0.0,0.0,0.0,0.0,0.0,0.0,0.0,0.0,0.0,-0.122,-0.0964,-0.0582,0.0,0.156,0.2571,0.2569,0.4033,0.4973,0.4973,0.6327,0.7186,0.7186,0.8612,0.9424,0.9424,0.942,0.9417,0.9417,0.9355,0.9249,0.9101,0.755,0.6755,0.652,0.3555,0.2199,0.2112,0.0634,0.0,0.0,0.0,0.0,0.0,0.0,0.0,0.0,0.0,0.0,0.0,0.0,0.0,0.0,0.0,0.0,0.0,-1.0376,-1.0603,-1.0851,-1.1004,-1.1935,-1.2784,-1.3362,-1.3676,-1.4114,-1.4778,-1.4,-1.3655,-1.4035,-1.3194,-1.2551,-1.231,-1.2248,-1.1661,-1.0496,-0.9753,-0.9068,-0.8414,-0.8142,-0.7988,-0.7988,-0.7988,-0.7988,-0.8066,-0.9411,-1.0012,-1.0083,-1.1359,-1.2009,-1.2161,-1.1489,-1.1746,-1.2506,0.0,0.0,0.0,0.0,0.0,0.0,0.0,0.0,0.0,0.0,0.0,0.0,0.0,0.0,0.0,0.0,0.0,0.0,0.0,0.0,0.0,0.0,0.0,0.0,0.0,0.0,0.0,0.0,0.0,0.0,0.0,0.0,0.2415,0.1245,0.1363,0.1617,0.1796,0.3242,0.4239,0.4232,0.561,0.6505,0.6505,0.7985,0.8919,0.8919,0.941,0.97,0.97,0.9602,0.9547,0.9547,0.8251,0.7568,0.7506,0.5907,0.5139,0.5032,0.3082,0.2206,0.2133,0.0644,0.0,0.0,0.0,0.0,0.0,0.0,0.0,0.0,0.0,0.0,0.0,0.0,0.0,0.0,0.0,0.0,0.0,-0.964,-0.9964,-1.0304,-1.0516,-1.1737,-1.2757,-1.3166,-1.3607,-1.3947,-1.4114,-1.3707,-1.342,-1.342,-1.2756,-1.2272,-1.2118,-1.1474,-1.0713,-0.9802,-0.9178,-0.8585,-0.7988,-0.7988,-0.7988,-0.7992,-0.8081,-0.8136,-0.8168,-0.9093,-0.949,-0.9542,-1.0331,-1.0547,-1.0309,-0.9728,-1.0507,-1.199,-1.1578,-1.2159,-1.3222,-1.3094,-1.3488,-1.4065,-1.4136,0.0,0.0,0.0,0.0,0.0,0.0,0.0,0.0,0.0,0.0,0.0,0.0,0.0,0.0,0.0,0.0,0.0,0.0,0.0,0.0,0.0,0.0,0.0,0.0,0.3573,0.4464,0.4102,0.3724,0.3491,0.3496,0.4944,0.5945,0.5945,0.7317,0.8245,0.8245,0.9132,0.9696,0.9696,0.9748,0.9819,0.9883,0.9805,0.9455,0.8778,0.7728,0.6774,0.5947,0.4411,0.3631,0.349,0.1982,0.1272,0.1236,0.0358,0.0,0.0,0.0,0.0,0.0,0.0,0.0,0.0,0.0,0.0,0.0,0.0,0.0,0.0,0.0,0.0,0.0,-0.8878,-0.9325,-0.9935,-1.0606,-1.1634,-1.2545,-1.3186,-1.3467,-1.36,-1.36,-1.3353,-1.3141,-1.3035,-1.2212,-1.1744,-1.1764,-1.0081,-0.9213,-0.9316,-0.8456,-0.7988,-0.7988,-0.7988,-0.8023,-0.8044,-0.8208,-0.8304,-0.8325,-0.8468,-0.8536,-0.8536,-0.8536,-0.8536,-0.8532,-0.8515,-0.9645,-1.131,-1.079,-1.1116,-1.196,-1.2617,-1.311,-1.3624,-1.4754,0.0,0.0,0.0,0.0,0.0,0.0,0.0,0.0,0.0,0.0,0.0,0.0,0.0,0.0,0.0,0.0,0.0,0.0,0.0,0.0,0.0,0.0,0.0,0.0,0.5023,0.5699,0.7018,0.6208,0.5391,0.5197,0.6663,0.7667,0.7667,0.8958,0.9792,0.9792,0.9805,0.9808,0.9792,0.0,0.0,0.0,0.0,0.8931,0.731,0.7125,0.6159,0.4425,0.2924,0.2126,0.192,0.06,0.0,0.0,0.0,0.0,0.0,0.0,0.0,0.0,0.0,0.0,0.0,0.0,0.0,0.0,0.0,0.0,0.0,0.0,0.0,0.0,-0.9105,-0.9452,-1.0075,-1.1106,-1.187,-1.2606,-1.3427,-1.3573,-1.36,-1.36,-1.3353,-1.2861,-1.204,-1.2017,-1.132,-0.9752,-0.9526,-0.9063,-0.8312,-0.8099,-0.7988,-0.7988,-0.7988,-0.8077,-0.825,-0.8281,-0.8359,-0.8475,-0.8601,-0.8665,-0.8665,-0.8665,-0.8665,-0.8655,-0.853,-0.9354,-1.0599,-1.0479,-1.0971,-1.1764,-1.1893,-1.2985,-1.4379,-1.4633,-1.5462,-1.6345,-1.6109,-1.5395,0.0,0.0,0.0,0.0,0.0,0.0,0.0,0.0,0.0,0.0,0.0,0.0,0.0,0.0,0.0,0.0,0.0,0.0,0.0,0.635,0.7592,0.8623,0.9029,0.8935,0.8373,0.7081,0.8359,0.9329,0.9329,0.9606,0.9792,0.9792,0.9903,0.992,0.9798,1.0056,0.951,0.7939,0.8001,0.7209,0.543,0.4149,0.3304,0.291,0.0,0.0,0.0428,0.0123,0.0,0.0,0.0,0.0,0.0,0.0,0.0,0.0,0.0,0.0,0.0,0.0,0.0,0.0,0.0,0.0,0.0,0.0,0.0,0.0,-0.9157,-0.9492,-1.0069,-1.1076,-1.1741,-1.233,-1.2887,-1.2953,-1.2893,-1.2766,-1.2759,-1.2504,-1.1937,-1.1543,-1.0751,-0.9359,-0.8947,-0.8522,-0.8013,-0.8091,-0.8153,-0.8153,-0.8225,-0.8299,-0.8406,-0.8533,-0.8642,-0.872,-0.8944,-0.9045,-0.9045,-0.9045,-0.9045,-0.9039,-0.8992,-0.934,-0.9874,-0.9565,-0.9717,-1.0192,-1.0814,-1.1661,-1.2592,-1.3258,-1.429,-1.5334,-1.5511,-1.5016,-1.4441,0.0,0.0,0.0,0.0,0.0,0.0,0.0,0.0,0.0,0.0,0.0,0.0,0.0,0.0,0.1529,0.0,0.0,0.6961,0.7118,0.8472,0.9547,0.9693,0.9748,0.9511,0.8711,0.9295,0.9792,0.9792,0.9792,0.9792,0.9792,0.9859,0.9531,0.8657,0.8753,0.8057,0.6319,0.6301,0.553,0.3822,0.2991,0.2141,0.123,0.041,0.0,0.0,0.0,0.0,0.0,0.0,0.0,0.0,0.0,0.0,0.0,0.0,0.0,0.0,0.0,0.0,0.0,0.0,0.0,0.0,0.0,0.0,0.0,0.0,-0.9526,-1.0035,-1.0955,-1.1507,-1.1908,-1.2184,-1.2218,-1.2163,-1.1989,-1.2271,-1.2297,-1.1848,-1.1163,-1.0306,-0.926,-0.8467,-0.8057,-0.8057,-0.8231,-0.8338,-0.8338,-0.8481,-0.854,-0.8577,-0.8852,-0.8967,-0.9007,-0.9276,-0.941,-0.941,-0.941,-0.941,-0.941,-0.941,-0.941,-0.9356,-0.8869,-0.8665,-0.8767,-0.9757,-1.0219,-1.0569,-1.1655,-1.2635,-1.3501,-1.4074,-1.4032,-1.3925,-1.4637,-1.3434,0.0,0.0,0.0,0.0,0.0,0.0,0.0,0.0,0.0,-0.1212,0.1176,0.2174,0.316,0.4984,0.6552,0.763,0.78,0.8847,0.957,0.9374,0.9329,0.9204,0.8897,0.9143,0.9204,0.8867,0.8839,0.8839,0.8839,0.8861,0.8301,0.6991,0.6973,0.6273,0.4656,0.4605,0.3851,0.2202,0.2169,0.1437,0.0,0.0,0.0,0.0,0.0,0.0,0.0,0.0,0.0,0.0,0.0,0.0,0.0,0.0,0.0,0.0,0.0,0.0,0.0,0.0,0.0,0.0,0.0,0.0,0.0,0.0,0.0,-1.0109,-1.1212,-1.1412,-1.159,-1.1902,-1.1935,-1.2029,-1.2231,-1.2779,-1.2433,-1.0875,-1.115,-1.0424,-0.8252,-0.8236,-0.827,-0.827,-0.841,-0.8485,-0.8485,-0.8611,-0.8727,-0.8865,-0.908,-0.923,-0.9334,-0.9396,-0.941,-0.941,-0.941,-0.941,-0.941,-0.941,-0.941,-0.9403,-0.9335,-0.9226,-0.9118,-0.9068,-0.964,-1.0413,-1.0569,-1.1395,-1.2388,-1.2593,-1.2819,-1.2918,-1.2304,-1.2153,-1.1919,-1.0884,-0.933,-0.7912,-0.7484,-0.607,-0.405,0.0,0.0,0.1127,0.3895,0.5536,0.6541,0.6798,0.822,0.9331,0.9364,0.9593,0.9279,0.7881,0.7667,0.7116,0.5621,0.6752,0.7088,0.559,0.5437,0.5437,0.5437,0.5565,0.5482,0.5208,0.5472,0.4742,0.2857,0.2893,0.2097,0.0329,0.0296,0.0196,0.0,0.0,0.0,0.0,0.0,0.0,0.0,0.0,0.0,0.0,0.0,0.0,0.0,0.0,0.0,0.0,0.0,0.0,0.0,0.0,0.0,0.0,0.0,0.0,0.0,0.0,0.0,0.0,-1.0539,-1.0645,-1.0775,-1.1109,-1.1142,-1.1171,-1.1256,-1.2304,-1.2085,-0.999,-1.0892,-1.0513,-0.8264,-0.8264,-0.8335,-0.8417,-0.8537,-0.8615,-0.8615,-0.8879,-0.9029,-0.9069,-0.9306,-0.9452,-0.9517,-0.9602,-0.9635,-0.9635,-0.9635,-0.9635,-0.9635,-0.9635,-0.9635,-0.9629,-0.9544,-0.9735,-0.9992,-0.9711,-0.9731,0.0,-0.9962,-1.0662,-1.147,-1.1206,-1.1118,-1.1149,-1.1346,-1.0607,-0.9497,-0.8322,-0.6297,-0.4345,0.0,-0.2079,-0.0136,0.1825,0.2789,0.3902,0.6139,0.7063,0.7818,0.879,0.944,0.9524,0.0,0.8421,0.7814,0.6176,0.5955,0.5343,0.369,0.4117,0.4653,0.4879,0.4915,0.4915,0.4915,0.4942,0.4537,0.3562,0.3643,0.2886,0.1098,0.1097,0.0765,0.0,0.0,0.0,0.0,0.0,0.0,0.0,0.0,0.0,0.0,0.0,0.0,0.0,0.0,0.0,0.0,0.0,0.0,0.0,0.0,0.0,0.0,0.0,0.0,0.0,0.0,0.0,0.0,0.0,0.0,0.0,0.0,-1.0,-1.008,-1.0325,-1.0425,-1.0482,-1.0516,-1.1621,-1.1476,-0.9547,-1.0425,-1.0215,-0.8383,-0.8332,-0.8423,-0.854,-0.8696,-0.8747,-0.8747,-0.91,-0.9243,-0.925,-0.9527,-0.9666,-0.9673,-0.9744,-0.9792,-0.9792,-0.9792,-0.9792,-0.9792,-0.9792,-0.9768,-0.9747,-0.9836,-1.0091,-1.0348,-1.0103,-0.9903,-0.9774,-0.9739,-1.015,-1.0593,-0.997,-0.9808,-0.992,-1.0236,-0.8962,-0.7106,-0.5484,-0.3313,0.0,-0.0107,0.1553,0.3305,0.4616,0.5371,0.6294,0.813,0.8086,0.8103,0.9339,0.9014,0.8211,0.7055,0.6768,0.6129,0.4456,0.4239,0.3623,0.199,0.1806,0.2277,0.343,0.356,0.3534,0.355,0.3537,0.3025,0.1864,0.181,0.1255,0.0034,0.0,0.0,0.0,0.0,0.0,0.0,0.0,0.0,0.0,0.0,0.0,0.0,0.0,0.0,0.0,0.0,0.0,0.0,0.0,0.0,0.0,0.0,0.0,0.0,0.0,0.0,0.0,0.0,0.0,0.0,0.0,0.0,0.0,0.0,0.0,0.0,0.0,-0.996,-1.0254,-1.0577,-1.0887,-1.0662,-0.9755,-0.9803,-0.938,-0.8332,-0.843,-0.8547,-0.8699,-0.8825,-0.8902,-0.8902,-0.9228,-0.9403,-0.941,-0.9676,-0.9785,-0.9785,-0.9788,-0.9792,-0.9792,-0.9792,-0.9792,-0.9792,-0.9792,-0.9707,-0.9687,-1.031,-1.0259,-0.9835,-0.9823,-1.0092,-1.0406,-0.9952,-0.9868,-0.9799,-0.8996,-0.9328,-0.9737,-0.846,-0.7132,-0.5466,-0.2682,-0.0833,0.0694,0.2202,0.3707,0.5283,0.7085,0.7495,0.8023,0.9849,0.882,0.7632,0.7684,0.6246,0.5029,0.4993,0.4979,0.4427,0.2802,0.2586,0.196,0.0272,0.0091,0.0091,0.0,0.0154,0.0155,0.0158,0.0156,0.0125,0.0064,0.0064,0.0064,0.0,0.0,0.0,0.0,0.0,0.0,0.0,0.0,0.0,0.0,0.0,0.0,0.0,0.0,0.0,0.0,0.0,0.0,0.0,0.0,0.0,0.0,0.0,0.0,0.0,0.0,0.0,0.0,0.0,0.0,0.0,0.0,0.0,0.0,0.0,0.0,0.0,0.0,0.0,0.0,0.0,-1.1255,-1.1244,-0.9799,-1.0294,-1.0103,-0.8878,-0.8543,-0.8485,-0.8706,-0.8733,-0.8808,-0.8912,-0.9133,-0.9257,-0.9267,-0.954,-0.968,-0.9686,-0.9748,-0.9792,-0.9792,-0.9792,-0.9792,-0.9781,-0.969,-0.9977,-1.045,-1.0317,-1.116,-1.22,0.0,-1.0404,-1.0417,-1.0306,-1.019,-0.9935,-0.8952,-0.8785,-0.861,-0.6893,-0.4635,-0.233,-0.0756,0.2139,0.4883,0.5624,0.6939,0.7945,0.7676,0.7583,0.7485,0.711,0.6068,0.5197,0.5213,0.4631,0.3794,0.2704,0.2951,0.2718,0.1063,0.0838,0.0644,0.006,0.0,0.0,0.0,0.0,0.0,0.0,0.0,0.0,0.0,0.0,0.0,0.0,0.0,0.0,0.0,0.0,0.0,0.0,0.0,0.0,0.0,0.0,0.0,0.0,0.0,0.0,0.0,0.0,0.0,0.0,0.0,0.0,0.0,0.0,0.0,0.0,0.0,0.0,0.0,0.0,0.0,0.0,0.0,0.0,0.0,0.0,0.0,0.0,0.0,0.0,0.0,0.0,0.0,-1.0971,-1.0021,-1.0314,-1.0212,-0.9521,-0.9206,-0.9122,-0.9308,-0.9354,-0.9538,-0.9826,-1.0015,-0.9968,-0.9741,-0.9952,-0.9852,-0.9449,-0.954,-0.9642,-0.9737,-0.9897,-1.0028,-1.0112,-1.025,-1.0611,-1.1068,-1.1036,-1.1806,0.0,-1.1589,-1.0941,-1.0603,-1.0474,-1.0279,-0.9923,-0.896,-0.8131,-0.6999,-0.4586,-0.2276,-0.0026,0.214,0.4863,0.7258,0.7988,0.8945,0.9297,0.792,0.7605,0.7194,0.5713,0.4032,0.2882,0.307,0.2357,0.1317,0.009,0.06,0.0757,-0.031,-0.0462,-0.0335,-0.003,0.0,0.0,0.0,0.0,0.0,0.0,0.0,0.0,0.0,0.0,0.0,0.0,0.0,0.0,0.0,0.0,0.0,0.0,0.0,0.0,0.0,0.0,0.0,0.0,0.0,0.0,0.0,0.0,0.0,0.0,0.0,0.0,0.0,0.0,0.0,0.0,0.0,0.0,0.0,0.0,0.0,0.0,0.0,0.0,0.0,0.0,0.0,0.0,0.0,0.0,0.0,0.0,0.0,0.0,-1.0401,-0.9892,-0.9766,-1.02,-1.0337,-1.0409,-1.0446,-1.0543,-1.09,-1.1512,-1.1608,-1.1362,-1.0792,-1.0943,-1.0441,-0.9437,-0.9448,-0.9559,-0.9792,-1.0237,-1.0528,-1.0743,-1.135,-1.1566,-1.1578,-1.2373,-1.2207,-1.1592,-1.1887,-1.1591,-1.0955,-1.0453,-1.004,-0.9597,-0.8832,-0.7196,-0.4901,-0.1673,-0.0052,0.1576,0.5783,0.7217,0.7836,0.9252,0.963,0.9277,0.7801,0.735,0.6795,0.5328,0.2527,0.0484,0.0,0.0,-0.2236,-0.2555,-0.1841,-0.1224,-0.1231,-0.1236,-0.0935,0.0,0.0,0.0,0.0,0.0,0.0,0.0,0.0,0.0,0.0,0.0,0.0,0.0,0.0,0.0,0.0,0.0,0.0,0.0,0.0,0.0,0.0,0.0,0.0,0.0,0.0,0.0,0.0,0.0,0.0,0.0,0.0,0.0,0.0,0.0,0.0,0.0,0.0,0.0,0.0,0.0,0.0,0.0,0.0,0.0,0.0,0.0,0.0,0.0,0.0,0.0,0.0,0.0,0.0,0.0,-1.0707,-1.0549,-1.0485,-1.0491,-1.034,-1.0509,-1.1063,-1.0667,-1.0899,-1.1809,-1.1432,-1.1521,-1.2039,-1.2183,-1.2358,-1.2557,-1.2646,-1.2455,-1.2064,-1.2197,-1.2008,-1.1649,-1.1674,-1.2051,-1.2584,-1.2568,-1.2996,-1.3501,-1.2387,-1.1829,-1.1469,-1.0546,-0.8977,-0.7243,-0.6039,-0.4012,-0.1751,-0.0155,0.2219,0.4786,0.6738,0.814,0.9166,0.964,0.8872,0.7582,0.597,0.377,0.166,0.0184,-0.2645,-0.4515,0.0,0.0,0.0,-0.275,-0.132,0.0,-0.0337,-0.0337,0.0,-0.0031,0.0,0.0,0.0,0.0,0.0,0.0,0.0,0.0,0.0,0.0,0.0,0.0,0.0,0.0,0.0,0.0,0.0,0.0,0.0,0.0,0.0,0.0,0.0,0.0,0.0,0.0,0.0,0.0,0.0,0.0,0.0,0.0,0.0,0.0,0.0,0.0,0.0,0.0,0.0,0.0,0.0,0.0,0.0,0.0,0.0,0.0,0.0,0.0,0.0,0.0,0.0,0.0,0.0,0.0,0.0,-1.1684,-1.1763,-1.1747,-1.1845,-1.1976,-1.2141,-1.2206,-1.2493,-1.2998,-1.3009,-1.3049,-1.3127,-1.3182,-1.313,-1.3011,-1.3081,-1.2984,-1.2771,-1.2978,-1.2859,0.0,0.0,-1.29,-1.302,-1.2922,-1.3165,-1.3396,-1.2508,-1.13,-0.9848,-0.8079,-0.6687,-0.5473,-0.4282,-0.2229,0.0026,0.149,0.4071,0.6731,0.8029,0.9018,0.954,0.8909,0.8066,0.6625,0.3593,0.1549,-0.0418,-0.289,-0.5036,-0.6168,-0.5208,-0.4634,0.0,0.0,0.0,0.0,-0.0578,-0.058,-0.043,0.0,0.0,0.0,0.0,0.0,0.0,0.0,0.0,0.0,0.0,0.0,0.0,0.0,0.0,0.0,0.0,0.0,0.0,0.0,0.0,0.0,0.0,0.0,-0.0409,-0.1114,0.0,-0.1572,-0.2245,-0.2342,-0.2367,-0.2383,-0.2383,-0.2383,-0.2283,-0.1478,-0.1176,-0.1075,0.0,0.0,0.0,0.0,0.0,0.0,0.0,0.0,0.0,0.0,0.0,0.0,0.0,0.0,0.0,0.0,0.0,0.0,0.0,0.0,-1.3053,-1.3176,-1.376,-1.3855,-1.3378,-1.4087,-1.4431,-1.4375,-1.4934,-1.4809,-1.4015,-1.4015,-1.354,-1.2679,-1.2652,-1.2808,-1.3064,-1.347,-1.3492,-1.3292,-1.3975,-1.3786,-1.3103,0.0,-1.2988,-1.2354,-1.2076,-1.0226,-0.7473,-0.4792,-0.4012,-0.3997,-0.2925,-0.0946,0.1321,0.3161,0.5569,0.7941,0.9239,0.9533,0.9093,0.7702,0.6897,0.5369,0.1317,-0.0088,-0.1467,-0.4782,-0.6063,-0.6503,-0.6151,-0.5195,-0.4337,-0.3893,0.0,-0.1259,-0.1141,-0.112,-0.0858,-0.0094,0.0,0.0,0.0,0.0,0.0,0.0,0.0,0.0,0.0,0.0,0.0,0.0,-0.0219,-0.0317,-0.0321,-0.0554,-0.0652,-0.0643,-0.0643,-0.0644,-0.0644,-0.0657,-0.1441,-0.286,-0.2957,0.0,-0.5157,-0.5331,-0.5397,-0.5397,-0.5397,-0.5397,-0.5197,-0.3355,-0.2685,-0.2447,0.0,0.0,0.0,0.0,0.0,0.0,0.0,0.0,0.0,0.0,-0.9842,-0.9788,0.0,0.0,0.0,0.0,0.0,0.0,0.0,0.0,0.0,-1.3027,-1.3667,-1.4066,-1.4187,-1.3867,-1.3872,-1.4223,-1.3915,-1.4072,-1.4644,-1.4644,-1.5009,-1.5656,-1.5592,-1.547,-1.5339,-1.541,-1.4867,-1.3966,-1.4314,-1.3878,-1.3046,-1.3307,0.0,0.0,-1.0394,-0.8703,-0.6923,-0.4234,-0.2924,-0.2205,-0.0937,0.1541,0.4051,0.4511,0.6735,0.912,0.9508,0.8609,0.7496,0.7234,0.4285,0.1266,0.0558,-0.2553,0.0,0.0,-0.8436,-0.9552,-0.8731,-0.7705,-0.6321,-0.4297,-0.2429,-0.099,0.0,0.0,-0.0157,0.0,0.0,0.0,0.0,0.0,0.0,0.0,0.0,0.0,0.0,0.0,0.0,0.0,-0.1345,-0.2069,-0.208,-0.3373,-0.4062,-0.4036,-0.4036,-0.4061,-0.4042,-0.4051,-0.4279,-0.4654,-0.4686,0.0,-0.5355,-0.5398,-0.5397,-0.5397,-0.5397,-0.5397,-0.5197,-0.3355,-0.2685,-0.245,0.0,0.0,0.0,0.0,0.0,0.0,0.0,-0.9385,-0.9798,-1.0746,-1.0918,-1.1031,-1.1277,-1.1837,-1.2303,0.0,0.0,0.0,0.0,0.0,0.0,-1.3575,-1.4089,-1.4338,-1.4247,-1.4351,-1.4317,-1.4156,0.0,-1.4488,-1.4745,-1.4928,-1.5286,-1.578,-1.5968,-1.5975,-1.5843,-1.5843,-1.5431,-1.4801,-1.5105,-1.4658,-1.3763,-1.3607,0.0,0.0,-1.0563,-0.8896,-0.711,-0.512,-0.3159,-0.1392,-0.0346,0.1628,0.3554,0.364,0.5881,0.819,0.738,0.7206,0.6641,0.414,0.1851,-0.0377,-0.2576,0.0,0.0,-0.8611,-0.974,-1.0365,-0.992,-0.8721,0.0,-0.4964,-0.3173,-0.1707,0.0,0.0,0.0,0.0,0.0,0.0,0.0,0.0,0.0,0.0,0.0,-0.1375,-0.1289,-0.208,-0.2543,-0.2555,-0.3315,-0.3748,-0.3752,-0.4521,-0.4913,-0.4905,-0.4909,-0.4915,-0.4913,-0.4904,-0.5434,-0.6417,-0.6483,0.0,-0.8073,-0.8125,-0.8171,-0.8171,-0.8171,-0.8171,-0.7938,-0.6129,-0.5459,-0.5192,0.0,0.0,0.0,0.0,0.0,0.0,0.0,-0.9808,-1.0313,-1.1478,-1.1985,-1.2462,-1.3013,-1.3249,-1.3531,0.0,0.0,0.0,0.0,0.0,0.0,0.0,0.0,0.0,-1.4101,0.0,0.0,-1.4093,-1.4769,0.0,0.0,0.0,0.0,0.0,-1.554,-1.572,-1.5805,-1.5805,-1.5643,0.0,0.0,-1.5377,0.0,0.0,0.0,0.0,0.0,-0.9718,-0.8066,-0.6551,-0.4374,-0.2205,-0.149,0.0324,0.2205,0.2226,0.4249,0.6276,0.515,0.5549,0.5307,0.1142,-0.0319,-0.1768,-0.5699,-0.7251,0.0,-1.0282,-1.0659,-1.0703,-1.0812,-0.9598,-0.7995,0.0,-0.4459,-0.2936,-0.1578,0.0,0.0,0.0,0.0,0.0,0.0,0.0,0.0,0.0,0.0,0.0,-0.3088,-0.4217,-0.4885,-0.4885,-0.5253,-0.5437,-0.5437,-0.5776,-0.5961,-0.5957,-0.5963,-0.5963,-0.5961,-0.5978,-0.678,-0.8116,-0.8295,0.0,0.0,-1.0623,-1.0688,-1.0688,-1.0688,-1.0688,-1.0485,-0.8668,-0.7997,-0.7764,0.0,0.0,0.0,0.0,0.0,0.0,0.0,-1.0171,-1.097,-1.2225,-1.2592,-1.3395,-1.5115,-1.485,-1.452,0.0,0.0,0.0,0.0,0.0,0.0,0.0,0.0,0.0,0.0,0.0,0.0,-1.4093,-1.4537,0.0,0.0,0.0,0.0,0.0,0.0,-1.5454,-1.5805,-1.5805,0.0,0.0,0.0,0.0,0.0,0.0,0.0,0.0,0.0,-1.0665,-1.018,-0.811,-0.6763,-0.5858,-0.5539,-0.237,0.1228,0.1299,0.0,0.0,0.4529,0.372,0.2208,0.0319,-0.1981,-0.4448,-0.7007,0.0,-0.964,-1.1172,-1.1487,-1.1634,-1.2122,-1.1292,-0.9921,-0.805,-0.6437,-0.4621,-0.2245,0.0,0.0,0.0,0.0,0.0,0.0,0.0,0.0,0.0,0.0,0.0,-0.4944,-0.4872,-0.4885,-0.4885,-0.6383,-0.7177,-0.7177,-0.8632,-0.9342,-0.9359,-0.9342,-0.9348,-0.9352,-0.9471,-0.9635,-0.9799,-1.0095,0.0,0.0,-1.0623,-1.0688,-1.0688,-1.0688,-1.0688,-1.0485,-0.8668,-0.7997,-0.7764,0.0,0.0,0.0,0.0,0.0,0.0,-0.9826,-1.014,-1.0866,-1.2474,-1.2963,-1.3763,-1.537,-1.5592,-1.5609,-1.5592,0.0,0.0,0.0,0.0,0.0,0.0,0.0,0.0,0.0,0.0,-1.4914,-1.4769,-1.4923,0.0,0.0,0.0,0.0,0.0,0.0,-1.5651,-1.5805,-1.5805,0.0,0.0,0.0,0.0,0.0,0.0,0.0,0.0,0.0,0.0,-1.1293,-1.0643,-0.8968,-0.7196,-0.7562,-0.609,-0.3801,-0.1794,0.0338,0.2,0.1891,0.1442,0.0396,-0.2159,-0.4555,-0.6751,-0.8511,0.0,-1.0984,-1.1506,-1.198,-1.2346,-1.2395,-1.1653,-1.0542,-0.8978,-0.739,-0.5682,-0.3713,0.0,0.0,0.0,0.0,0.0,0.0,0.0,0.0,0.0,0.0,0.0,-0.8077,-0.7917,-0.7856,-0.7856,-0.8498,-0.8836,-0.8836,-0.9481,-0.9792,-0.9792,-0.9792,-0.9792,-0.9792,-0.9852,-0.993,-1.0025,-1.0143,0.0,0.0,-1.0558,-1.0636,-1.0688,-1.0688,-1.0688,-1.0621,-0.9878,-0.9609,-0.954,0.0,0.0,0.0,0.0,0.0,-0.9091,-0.9965,-1.0245,-1.0915,-1.2455,-1.3059,-1.3818,-1.5098,-1.5517,-1.5829,-1.6155,-1.5783,0.0,0.0,0.0,0.0,0.0,0.0,0.0,0.0,0.0,-1.526,-1.5386,-1.5497,-1.5745,0.0,0.0,-1.6071,-1.5942,0.0,0.0,0.0,0.0,0.0,0.0,0.0,0.0,0.0,0.0,0.0,0.0,0.0,0.0,0.0,0.0,0.0,-0.9195,-0.962,-0.9002,-0.7544,-0.4527,-0.2141,-0.0554,-0.0916,-0.0758,-0.1274,-0.442,-0.6409,-0.8059,0.0,0.0,-1.1678,-1.1922,-1.2342,-1.2654,-1.253,-1.1853,-1.0924,-0.9735,-0.8304,-0.6785,-0.519,-0.4673,0.0,0.0,0.0,0.0,0.0,0.0,0.0,0.0,0.0,0.0,-1.0025,-0.9873,-0.9792,-0.9792,-0.9792,-0.9792,-0.9792,-0.9792,-0.9792,-0.9792,-0.9792,-0.9815,-0.9856,-0.9856,-0.9917,-0.9987,-1.0065,0.0,0.0,-1.0473,-1.0582,-1.0688,-1.0688,-1.0688,-1.0688,-1.0688,-1.0688,-1.0688,0.0,0.0,0.0,0.0,0.0,0.0,-0.9965,-1.0608,-1.1303,-1.2191,-1.2832,-1.3568,-1.4518,-1.4562,-1.49,-1.5818,-1.6137,0.0,0.0,0.0,0.0,0.0,0.0,0.0,0.0,0.0,-1.5403,-1.5797,-1.6201,-1.6552,-1.6891,-1.6891,-1.6686,-1.6291,0.0,0.0,0.0,0.0,0.0,0.0,0.0,0.0,0.0,0.0,0.0,0.0,0.0,0.0,0.0,0.0,0.0,0.0,0.0,-1.0682,-0.8696,-0.6293,-0.5045,-0.429,-0.3568,-0.2787,-0.2943,-0.6091,-0.7149,-0.8049,0.0,-1.115,-1.1507,-1.2565,-1.2581,-1.249,-1.2745,-1.2151,-1.1316,-1.0511,-0.9382,-0.8033,-0.6493,-0.5879,0.0,0.0,0.0,0.0,0.0,0.0,0.0,0.0,0.0,0.0,-0.9987,-0.9873,-0.9792,-0.9792,-0.9792,-0.9792,-0.9792,-0.9792,-0.9792,-0.9792,-0.9792,-0.9869,-0.9984,-0.9984,-0.9984,0.0,0.0,0.0,0.0,-1.0465,-1.0582,-1.0688,-1.0688,-1.0688,-1.0688,-1.0688,-1.0688,-1.0688,0.0,0.0,0.0,0.0,0.0,0.0,0.0,-0.9995,-1.057,-1.1855,-1.2189,-1.2986,-1.4757,-1.4676,-1.4974,-1.6135,-1.6074,0.0,0.0,0.0,0.0,0.0,0.0,0.0,0.0,0.0,-1.6426,-1.6549,-1.6954,-1.7323,-1.7661,-1.7415,-1.6995,-1.6445,-1.6623,-1.6288,0.0,0.0,0.0,0.0,0.0,0.0,0.0,0.0,0.0,0.0,0.0,0.0,0.0,0.0,0.0,0.0,0.0,0.0,0.0,-0.9902,-0.8056,-0.6438,-0.5675,-0.6011,-0.6821,-0.7806,-0.9257,-1.0701,-1.1849,-1.2321,-1.2598,-1.2993,-1.2972,-1.2803,-1.2583,-1.1565,-1.0921,-1.1353,-0.9721,-0.8326,0.0,0.0,0.0,0.0,0.0,0.0,0.0,0.0,0.0,0.0,0.0,0.0,-0.9866,-0.9913,-0.99,-0.9795,-0.9792,-0.9842,-0.9944,-0.9842,-0.9927,-1.0131,-0.992,-0.9869,-0.9984,-0.991,-0.9863,0.0,0.0,0.0,0.0,-1.014,-1.0248,-1.0419,-1.0419,-1.048,-1.0565,-1.0565,-1.0629,-1.0688,0.0,0.0,0.0,0.0,0.0,0.0,0.0,-0.9888,-1.0372,-1.129,-1.1698,-1.2534,-1.4193,-1.4483,-1.4981,-1.6115,-1.6207,0.0,0.0,0.0,0.0,0.0,0.0,0.0,-1.5994,-1.6434,-1.6885,-1.7327,-1.7569,-1.7954,-1.8439,-1.8249,-1.7762,-1.7057,-1.7234,-1.6801,0.0,0.0,0.0,0.0,0.0,0.0,-1.8389,0.0,0.0,0.0,0.0,0.0,0.0,0.0,0.0,0.0,0.0,0.0,0.0,0.0,-1.1241,-0.9792,-0.8134,-0.8124,-0.8722,-0.928,-1.0675,0.0,-1.2341,-1.2766,-1.3124,-1.3246,-1.3049,-1.2762,-1.2561,-1.1531,-1.0919,-1.1531,-1.0212,-0.914,0.0,0.0,0.0,0.0,0.0,0.0,0.0,0.0,0.0,0.0,0.0,0.0,-0.9883,-1.0021,-1.0062,-0.9998,-0.9995,-0.9981,-0.9987,-0.9981,-1.009,-1.0312,-1.0086,-1.0046,-1.0099,-0.9947,-0.9876,0.0,0.0,0.0,0.0,-1.0018,-1.0109,-1.0312,-1.0312,-1.0334,-1.0419,-1.0473,-1.0551,-1.0643,0.0,0.0,0.0,0.0,0.0,0.0,0.0,-1.0204,-1.0579,-1.062,-1.1384,-1.2255,-1.3128,-1.4066,-1.498,-1.585,0.0,0.0,0.0,0.0,0.0,0.0,0.0,0.0,-1.6283,-1.6325,-1.6891,-1.7957,-1.8028,-1.8442,-1.9157,-1.9183,-1.8764,-1.7973,-1.8014,-1.7355,0.0,0.0,0.0,0.0,0.0,0.0,0.0,0.0,0.0,0.0,0.0,0.0,0.0,0.0,0.0,0.0,0.0,0.0,0.0,0.0,0.0,0.0,0.0,-0.9501,-0.9279,-1.0651,-1.1595,-1.2206,-1.2254,-1.2704,0.0,-1.3361,-1.2882,-1.2489,-1.2638,-1.19,-1.1281,-1.1334,-1.0842,-1.0312,0.0,0.0,0.0,0.0,0.0,0.0,0.0,0.0,0.0,0.0,0.0,0.0,-0.997,-1.0202,-1.0287,-1.0263,-1.0293,-1.0232,-1.0004,-1.0209,-1.0287,-1.0293,-1.0287,-1.0287,-1.0322,-1.0092,-0.9987,0.0,0.0,0.0,0.0,-1.0005,-1.0086,-1.0249,-1.0249,-1.0291,-1.0293,-1.0415,-1.0473,-1.051,0.0,0.0,0.0,0.0,0.0,0.0,0.0,0.0,0.0,0.0,-1.1657,-1.2536,-1.3409,-1.4306,-1.5197,0.0,0.0,0.0,0.0,0.0,0.0,0.0,0.0,0.0,-1.6283,-1.6609,-1.7047,-1.7623,-1.8177,-1.8554,-1.8754,-1.9054,-1.8668,-1.7713,-1.8232,-1.8275,0.0,0.0,0.0,0.0,0.0,0.0,0.0,0.0,0.0,0.0,-1.6301,-1.6193,0.0,0.0,0.0,0.0,0.0,0.0,0.0,0.0,-1.3843,-1.3672,-1.2784,0.0,-1.2368,-1.2695,-1.2938,-1.3199,0.0,-1.3627,-1.3489,-1.3226,-1.3047,0.0,-1.2325,-1.1999,-1.2006,-1.2553,-1.181,-1.1061,0.0,0.0,0.0,0.0,0.0,0.0,0.0,0.0,0.0,0.0,0.0,-0.9967,-0.9849,-1.0236,-1.0337,-1.0079,-1.0407,-1.049,-1.0229,-1.0295,-1.0334,-1.0439,-1.0363,-1.0337,-1.0432,-1.014,-0.9987,0.0,0.0,0.0,-0.9876,-0.9846,-0.9866,-0.9927,-0.9927,-1.0073,-1.0301,-1.0153,-1.0265,-1.048,0.0,0.0,0.0,0.0,0.0,0.0,0.0,0.0,0.0,0.0,0.0,0.0,0.0,0.0,0.0,0.0,0.0,0.0,0.0,0.0,0.0,0.0,0.0,-1.6386,-1.6574,-1.6978,-1.7546,-1.8274,-1.8677,-1.9054,-1.9376,-1.9612,-1.9312,-1.8574,-1.8791,-1.8874,0.0,0.0,0.0,0.0,-1.7371,0.0,0.0,0.0,0.0,0.0,-1.5592,-1.5443,0.0,-1.5077,-1.4955,-1.4836,0.0,0.0,0.0,0.0,-1.4338,-1.4249,-1.3827,-1.3681,-1.362,-1.362,-1.3706,-1.3796,-1.3863,-1.3708,-1.3441,-1.3003,-1.2748,0.0,0.0,-1.1817,-1.1856,-1.2958,-1.2528,0.0,0.0,0.0,0.0,0.0,0.0,0.0,0.0,0.0,0.0,0.0,0.0,-1.012,-1.0036,-1.0392,-1.0524,-1.0329,-1.0559,-1.0578,-1.0315,-1.0344,-1.0414,-1.0424,-1.0317,-1.0283,-1.0251,-1.0089,-0.9981,0.0,0.0,0.0,-0.9792,-0.9792,-0.9792,-0.9792,-0.9792,-0.9924,-1.007,-1.0025,-1.0163,-1.0385,0.0,0.0,0.0,0.0,0.0,0.0,0.0,0.0,0.0,0.0,0.0,0.0,0.0,0.0,0.0,0.0,0.0,0.0,0.0,0.0,0.0,0.0,-1.6735,-1.6925,-1.6985,-1.7332,-1.7992,-1.902,-1.914,-1.9517,-2.0121,-2.024,-2.0095,-1.9683,-1.9125,-1.8959,0.0,0.0,0.0,0.0,-1.6745,0.0,0.0,0.0,0.0,0.0,0.0,0.0,0.0,-1.4685,-1.4663,-1.4583,-1.5375,0.0,0.0,0.0,0.0,0.0,-1.4093,-1.3817,-1.373,-1.3893,-1.408,-1.4126,-1.3691,-1.3502,-1.3264,-1.279,-1.2371,0.0,0.0,-1.1694,0.0,0.0,0.0,0.0,0.0,0.0,0.0,0.0,0.0,0.0,0.0,0.0,0.0,0.0,0.0,-1.0246,-1.0246,-1.0504,-1.0653,-1.0653,-1.0673,-1.0555,-1.0315,-1.0422,-1.0409,-1.0246,-1.0301,-1.0212,-1.0052,-0.9997,-0.9947,-0.9822,0.0,0.0,-0.9792,-0.9792,-0.9792,-0.9792,-0.9792,-0.9805,-0.9839,-0.9944,-1.0079,-1.0246,0.0,0.0,0.0,0.0,0.0,0.0,0.0,0.0,0.0,0.0,0.0,0.0,0.0,0.0,0.0,0.0,0.0,0.0,0.0,0.0,0.0,-1.6503,-1.675,-1.7064,-1.74,-1.748,-1.7715,-1.8191,-1.8883,-1.9252,-1.938,-2.0014,-2.0095,-1.9638,-1.8105,-1.7908,-1.8578,-1.6634,0.0,0.0,0.0,0.0,0.0,0.0,0.0,0.0,0.0,0.0,0.0,-1.4216,-1.4195,-1.4183,-1.4329,0.0,0.0,0.0,0.0,0.0,-1.3218,-1.2984,-1.2928,-1.3832,-1.4262,-1.4385,-1.4083,-1.3696,-1.3264,-1.279,-1.2523,-1.2093,0.0,-1.2209,-1.2872,0.0,0.0,0.0,0.0,0.0,0.0,0.0,0.0,0.0,0.0,0.0,0.0,0.0,0.0,-1.0055,-1.0055,-1.0253,-1.0348,-1.0348,-1.0463,-1.0449,-1.0315,-1.0422,-1.0354,-1.0055,-1.0219,-1.0266,-1.0243,-1.0079,-0.9974,-0.9978,0.0,-0.9792,-0.9792,-0.9792,-0.9792,-0.9792,-0.9792,-0.9869,-0.9971,-0.9863,-0.9923,-1.0055,0.0,0.0,0.0,0.0,0.0,0.0,0.0,0.0,0.0,0.0,0.0,0.0,0.0,0.0,0.0,0.0,0.0,0.0,0.0,0.0,-1.6546,-1.6507,-1.6623,-1.6942,-1.7494,-1.7889,-1.8283,-1.8648,-1.9213,-1.9581,-1.9809,-2.0129,-2.0198,-1.999,-1.92,-1.885,-1.8815,-1.7452,0.0,0.0,0.0,0.0,0.0,0.0,0.0,0.0,0.0,0.0,0.0,0.0,-1.35,-1.357,-1.3271,0.0,0.0,0.0,0.0,0.0,-1.2699,-1.2888,-1.3025,-1.2927,-1.3483,-1.4091,-1.4187,-1.4047,-1.3755,-1.3287,-1.3119,0.0,0.0,0.0,-1.2153,0.0,0.0,0.0,0.0,0.0,0.0,0.0,0.0,0.0,0.0,0.0,0.0,0.0,0.0,0.0,-1.0025,-1.0198,-1.0312,-1.0312,-1.0419,-1.0385,-1.0126,-1.0304,-1.0226,-0.9896,-0.9998,-1.0032,-1.0029,-0.9927,-0.9896,-0.9893,0.0,-0.9792,-0.9792,-0.9792,-0.9792,-0.9792,-0.9792,-0.9832,-0.9896,-0.991,-0.9907,-0.992,0.0,0.0,0.0,0.0,0.0,0.0,0.0,0.0,0.0,0.0,0.0,0.0,0.0,0.0,0.0,0.0,0.0,0.0,0.0,-1.575,-1.598,-1.6261,-1.6417,-1.6849,-1.7617,-1.8198,-1.8723,-1.9192,-1.9534,-1.991,-2.0292,-2.0292,-2.0292,-2.0292,-2.0133,-1.9623,-1.8889,-1.8149,-1.7403,0.0,0.0,0.0,0.0,0.0,0.0,0.0,0.0,0.0,0.0,0.0,0.0,0.0,0.0,0.0,0.0,-1.211,-1.2034,-1.21,-1.2197,-1.2495,-1.2637,-1.2143,-1.2837,-1.3708,-1.395,-1.4016,-1.3962,-1.38,-1.3475,0.0,0.0,-1.1604,0.0,0.0,0.0,0.0,0.0,0.0,0.0,0.0,0.0,0.0,0.0,0.0,0.0,0.0,0.0,0.0,-1.0021,-1.0468,-1.0748,-1.0787,-1.0898,-1.0813,-1.0574,-1.0353,-1.009,-0.9792,-0.9792,-0.9792,-0.9792,-0.9792,-0.9792,-0.9792,-0.9792,-0.9792,-0.9792,-0.9792,-0.9792,-0.9792,-0.9792,-0.9792,-0.9805,-0.992,-0.989,-0.9825,0.0,0.0,0.0,0.0,0.0,0.0,0.0,0.0,0.0,0.0,0.0,0.0,0.0,0.0,0.0,0.0,0.0,0.0,0.0,-1.4656,-1.5289,-1.5555,-1.6176,-1.7003,-1.8027,-1.8105,-1.8491,-1.9192,-1.9534,-1.991,-2.0292,-2.0292,-2.0292,-2.0269,-1.9577,-1.8866,-1.8125,-1.7396,-1.6622,-1.5849,0.0,0.0,0.0,0.0,0.0,0.0,0.0,0.0,0.0,0.0,0.0,0.0,0.0,0.0,-1.1822,-1.197,-1.1583,-1.1206,-1.1636,-1.121,-1.0905,-1.2076,-1.2941,-1.3436,-1.3166,-1.3134,-1.3393,-1.4106,-1.3107,0.0,0.0,-1.1575,0.0,0.0,0.0,0.0,0.0,0.0,0.0,0.0,0.0,0.0,0.0,0.0,0.0,0.0,0.0,0.0,-0.998,-1.1317,-1.2127,-1.2236,-1.2256,-1.2252,-1.2223,-1.0767,-0.995,-0.9792,-0.9792,-0.9792,-0.9792,-0.9792,-0.9792,-0.9792,-0.9792,-0.9792,-0.9792,-0.9792,-0.9792,-0.9792,-0.9792,-0.9792,-0.9792,-0.9802,-0.9798,-0.9795,0.0,0.0,0.0,0.0,0.0,0.0,0.0,0.0,0.0,0.0,0.0,0.0,0.0,0.0,0.0,0.0,0.0,0.0,0.0,-1.415,-1.4598,-1.4871,-1.5319,-1.5972,-1.6844,-1.7889,-1.8553,-1.8817,-1.9667,-2.0155,-2.0292,-2.0292,-2.0292,-2.0292,-2.0019,-1.9463,-1.8727,-1.8009,-1.7044,-1.5984,-1.5363,0.0,0.0,0.0,0.0,0.0,0.0,0.0,0.0,0.0,-1.169,-1.1685,-1.1466,-1.1228,-1.1002,-1.0967,-1.0763,-1.0627,-1.0929,-1.0748,-1.0628,-1.1305,-1.1759,-1.2178,-1.2585,-1.3678,-1.4569,-1.4437,-1.3952,0.0,0.0,0.0,0.0,0.0,0.0,0.0,0.0,0.0,0.0,0.0,0.0,0.0,0.0,0.0,0.0,0.0,0.0,0.0,-1.1328,-1.1893,-1.2668,-1.3734,-1.3856,-1.3861,-1.3769,-1.2257,-1.1432,-1.1287,-1.027,-1.0331,-1.1287,-1.1287,-1.1826,-1.2783,-1.2783,-1.2783,-1.2783,-1.2783,-1.2213,-1.1197,-1.0179,-0.9792,-0.9792,-0.9792,-0.9792,-0.9792,0.0,0.0,0.0,0.0,0.0,0.0,0.0,0.0,0.0,0.0,0.0,0.0,0.0,0.0,0.0,0.0,0.0,0.0,-1.3621,-1.39,-1.4215,-1.4481,-1.4716,-1.513,-1.5747,-1.7407,-1.8391,-1.8637,-1.9757,-2.0292,-2.0292,-2.0292,-2.0292,-2.0292,-2.0292,-1.9882,-1.9165,-1.8658,-1.7676,-1.6379,-1.5534,-1.4849,0.0,0.0,0.0,0.0,0.0,0.0,0.0,0.0,-1.1139,-1.1155,-1.0827,-1.0671,-1.0565,-1.0449,-1.027,-1.018,-1.0336,-1.0384,-1.0412,-1.0441,-1.0784,-1.1175,-1.1442,-1.338,-1.4912,-1.4078,-1.3731,-1.3213,-1.2026,0.0,0.0,0.0,0.0,0.0,0.0,0.0,0.0,0.0,0.0,0.0,0.0,0.0,0.0,0.0,0.0,0.0,0.0,-1.3432,-1.4207,-1.5311,-1.5459,-1.5435,-1.537,-1.3339,-1.2556,-1.2933,-1.1318,-1.114,-1.2213,-1.2213,-1.3083,-1.4604,-1.4604,-1.4604,-1.4604,-1.4604,-1.3688,-1.2154,-1.1096,-1.0345,-0.9856,-0.9808,-0.9792,-0.9792,0.0,0.0,0.0,0.0,0.0,0.0,0.0,0.0,0.0,0.0,0.0,0.0,0.0,0.0,0.0,0.0,0.0,0.0,-1.36,-1.3921,-1.4208,-1.4474,-1.4516,-1.4678,-1.4995,-1.6704,-1.7981,-1.872,-1.9788,-2.0292,-2.0292,-2.0292,-2.0292,-2.0283,-2.0292,-1.9897,-1.9202,-1.9202,-1.8342,-1.6913,-1.5832,-1.4961,0.0,0.0,0.0,0.0,0.0,0.0,0.0,0.0,-1.1171,-1.1009,-1.1003,-1.0826,-1.0603,-1.0597,-1.0218,-0.9824,-0.9892,-1.0042,-1.0076,-0.962,-1.0209,-1.0618,-0.9533,-1.192,-1.4033,-1.2836,-1.2066,-1.166,-1.1768,0.0,0.0,0.0,0.0,0.0,0.0,0.0,0.0,0.0,0.0,0.0,0.0,0.0,0.0,0.0,0.0,0.0,0.0,-1.6138,-1.6997,-1.7026,-1.7026,-1.7026,-1.7026,-1.385,-1.3053,-1.4604,-1.2988,-1.2243,-1.2243,-1.2243,-1.3112,-1.4663,-1.4663,-1.4663,-1.4634,-1.4634,-1.3773,-1.2465,-1.2549,-1.1541,-0.9998,-0.9846,-0.9792,-0.9792,0.0,0.0,0.0,0.0,0.0,0.0,0.0,0.0,0.0,0.0,0.0,0.0,0.0,0.0,0.0,0.0,0.0,0.0,-1.4022,-1.4297,-1.4289,-1.3874,-1.517,-1.5647,-1.507,-1.7014,-1.8604,-1.9827,-2.0141,-2.0292,-2.0292,-2.0292,-2.0155,-1.9893,-2.0172,-1.988,-1.9193,-1.8903,-1.8317,-1.7439,-1.6079,-1.5143,-1.4381,0.0,0.0,0.0,0.0,0.0,0.0,0.0,0.0,0.0,-1.1036,-1.1037,-1.1,-1.0521,-1.0376,-1.0367,-1.0387,-0.9814,-0.9428,-1.028,0.0,0.0,-0.9597,-1.1063,-1.2254,0.0,-1.2157,-1.2305,-1.0745,0.0,0.0,0.0,0.0,0.0,0.0,0.0,0.0,0.0,0.0,0.0,0.0,0.0,0.0,0.0,0.0,0.0,0.0,-1.6733,-1.7536,-1.8648,-1.8677,-1.8677,-1.8677,-1.6615,-1.5808,-1.6256,-1.4658,-1.448,-1.5572,-1.5572,-1.6438,-1.7994,-1.7994,-1.7994,-1.7906,-1.6762,-1.6029,-1.5406,-1.3194,-1.1995,-1.1422,-1.0227,-0.9792,-0.9792,0.0,0.0,0.0,0.0,0.0,0.0,0.0,0.0,0.0,0.0,-1.4021,-1.4374,0.0,0.0,0.0,0.0,0.0,0.0,0.0,-1.4106,-1.409,-1.3814,-1.5311,-1.6263,-1.6517,-1.7763,-1.9027,-2.0292,-2.0292,-2.0292,-2.0292,-1.9996,-1.9901,-1.9944,-1.9895,-1.969,-1.9366,-1.914,-1.8681,-1.8017,-1.6919,-1.5798,-1.4694,0.0,0.0,0.0,0.0,0.0,0.0,0.0,0.0,0.0,-1.1058,-1.1085,-1.1038,-1.0305,-1.0326,-1.042,-0.9844,-0.9492,-0.9355,-0.9665,-0.9885,-1.0049,-1.0088,0.0,0.0,0.0,-1.1756,-1.1617,-1.1444,0.0,0.0,0.0,0.0,0.0,0.0,0.0,0.0,0.0,0.0,0.0,0.0,0.0,0.0,0.0,0.0,0.0,0.0,-1.7656,-1.8144,-1.9359,-1.9281,-1.9281,-1.9395,-1.7806,-1.7325,-1.7923,-1.6321,-1.6409,-1.7923,-1.7296,-1.7893,-1.9395,-1.9395,-1.9395,-1.9292,-1.7856,-1.6791,-1.5867,-1.3434,-1.1998,-1.1202,-1.0174,-0.9792,-0.9792,0.0,0.0,0.0,0.0,0.0,0.0,0.0,0.0,0.0,0.0,-1.3698,-1.384,0.0,0.0,0.0,0.0,0.0,0.0,0.0,-1.3642,-1.3775,-1.4035,-1.5127,-1.6671,-1.8699,-1.8771,-1.9264,-2.024,-2.0252,-2.0224,-2.0102,-1.9509,-1.9538,-2.0028,-1.9413,-1.9268,-1.9479,-1.9467,-1.9084,-1.8465,-1.7936,-1.6763,-1.5192,-1.4301,0.0,0.0,0.0,0.0,0.0,0.0,0.0,0.0,-1.1058,-1.1036,-1.091,-1.0108,-1.0163,-1.019,-0.8837,-0.9143,-0.9539,-0.8382,-0.9599,0.0,-1.0617,-0.9833,-0.9864,-1.2363,0.0,-1.0053,0.0,0.0,0.0,0.0,0.0,0.0,0.0,0.0,0.0,0.0,0.0,0.0,0.0,0.0,0.0,0.0,0.0,0.0,0.0,-1.8637,-1.8766,-1.9301,-1.9025,-1.9025,-1.9354,-1.7886,-1.7927,-1.9395,-1.7923,-1.7981,-1.9336,-1.7893,-1.8017,-1.9395,-1.9395,-1.9307,-1.9108,-1.7998,-1.645,-1.4634,-1.3336,-1.1756,-1.0163,-0.9903,-0.9792,-0.9792,0.0,0.0,0.0,0.0,0.0,0.0,0.0,0.0,0.0,0.0,0.0,0.0,0.0,0.0,0.0,0.0,0.0,0.0,0.0,-1.3924,-1.3955,-1.3728,-1.5676,-1.7506,-1.9066,-1.934,-1.9601,-1.9841,-1.9921,-1.9583,-1.8818,-1.9279,-1.9004,-1.8128,-1.8444,-1.827,-1.7736,-1.7637,-1.7677,-1.7773,-1.7293,-1.699,-1.6654,-1.5115,-1.3902,0.0,0.0,0.0,0.0,0.0,0.0,0.0,-1.1058,-1.1241,-1.1391,-1.0647,-1.0389,-1.0253,-0.9898,-0.9168,0.0,-0.8792,-0.9072,-0.9273,-0.928,-0.913,-0.9106,-0.9591,-0.9311,0.0,0.0,0.0,0.0,0.0,0.0,0.0,0.0,0.0,0.0,0.0,0.0,0.0,0.0,0.0,0.0,0.0,0.0,0.0,-1.8584,-1.8524,-1.8551,-1.8677,-1.8617,-1.8724,-1.899,-1.8663,-1.8809,0.0,-1.9039,-1.9062,-1.9395,-1.9033,-1.9062,-1.9395,-1.9395,-1.8677,-1.7484,-1.7239,-1.6142,-1.4496,-1.295,-1.2098,-1.1581,-1.0281,-0.9792,-0.9808,0.0,0.0,0.0,0.0,0.0,0.0,0.0,0.0,0.0,0.0,0.0,0.0,0.0,0.0,0.0,0.0,0.0,0.0,0.0,0.0,-1.4032,-1.476,-1.6573,-1.81,-1.9171,-1.972,-1.9987,-1.9987,-1.9771,-1.9463,-1.9117,-1.9042,-1.8839,-1.8473,-1.7832,-1.7347,-1.6982,-1.6627,-1.6544,-1.6659,-1.6727,-1.645,-1.5869,-1.4943,-1.389,-1.279,-1.2037,0.0,0.0,0.0,0.0,0.0,0.0,0.0,-1.1374,-1.0744,-1.0827,-1.094,-0.9863,-0.9446,0.0,-0.986,0.0,-0.9002,-0.9786,-0.9399,-0.8889,-0.8808,0.0,0.0,0.0,0.0,0.0,0.0,0.0,0.0,0.0,0.0,0.0,0.0,0.0,0.0,0.0,0.0,0.0,0.0,0.0,-1.8249,-1.8249,-1.8136,-1.819,-1.8477,-1.835,-1.8389,-1.8718,-1.8718,-1.8798,-1.898,-1.9085,-1.9232,-1.9395,-1.9395,-1.9395,-1.9395,-1.9395,-1.8917,-1.8023,-1.6558,-1.5406,-1.4376,-1.2041,-1.1122,-1.0959,-1.0119,-0.9792,-0.9802,0.0,0.0,0.0,0.0,0.0,0.0,0.0,0.0,0.0,0.0,0.0,0.0,0.0,0.0,0.0,0.0,0.0,0.0,0.0,0.0,0.0,-1.6022,-1.7204,-1.8203,-1.8981,-1.9465,-1.9705,-1.9705,-1.9204,-1.9123,-1.9441,-1.8762,-1.8678,-1.9053,-1.7409,-1.6603,-1.644,-1.5847,-1.5411,-1.5192,-1.5806,-1.5401,-1.44,-1.4303,-1.3495,-1.2337,-1.1776,-1.1721,-1.1866,-1.1413,0.0,0.0,0.0,0.0,-1.1213,-1.0763,-1.1185,-1.1403,-0.9654,-0.9734,-1.0365,-1.0439,-0.9646,0.0,-1.0413,-0.9759,-0.8912,0.0,0.0,0.0,0.0,0.0,0.0,0.0,0.0,0.0,0.0,0.0,0.0,0.0,0.0,0.0,0.0,0.0,0.0,0.0,0.0,-1.7942,-1.7942,-1.7722,-1.7842,-1.8317,-1.8069,-1.8083,-1.841,-1.841,-1.8437,-1.8497,-1.8731,-1.9005,-1.9321,-1.9321,-1.9348,-1.9395,-1.9395,-1.9068,-1.8369,-1.5812,-1.4365,-1.3515,-1.0961,-0.99,-0.9792,-0.9792,-0.9792,-0.9795,0.0,0.0,0.0,0.0,0.0,0.0,0.0,0.0,0.0,0.0,-1.3625,-1.3633,0.0,0.0,0.0,0.0,0.0,0.0,0.0,0.0,0.0,-1.6029,-1.6485,-1.7194,-1.821,-1.7659,-1.7341,-1.7341,-1.7219,-1.7315,-1.7651,-1.8269,-1.8074,-1.7167,-1.7085,-1.6327,-1.5131,-1.4564,-1.397,-1.3372,-1.3707,-1.3924,-1.403,-1.3563,-1.3137,-1.2711,-1.1833,-1.1563,-1.159,-1.1178,-1.1155,0.0,0.0,0.0,-1.1294,-1.1213,-1.0886,-1.0492,-1.0331,0.0,-0.9185,0.0,-0.8691,-0.8767,0.0,0.0,-0.8912,0.0,0.0,0.0,0.0,0.0,0.0,0.0,0.0,0.0,0.0,0.0,0.0,0.0,0.0,0.0,0.0,0.0,0.0,0.0,-1.7769,-1.7642,-1.7642,-1.7628,-1.7648,-1.7729,-1.7689,-1.7796,-1.8049,-1.8076,-1.8209,-1.849,-1.8531,-1.8698,-1.8985,-1.8985,-1.9125,-1.9395,-1.9395,-1.7812,-1.5198,-1.4813,-1.2985,-1.0391,-0.9994,-0.9808,-0.9792,-0.9792,-0.9792,-0.9808,0.0,0.0,0.0,0.0,0.0,0.0,0.0,0.0,0.0,0.0,0.0,-1.3768,0.0,0.0,0.0,0.0,0.0,0.0,0.0,0.0,0.0,-1.4552,-1.5531,-1.6107,-1.6186,-1.6412,-1.6424,-1.6274,-1.6067,-1.6139,-1.6458,-1.6623,-1.6831,-1.7054,-1.6296,-1.521,-1.39,-1.3086,-1.2478,-1.2069,-1.2472,-1.2408,-1.2104,-1.2254,-1.2016,-1.157,-1.1272,0.0,-1.1385,-1.1106,-1.1052,-1.115,-1.1268,0.0,0.0,0.0,-1.12,-1.0979,-1.0496,-0.9756,-0.8996,0.0,-0.8512,-0.8581,-0.8581,0.0,0.0,0.0,0.0,0.0,0.0,0.0,0.0,0.0,0.0,0.0,0.0,0.0,0.0,0.0,0.0,0.0,0.0,0.0,0.0,0.0,-1.7347,-1.7367,-1.7367,-1.7367,-1.7441,-1.7608,-1.7448,-1.7508,-1.7782,-1.7622,-1.7776,-1.8223,-1.8209,-1.8456,-1.8896,-1.8896,-1.9085,-1.9395,-1.9395,-1.859,-1.722,-1.6321,-1.5098,-1.3666,-1.1852,-1.171,-1.2393,-1.1468,-1.1137,-1.1148,0.0,0.0,0.0,0.0,0.0,0.0,0.0,0.0,0.0,0.0,0.0,0.0,0.0,0.0,0.0,0.0,0.0,0.0,0.0,0.0,0.0,-1.3569,-1.4557,-1.4958,-1.4623,-1.5028,-1.5167,-1.4967,-1.4756,-1.4854,-1.5237,-1.5161,-1.5627,-1.6502,-1.557,-1.4377,-1.3017,-1.2205,-1.1568,-1.1126,-1.1203,-1.083,-1.0231,-1.0685,-1.0545,-1.0153,-1.0465,0.0,0.0,0.0,0.0,0.0,-1.1176,-1.1214,0.0,0.0,0.0,-1.1423,0.0,0.0,-0.9146,-0.8704,-0.8526,-0.8454,0.0,0.0,0.0,0.0,0.0,0.0,0.0,0.0,0.0,0.0,0.0,0.0,0.0,0.0,0.0,0.0,0.0,0.0,0.0,0.0,0.0,0.0,-1.6939,-1.7066,-1.7066,-1.7066,-1.716,-1.7355,-1.7173,-1.7167,-1.7381,-1.7273,-1.7434,-1.7909,-1.7896,-1.8209,-1.879,-1.879,-1.9018,-1.9395,-1.9395,-1.9156,-1.8706,-1.7478,-1.6762,-1.6138,-1.376,-1.3526,-1.4455,-1.3262,-1.2543,-1.2213,0.0,0.0,0.0,0.0,0.0,0.0,0.0,0.0,0.0,0.0,0.0,0.0,-1.3237,-1.316,-1.2904,-1.236,-1.2056,0.0,0.0,0.0,0.0,-1.4027,-1.3719,0.0,-1.4308,-1.3238,-1.2686,-1.2674,-1.2785,-1.3147,-1.374,-1.4549,-1.4757,-1.4472,-1.503,-1.4327,-1.2705,-1.2388,-1.1633,-1.0554,-0.9552,-0.9118,-0.907,-0.8908,0.0,0.0,0.0,0.0,0.0,0.0,0.0,0.0,0.0,0.0,0.0,0.0,0.0,0.0,0.0,-1.0086,0.0,-0.9012,-0.8588,0.0,0.0,0.0,0.0,0.0,0.0,0.0,0.0,0.0,0.0,0.0,0.0,0.0,0.0,0.0,0.0,0.0,0.0,0.0,0.0,0.0,0.0,0.0,-1.672,-1.6727,-1.6727,-1.6727,-1.6734,-1.6747,-1.6734,-1.6734,-1.6747,-1.704,-1.7353,-1.7628,-1.7609,-1.7949,-1.851,-1.851,-1.8824,-1.9395,-1.9395,-1.8525,-1.7114,-1.7026,-1.6109,-1.4723,-1.454,-1.4545,-1.4604,-1.4515,-1.3497,-1.2213,0.0,0.0,0.0,0.0,0.0,0.0,0.0,0.0,0.0,0.0,0.0,0.0,0.0,-1.2845,-1.2544,-1.2316,-1.2204,0.0,0.0,0.0,0.0,-1.2635,-1.2797,-1.2731,-1.2382,-1.2126,-1.1849,-1.1534,-1.1713,-1.1907,-1.213,-1.2794,-1.3026,-1.2926,-1.3814,-1.3574,-1.2456,-1.1765,-1.1292,-1.0931,0.0,0.0,0.0,0.0,0.0,0.0,0.0,0.0,0.0,0.0,0.0,0.0,0.0,0.0,0.0,0.0,0.0,0.0,0.0,0.0,0.0,-0.8394,-0.8087,-0.8001,0.0,0.0,0.0,0.0,0.0,0.0,0.0,0.0,0.0,0.0,0.0,0.0,0.0,0.0,0.0,0.0,0.0,0.0,0.0,0.0,0.0,0.0,0.0,-1.6451,-1.6451,-1.6451,-1.6513,-1.67,-1.6526,-1.652,-1.67,-1.7026,-1.7321,-1.7608,-1.7608,-1.7802,-1.8189,-1.8404,-1.8711,-1.9092,-1.9314,-1.9062,-1.8554,-1.8554,-1.8198,-1.7578,-1.6527,-1.6768,-1.7425,-1.5375,-1.4247,-1.3586,0.0,0.0,0.0,0.0,0.0,0.0,0.0,0.0,0.0,-1.329,0.0,0.0,0.0,0.0,-1.2485,-1.2183,-1.2245,-1.2265,-1.2164,-1.245,-1.2446,-1.2056,-1.2225,-1.2122,-1.1679,-1.1608,-1.1462,-1.1225,-1.1209,-1.1225,-1.1316,-1.1607,-1.1802,-1.1993,-1.2494,-1.2615,-1.2342,-1.1667,0.0,-1.1304,0.0,0.0,-0.8976,0.0,0.0,0.0,0.0,0.0,0.0,0.0,0.0,0.0,0.0,0.0,0.0,0.0,0.0,0.0,-0.9789,0.0,0.0,0.0,-0.799,-0.7729,0.0,0.0,0.0,0.0,0.0,0.0,0.0,0.0,0.0,0.0,0.0,0.0,0.0,0.0,0.0,0.0,0.0,0.0,0.0,0.0,0.0,0.0,0.0,0.0,-1.6126,-1.6126,-1.6213,-1.6382,-1.6226,-1.6266,-1.656,-1.6785,-1.7099,-1.7468,-1.7468,-1.7655,-1.8002,-1.8216,-1.8544,-1.8903,-1.9132,-1.9308,-1.9395,-1.9395,-1.9395,-1.9278,-1.8221,-1.8133,-1.8344,-1.6203,-1.4718,-1.3646,0.0,0.0,0.0,0.0,0.0,0.0,0.0,0.0,-1.2378,-1.3658,0.0,0.0,0.0,0.0,0.0,-1.1998,-1.2153,-1.2204,-1.1946,-1.2169,-1.2364,-1.2493,0.0,0.0,-1.2392,-1.169,-1.144,-1.1688,-1.1235,-1.1101,-1.1284,-1.109,-1.123,-1.1661,-1.1219,-1.151,-1.2342,0.0,-1.1915,-1.1555,0.0,-0.9423,-0.9934,0.0,0.0,0.0,-0.9076,-0.8988,0.0,0.0,0.0,0.0,0.0,0.0,0.0,0.0,0.0,0.0,0.0,0.0,0.0,0.0,0.0,0.0,-0.7895,0.0,0.0,0.0,0.0,0.0,0.0,0.0,0.0,0.0,0.0,0.0,0.0,0.0,0.0,0.0,0.0,0.0,0.0,0.0,0.0,0.0,-1.5808,-1.5808,-1.5808,-1.5808,-1.5808,-1.5808,-1.5808,-1.5948,-1.6297,-1.6297,-1.6591,-1.7186,-1.7199,-1.7481,-1.7969,-1.7989,-1.8316,-1.8883,-1.889,-1.9092,-1.9395,-1.9395,-1.9395,-1.9395,-1.9395,-1.8409,-1.6997,-1.6938,-1.4915,-1.2213,0.0,0.0,0.0,0.0,0.0,-1.2713,-1.2439,-1.2269,-1.2193,0.0,0.0,0.0,-1.251,-1.2576,-1.2622,-1.2614,-1.2472,-1.2408,-1.2544,-1.2397,-1.2364,-1.2493,-1.2054,-1.1978,-1.2392,-1.169,-1.1337,-1.1402,-1.1139,-1.0934,-1.0796,-1.0939,-1.1079,-1.1182,-1.1209,-1.1354,-1.1573,-1.1182,0.0,-1.1802,-0.9753,-0.9191,0.0,0.0,0.0,0.0,0.0,-0.8797,-0.9208,0.0,-0.9622,-1.1106,0.0,0.0,0.0,0.0,0.0,0.0,-0.9676,0.0,0.0,0.0,0.0,0.0,-0.7618,-0.7607,-0.7699,0.0,0.0,0.0,0.0,0.0,0.0,0.0,0.0,0.0,0.0,0.0,0.0,0.0,0.0,0.0,0.0,0.0,0.0,0.0,-1.5808,-1.5808,-1.5808,-1.5808,-1.5808,-1.5808,-1.5808,-1.5948,-1.6297,-1.6297,-1.6484,-1.6834,-1.7073,-1.7286,-1.7434,-1.7816,-1.8216,-1.8617,-1.8831,-1.9092,-1.9395,-1.9395,-1.9395,-1.9395,-1.9395,-1.8409,-1.685,-1.5695,-1.3969,-1.2213,0.0,0.0,0.0,0.0,0.0,-1.3286,-1.3073,-1.2784,-1.2557,0.0,0.0,0.0,-1.2271,-1.2359,-1.2572,-1.2869,-1.2535,-1.2453,-1.2772,-1.2434,-1.2305,-1.248,-1.2234,-1.2239,-1.2523,-1.1903,-1.1614,-1.1639,-1.1203,-1.0912,-1.0763,-1.0724,-1.0746,-1.0837,-1.0757,-1.0897,-1.1139,0.0,0.0,0.0,-0.9893,0.0,0.0,-0.8769,-0.8293,0.0,0.0,0.0,-0.9075,-0.8067,-0.9223,0.0,0.0,0.0,0.0,0.0,0.0,0.0,0.0,0.0,0.0,0.0,0.0,0.0,-0.7862,-0.7668,-0.7529,0.0,0.0,0.0,0.0,0.0,0.0,0.0,0.0,0.0,0.0,0.0,0.0,0.0,0.0,0.0,0.0,-1.5808,-1.5808,-1.5808,-1.5808,-1.5808,-1.5808,-1.5808,-1.5808,-1.5808,-1.5808,-1.5888,-1.6086,-1.6086,-1.6233,-1.6526,-1.6846,-1.7053,-1.7213,-1.7635,-1.809,-1.8504,-1.8671,-1.8911,-1.9192,-1.9348,-1.9395,-1.9395,-1.9395,-1.8409,-1.6879,-1.5961,-1.4569,-1.3198,0.0,0.0,-1.417,-1.4196,-1.4176,-1.4135,-1.4135,-1.3532,-1.321,0.0,-1.2793,-1.2292,-1.251,-1.2535,-1.2631,-1.2904,-1.249,-1.2372,-1.2725,-1.2331,-1.2214,-1.2506,-1.2459,-1.2528,-1.2734,-1.2223,-1.1992,-1.2056,-1.137,-1.103,-1.0993,-1.0509,-1.0401,-1.0559,-1.0102,0.0,0.0,0.0,0.0,-1.1031,-1.0064,-1.002,0.0,0.0,-0.9131,0.0,-0.8783,-0.8656,-0.8799,-0.7771,-0.8329,0.0,0.0,0.0,0.0,0.0,-1.062,0.0,0.0,0.0,0.0,0.0,0.0,0.0,-0.843,-0.8049,-0.762,-0.7529,0.0,0.0,0.0,0.0,0.0,0.0,0.0,0.0,0.0,0.0,0.0,0.0,0.0,0.0,-1.5778,-1.5808,-1.5808,-1.5808,-1.5808,-1.5808,-1.5808,-1.5808,-1.5808,-1.5808,-1.5808,-1.5808,-1.5808,-1.5808,-1.5941,-1.625,-1.6547,-1.6866,-1.714,-1.7461,-1.7896,-1.8444,-1.8477,-1.8657,-1.8916,-1.9274,-1.9381,-1.9354,-1.9388,-1.8409,-1.6997,-1.6997,-1.6007,-1.4664,0.0,-1.4603,-1.4509,-1.4772,-1.4596,-1.4414,-1.4414,-1.3922,-1.3482,-1.3257,-1.2668,-1.2394,-1.2703,-1.2693,-1.2779,-1.3043,-1.2572,-1.2316,-1.2396,-1.2216,-1.2233,-1.2578,-1.218,-1.2277,-1.2998,-1.2181,-1.176,-1.1791,-1.1418,-1.1155,-1.0993,-1.0509,-1.0315,-1.0347,-1.0032,-0.9978,-1.0134,0.0,0.0,-0.9934,-1.0046,0.0,-1.0016,-0.9097,-0.8322,-0.7688,-0.7471,-0.7949,-0.8765,0.0,-0.9011,-0.8671,0.0,0.0,0.0,0.0,0.0,0.0,0.0,0.0,0.0,0.0,0.0,0.0,-0.9061,-0.9028,-0.8997,0.0,0.0,0.0,0.0,0.0,0.0,0.0,0.0,0.0,0.0,0.0,0.0,0.0,0.0,0.0,-1.5706,-1.5808,-1.5808,-1.5808,-1.5808,-1.5808,-1.5808,-1.5808,-1.5808,-1.5808,-1.5808,-1.5808,-1.5808,-1.5808,-1.5835,-1.5895,-1.6428,-1.6734,-1.6807,-1.7341,-1.7782,-1.8116,-1.8384,-1.8657,-1.8916,-1.9274,-1.9225,-1.9032,-1.9301,-1.8409,-1.6997,-1.6997,-1.6113,-1.5083,-1.4339,-1.4354,-1.4378,-1.4442,-1.4501,-1.4614,-1.477,-1.4456,-1.4088,-1.3734,-1.3038,-1.2619,-1.2775,-1.2764,-1.2846,-1.3075,-1.2871,-1.2662,-1.2463,-1.2423,-1.2404,-1.2444,-1.2195,-1.232,-1.2888,-1.2208,-1.1872,-1.1899,-1.1499,-1.1203,-1.0998,-1.0627,-1.0243,-0.9846,-0.9877,-0.986,-0.9837,0.0,-1.072,-1.0808,-1.023,0.0,-0.9028,-0.8368,-0.7752,-0.7244,-0.7148,-0.7431,-0.7945,-0.8524,-0.8889,0.0,0.0,-0.9745,-1.0233,0.0,-1.0639,-1.0568,0.0,0.0,0.0,-1.0997,0.0,0.0,0.0,-0.946,-0.9187,-0.8955,0.0,0.0,0.0,0.0,0.0,0.0,0.0,0.0,0.0,0.0,0.0,0.0,0.0,0.0,-1.5683,-1.5808,-1.5808,-1.5808,-1.5808,-1.5808,-1.5808,-1.5808,-1.5808,-1.5808,-1.5808,-1.5808,-1.5808,-1.5808,-1.5808,-1.5808,-1.6279,-1.6567,-1.672,-1.7193,-1.7615,-1.8002,-1.8176,-1.8409,-1.8731,-1.9025,-1.9058,-1.8923,-1.9281,-1.8917,-1.8192,-1.8192,-1.7774,-1.7179,-1.3868,-1.4015,-1.4132,-1.395,-1.4263,-1.4633,-1.4895,-1.4661,-1.438,-1.4172,-1.3437,-1.2942,-1.3013,-1.294,-1.2894,-1.2869,-1.2783,-1.2592,-1.2295,-1.2252,-1.2161,-1.2029,-1.2106,-1.2232,-1.2338,-1.2074,-1.1943,-1.1959,-1.1558,-1.1246,-1.0998,-1.0725,-1.0249,-0.9627,-0.9729,-0.984,-0.9973,0.0,0.0,-1.1437,0.0,-0.9392,-0.8666,-0.8053,-0.7713,-0.7512,-0.7206,-0.7095,-0.7163,-0.7519,0.0,-0.9631,-0.9019,-0.9779,0.0,0.0,0.0,0.0,0.0,0.0,0.0,0.0,0.0,-1.0671,0.0,0.0,0.0,-0.9544,0.0,0.0,0.0,0.0,0.0,0.0,0.0,0.0,0.0,0.0,0.0,0.0,0.0,0.0,0.0,-1.5707,-1.5741,-1.5801,-1.5755,-1.5748,-1.5801,-1.5808,-1.5808,-1.5808,-1.5808,-1.5808,-1.5808,-1.5808,-1.5808,-1.5808,-1.6132,-1.6451,-1.6714,-1.704,-1.7468,-1.7936,-1.7969,-1.8156,-1.843,-1.875,-1.8896,-1.8923,-1.9281,-1.9395,-1.9395,-1.9395,-1.9253,-1.8807,-1.4107,-1.4199,-1.4132,-1.395,-1.4146,-1.4358,-1.4388,-1.3962,-1.3625,-1.3582,-1.3491,-1.3502,-1.3743,0.0,0.0,0.0,0.0,0.0,-1.1078,0.0,-1.069,-1.0961,-1.1436,-1.1475,-1.1027,-1.1483,-1.1624,-1.1386,-1.1563,-1.1429,-1.0998,-1.0725,-1.0541,-1.0423,-0.9627,-0.9872,0.0,0.0,-1.0012,0.0,-0.9864,-1.0252,0.0,-0.9686,-0.883,-0.8025,-0.7345,-0.7095,-0.7229,0.0,-0.8597,-0.9026,0.0,-1.013,0.0,0.0,0.0,0.0,0.0,0.0,0.0,0.0,-1.2104,0.0,0.0,0.0,-1.1162,-1.035,0.0,0.0,0.0,0.0,0.0,0.0,0.0,0.0,0.0,0.0,0.0,0.0,0.0,0.0,0.0,-1.5347,-1.5551,-1.5788,-1.5591,-1.5558,-1.5788,-1.5808,-1.5808,-1.5808,-1.5808,-1.5808,-1.5808,-1.5808,-1.5808,-1.5808,-1.6132,-1.6451,-1.6714,-1.704,-1.7354,-1.7649,-1.7896,-1.8009,-1.8109,-1.8663,-1.8896,-1.8923,-1.9281,-1.9395,-1.9395,-1.9395,-1.8649,-1.7577,-1.3518,-1.3616,-1.3489,-1.3098,-1.3487,-1.3847,-1.3847,-1.3781,-1.3732,-1.3732,-1.3732,-1.3841,0.0,0.0,0.0,0.0,0.0,-1.2968,0.0,0.0,-1.1968,-1.1569,0.0,0.0,-1.1552,-1.1644,-1.165,-1.1531,-1.1493,-1.1322,-1.1003,-1.088,-1.0651,-1.0285,-0.969,0.0,-1.0055,0.0,-0.9771,0.0,0.0,0.0,0.0,-0.9031,-0.8076,-0.7514,-0.7205,-0.7095,-0.7185,0.0,-0.8588,0.0,0.0,0.0,0.0,0.0,0.0,0.0,0.0,0.0,0.0,0.0,0.0,0.0,0.0,0.0,-1.1268,0.0,0.0,0.0,0.0,0.0,0.0,0.0,-0.9137,0.0,0.0,0.0,0.0,0.0,0.0,0.0,0.0,0.0,0.0,0.0,-1.5695,-1.5675,-1.5795,-1.5808,-1.5808,-1.5808,-1.5808,-1.5808,-1.5808,-1.5808,-1.5808,-1.5808,-1.5928,-1.6172,-1.646,-1.6605,-1.6919,-1.7361,-1.7495,-1.7696,-1.8009,-1.8255,-1.8589,-1.8903,-1.9058,-1.9219,-1.9278,-1.8344,-1.7662,-1.6872,-1.2825,0.0,-1.2908,-1.2406,-1.2876,-1.3322,-1.3322,-1.3473,-1.3732,-1.4073,0.0,0.0,-1.4907,-1.4985,0.0,0.0,-1.456,-1.3971,0.0,0.0,-1.2394,0.0,0.0,0.0,0.0,0.0,-1.1698,-1.1698,-1.1418,-1.1241,-1.1085,-1.1036,-1.0805,-1.0414,-0.9976,-0.9804,-0.9779,0.0,0.0,-1.0113,-0.9664,-0.9634,-0.9683,-0.8302,-0.7547,-0.7239,-0.7195,-0.7208,-0.7288,-0.7694,-0.8679,0.0,-0.8653,0.0,0.0,0.0,0.0,0.0,-1.186,0.0,0.0,0.0,0.0,0.0,0.0,0.0,0.0,0.0,0.0,0.0,0.0,0.0,0.0,0.0,0.0,-1.0053,0.0,0.0,0.0,0.0,0.0,0.0,0.0,0.0,0.0,-1.5795,-1.5735,-1.5721,-1.5801,-1.5808,-1.5808,-1.5808,-1.5808,-1.5808,-1.5808,-1.5808,-1.5808,-1.5808,-1.5808,-1.5985,-1.6297,-1.6297,-1.6578,-1.7085,-1.7166,-1.7421,-1.7789,-1.7949,-1.8316,-1.8776,-1.8776,-1.8985,-1.9137,-1.8044,-1.7091,-1.602,-1.2275,-1.2569,0.0,-1.2174,-1.2494,-1.2813,-1.2813,0.0,0.0,0.0,0.0,0.0,0.0,0.0,0.0,0.0,0.0,-1.2473,-1.1062,0.0,-1.0617,0.0,0.0,-1.1282,0.0,0.0,0.0,-1.1698,-1.1418,-1.1305,-1.1289,-1.1095,-1.109,-1.123,-1.0561,-1.0487,-1.08,-1.0075,-0.949,-0.9052,-0.896,-0.8499,-0.7917,0.0,-0.7921,-0.7567,-0.744,0.0,0.0,-0.8639,-0.8984,0.0,0.0,0.0,0.0,0.0,0.0,0.0,0.0,0.0,0.0,-1.1987,0.0,0.0,0.0,0.0,-1.1618,0.0,0.0,0.0,0.0,0.0,0.0,0.0,0.0,0.0,0.0,0.0,0.0,0.0,0.0,0.0,0.0,0.0,0.0,-1.5781,-1.5571,-1.5531,-1.5788,-1.5808,-1.5808,-1.5808,-1.5808,-1.5808,-1.5808,-1.5808,-1.5808,-1.5808,-1.5808,-1.5985,-1.6297,-1.6297,-1.6458,-1.6734,-1.7046,-1.7213,-1.728,-1.7782,-1.8203,-1.8504,-1.8504,-1.8684,-1.8943,-1.923,-1.7337,-1.4663,0.0,0.0,0.0,0.0,0.0,0.0,0.0,-1.2985,0.0,0.0,0.0,0.0,0.0,-1.5612,-1.4961,0.0,0.0,-1.2218,-1.1294,-1.1823,0.0,0.0,0.0,-1.2254,0.0,0.0,0.0,0.0,-1.1872,-1.1834,-1.1834,-1.1748,-1.1839,-1.2002,-1.1129,-1.0628,0.0,0.0,0.0,0.0,0.0,-0.881,-0.8904,0.0,0.0,-0.7594,-0.7543,-0.7556,0.0,-0.8075,-0.8562,-0.8979,-0.8854,-0.9348,-0.9924,-0.9641,-0.9722,0.0,0.0,0.0,-0.9954,-1.1098,0.0,0.0,0.0,0.0,0.0,0.0,0.0,0.0,0.0,0.0,0.0,0.0,0.0,0.0,0.0,0.0,0.0,0.0,0.0,0.0,0.0,0.0,0.0,-1.5538,-1.5451,-1.5524,-1.5788,-1.5808,-1.5808,-1.5808,-1.5808,-1.5808,-1.5808,-1.5808,-1.5808,-1.5808,-1.5808,-1.5855,-1.5979,-1.5979,-1.6246,-1.6714,-1.6814,-1.71,-1.7481,-1.7655,-1.7923,-1.8169,-1.8169,-1.8349,-1.8531,-1.7757,-1.6057,-1.3862,-1.2917,0.0,0.0,0.0,0.0,0.0,0.0,0.0,0.0,0.0,-1.5229,0.0,-1.5626,0.0,-1.431,0.0,-1.2796,-1.2238,-1.1476,-1.1863,0.0,-0.9995,-1.1516,0.0,0.0,0.0,0.0,0.0,0.0,-1.2201,-1.2201,-1.2137,-1.2206,-1.2362,-1.1758,-1.0989,-1.0094,0.0,-0.9067,0.0,0.0,-0.8653,0.0,0.0,-0.7983,-0.8256,0.0,-0.7709,-0.7746,-0.7837,-0.8209,-0.8572,-0.8135,-0.8705,-0.9435,-0.8877,-0.9078,-0.9523,-0.9721,-0.9338,0.0,-1.0351,-1.0058,0.0,-1.1126,0.0,0.0,0.0,0.0,0.0,0.0,0.0,0.0,0.0,0.0,0.0,0.0,-1.1964,0.0,0.0,0.0,0.0,0.0,0.0,-1.513,-1.526,-1.5267,-1.5364,0.0,0.0,-1.5808,-1.5808,-1.5808,-1.5808,-1.5808,-1.5808,-1.5808,-1.5808,-1.5808,-1.5808,-1.5808,-1.5808,-1.6015,-1.6382,-1.6613,-1.6921,-1.7314,-1.7521,-1.7762,-1.7982,-1.7896,-1.8036,-1.8226,-1.7503,-1.5801,-1.3469,0.0,0.0,0.0,0.0,-1.2813,0.0,0.0,0.0,-1.4563,0.0,-1.4988,-1.4824,-1.6367,-1.4727,-1.3507,-1.3507,-1.3021,0.0,-1.1529,-1.1398,0.0,0.0,-0.9951,-0.9924,-0.8839,0.0,0.0,0.0,0.0,-1.2412,-1.2418,-1.2222,-1.2233,-1.2407,-1.2407,0.0,-1.004,-1.028,-0.9472,-0.7988,-0.7988,-0.8045,-0.8076,-0.8017,-0.8661,-0.9439,-0.8245,-0.7891,-0.7988,-0.7988,-0.7988,-0.7988,-0.7988,-0.7988,-0.7986,-0.7841,-0.7821,-0.7966,-0.8735,-0.8947,-0.9116,-0.9775,0.0,0.0,0.0,0.0,-1.1071,0.0,0.0,0.0,0.0,0.0,0.0,0.0,0.0,0.0,0.0,0.0,0.0,0.0,0.0,0.0,0.0,-1.4676,-1.4636,-1.4939,-1.4988,0.0,0.0,0.0,-1.5788,-1.5808,-1.5808,-1.5808,-1.5808,-1.5808,-1.5808,-1.5808,-1.5808,-1.5808,-1.5808,-1.5808,-1.5815,-1.5861,-1.646,-1.6707,-1.6747,-1.7341,-1.7749,-1.7949,-1.7695,-1.7762,-1.8002,-1.8172,-1.6404,-1.3463,-1.3407,-1.3148,-1.2985,0.0,-1.3031,-1.3053,0.0,0.0,0.0,0.0,-1.4769,-1.4339,-1.6634,-1.5031,-1.3789,-1.3789,-1.2399,0.0,0.0,0.0,0.0,-0.8571,-1.0149,-1.0442,-0.9121,-1.0883,0.0,-1.1678,0.0,0.0,-1.2926,-1.2713,-1.2638,-1.2697,-1.2697,0.0,-1.0314,-1.0366,-0.9472,-0.7988,-0.7988,-0.8482,0.0,0.0,-0.8661,-0.9458,-0.8347,-0.7983,-0.7988,-0.7988,-0.7988,-0.7988,-0.7988,-0.7988,-0.7982,-0.7966,-0.7956,-0.7981,-0.8084,-0.8101,-0.8293,-0.9064,-0.9104,-0.9189,0.0,0.0,0.0,0.0,0.0,0.0,0.0,0.0,0.0,0.0,0.0,0.0,0.0,0.0,0.0,-1.34,0.0,0.0,0.0,-1.4436,-1.4534,-1.4629,-1.4636,0.0,0.0,0.0,0.0,-1.5795,-1.5808,-1.5808,-1.5808,-1.5808,-1.5808,-1.5808,-1.5808,-1.5808,-1.5808,-1.5808,-1.5952,-1.6179,-1.6547,-1.6707,-1.6747,-1.7341,-1.7528,-1.7421,-1.7555,-1.7629,-1.7437,-1.5383,-1.4258,-1.3317,-1.3706,0.0,0.0,-1.3879,0.0,0.0,-1.4527,0.0,0.0,-1.7026,-1.5422,0.0,-1.6588,-1.5178,-1.3809,-1.3036,-1.2641,0.0,-1.1581,0.0,0.0,-1.0775,-1.0858,-1.0446,-0.9474,-1.0362,0.0,-1.1153,0.0,0.0,-1.2977,-1.2848,-1.2813,-1.2813,0.0,-1.2153,-1.1004,-1.0337,-0.9538,-0.8657,-0.819,0.0,0.0,-0.8218,-0.8364,-0.8833,-0.8218,-0.7988,-0.7988,-0.7988,-0.7988,-0.7988,-0.7988,-0.7988,-0.7988,-0.7988,-0.7988,-0.7996,-0.7908,-0.7888,-0.7986,-0.845,-0.8454,-0.8571,-0.9461,-0.9652,-0.9627,0.0,0.0,0.0,0.0,0.0,0.0,0.0,0.0,0.0,0.0,0.0,0.0,0.0,-1.352,0.0,0.0,-1.4094,-1.406,-1.3934,0.0,0.0,0.0,0.0,0.0,-1.5801,-1.5808,-1.5808,-1.5808,-1.5808,-1.5808,-1.5808,-1.5808,-1.5808,-1.5808,-1.5808,-1.5992,-1.631,-1.658,-1.678,-1.6959,-1.7421,-1.7508,-1.7381,-1.7541,-1.7608,-1.7259,-1.4368,-1.34,-1.3095,0.0,0.0,0.0,0.0,0.0,0.0,0.0,-1.5287,0.0,-1.7872,0.0,-1.5572,-1.6754,-1.5555,-1.4161,-1.283,0.0,-1.3956,-1.2982,-1.3298,-1.3624,-1.3848,-1.1816,-1.0515,-1.0156,-0.9787,0.0,0.0,0.0,-1.2077,-1.2832,-1.2799,-1.2813,-1.2813,0.0,0.0,0.0,-1.015,-0.9476,-0.9312,-0.8364,-0.7988,-0.7988,-0.7988,-0.7988,-0.7988,-0.7988,-0.7988,-0.7988,-0.7988,-0.7988,-0.7988,-0.7988,-0.7988,-0.7988,-0.7988,-0.7988,-0.7988,-0.7988,-0.7988,-0.7988,-0.7988,-0.7988,-0.8184,-0.8874,-0.9044,-0.9044,-0.9044,-0.9413,-0.9368,0.0,0.0,0.0,0.0,0.0,0.0,0.0,0.0,0.0,0.0,0.0,0.0,0.0,0.0,0.0,0.0,0.0,0.0,0.0,0.0,0.0,-1.5801,-1.5808,-1.5821,-1.5861,0.0,-1.5821,-1.5861,-1.5821,-1.5808,-1.5808,-1.5808,-1.5972,-1.6257,-1.656,-1.6859,-1.7112,-1.7454,-1.7608,-1.7608,-1.7608,-1.7608,-1.7285,-1.4556,-1.3453,-1.2891,0.0,0.0,0.0,0.0,0.0,-1.4364,-1.5301,-1.5823,-1.6682,-1.8225,-1.6594,-1.6205,-1.8629,-1.7241,-1.6534,-1.7572,-1.6604,0.0,0.0,0.0,0.0,-1.3581,-1.2702,-1.2142,-1.1944,-1.109,-1.1163,0.0,-1.1709,-1.2005,-1.3039,-1.2875,-1.2813,-1.2813,0.0,0.0,-1.0609,-0.9661,0.0,-0.8275,-0.8076,-0.7988,-0.7988,-0.7988,-0.7988,-0.7988,-0.7988,-0.7988,-0.7988,-0.7988,-0.7988,-0.7988,-0.7988,-0.7988,-0.7988,-0.7988,-0.7988,-0.7988,-0.7988,-0.7988,-0.7988,-0.7988,-0.7988,-0.8038,-0.8187,-0.8212,-0.8212,-0.8212,-0.8287,-0.8427,-0.8657,0.0,0.0,0.0,0.0,0.0,0.0,0.0,0.0,0.0,0.0,0.0,0.0,0.0,0.0,0.0,0.0,0.0,0.0,0.0,0.0,0.0,-1.5808,0.0,0.0,0.0,-1.5952,-1.6217,-1.5921,-1.5808,-1.5808,-1.5808,-1.5835,-1.5915,-1.6473,-1.66,-1.6511,-1.7287,-1.7608,-1.7608,-1.7608,-1.7608,-1.7391,-1.5663,-1.4288,-1.2891,0.0,0.0,0.0,0.0,0.0,0.0,0.0,-1.5623,0.0,-1.7859,-1.7539,-1.7739,-1.9238,-1.8684,-1.8091,-1.7796,-1.784,-1.7465,-1.6372,-1.6344,-1.6168,-1.5654,-1.4557,0.0,-1.34,-1.2026,-1.1762,-1.2699,-1.2071,-1.2226,-1.3098,-1.2897,-1.2813,-1.2794,0.0,-1.19,0.0,0.0,0.0,-0.8776,-0.8218,-0.7988,-0.7988,-0.7988,-0.7988,-0.7988,-0.7988,-0.7988,-0.7988,-0.7988,-0.7988,-0.7988,-0.7988,-0.7988,-0.7988,-0.7988,-0.7988,-0.7988,-0.7988,-0.7988,-0.7988,-0.7988,-0.7988,-0.7988,-0.7988,-0.7988,-0.7988,-0.7988,-0.7988,-0.8188,-0.8785,-0.9547,0.0,0.0,0.0,0.0,0.0,0.0,0.0,0.0,0.0,0.0,0.0,0.0,0.0,0.0,0.0,0.0,0.0,0.0,0.0,0.0,0.0,0.0,0.0,0.0,0.0,-1.6039,-1.5875,-1.5808,-1.5808,-1.5808,-1.5888,-1.6079,-1.6359,-1.6598,-1.6799,-1.7374,-1.7521,-1.7401,-1.7548,-1.7515,-1.7245,-1.588,-1.4957,-1.3965,0.0,-1.5343,0.0,0.0,-1.4636,0.0,-1.4025,-1.5074,-1.6189,-1.7035,-1.8057,-1.8789,-1.893,-1.9453,-1.9132,-1.7424,-1.8269,-1.8211,-1.655,-1.766,-1.7916,-1.6873,-1.6098,-1.5274,-1.4348,-1.2943,-1.2392,0.0,-1.2313,-1.2318,0.0,-1.2775,0.0,0.0,0.0,0.0,0.0,0.0,-0.9406,-0.9192,-0.8335,-0.7988,-0.7988,-0.7988,-0.7988,-0.7988,-0.7988,-0.7988,-0.7988,-0.7988,-0.7988,-0.7988,-0.7988,-0.7988,-0.7988,-0.7988,-0.7988,-0.7988,-0.7988,-0.7988,-0.7988,-0.7988,-0.7988,-0.7988,-0.7988,-0.7988,-0.7988,-0.7988,-0.7988,-0.8188,-0.8785,-0.942,0.0,0.0,0.0,0.0,0.0,0.0,0.0,0.0,0.0,0.0,0.0,0.0,0.0,0.0,0.0,0.0,0.0,0.0,0.0,0.0,0.0,-1.574,-1.5656,0.0,-1.5841,-1.5901,-1.5835,-1.5808,-1.5808,-1.5808,-1.5935,-1.6203,-1.627,-1.6632,-1.7226,-1.7488,-1.7474,-1.732,-1.7521,-1.7468,-1.7164,-1.6232,-1.5663,-1.5064,0.0,0.0,0.0,0.0,0.0,0.0,-1.2161,-1.4267,-1.586,-1.5717,-1.7152,-1.7965,-1.7469,-1.8839,-1.9614,-1.92,-1.7969,-1.7155,-1.6955,-1.6813,-1.5983,-1.4333,-1.6253,-1.647,-1.4523,-1.4089,-1.3546,0.0,0.0,-1.1918,0.0,0.0,0.0,0.0,0.0,0.0,0.0,-0.929,-0.8822,-0.8133,-0.8045,-0.7988,-0.7988,-0.7988,-0.7988,-0.7988,-0.7988,-0.7988,-0.7988,-0.7988,-0.7988,-0.7988,-0.7988,-0.7988,-0.7988,-0.7988,-0.7988,-0.7988,-0.7988,-0.7988,-0.7988,-0.7988,-0.7988,-0.7988,-0.7988,-0.7988,-0.7988,-0.7988,-0.7988,-0.8188,-0.8785,-0.8423,-0.8241,0.0,0.0,0.0,0.0,0.0,0.0,0.0,0.0,0.0,0.0,-1.2277,0.0,0.0,0.0,0.0,0.0,0.0,0.0,-1.435,0.0,-1.5599,-1.517,-1.5582,-1.5941,-1.625,-1.5959,-1.5808,-1.5808,-1.5808,-1.5821,-1.5861,-1.6177,-1.6632,-1.7226,-1.7488,-1.7595,-1.7575,-1.7595,-1.7588,-1.7542,-1.7437,-1.6552,-1.5364,0.0,0.0,0.0,0.0,0.0,0.0,0.0,-1.2078,-1.3136,-1.4059,-1.7521,-1.9757,-1.9332,-1.973,-1.9538,-1.8308,-1.7445,-1.658,-1.5607,-1.5351,-1.4855,-1.3942,-1.5421,-1.5733,-1.4533,-1.432,-1.389,0.0,0.0,0.0,0.0,0.0,0.0,0.0,0.0,-0.9875,-0.9167,-0.8676,-0.8283,-0.7988,-0.7988,-0.7988,-0.7988,-0.7988,-0.7988,-0.7988,-0.7988,-0.7988,-0.7988,-0.7988,-0.7988,-0.7988,-0.7988,-0.7988,-0.7988,-0.7988,-0.7988,-0.7988,-0.7988,-0.7988,-0.7988,-0.7988,-0.7988,-0.7988,-0.7988,-0.7988,-0.7988,-0.7988,-0.7988,-0.8071,-0.8304,-0.8407,-0.8447,0.0,0.0,0.0,0.0,0.0,0.0,0.0,0.0,0.0,0.0,0.0,-1.2885,0.0,0.0,0.0,0.0,0.0,0.0,-1.4336,0.0,-1.5718,-1.5525,-1.5718,-1.5861,-1.6005,-1.5861,-1.5808,-1.5808,-1.5808,-1.5808,-1.5828,-1.6326,-1.6667,-1.6946,-1.7414,-1.7401,-1.7094,-1.7468,-1.7394,-1.7101,-1.7474,-1.7226,-1.6578,-1.6768,0.0,-1.4855,0.0,-1.1759,-1.1185,-1.0753,-1.1144,-1.2088,-1.3844,-1.7731,-2.0187,-1.9826,-1.997,-1.9337,-1.744,-1.6683,-1.5607,-1.4004,-1.3771,-1.3355,-1.2604,-1.4059,0.0,-1.3405,-1.3671,-1.3353,-1.248,-1.2342,0.0,0.0,0.0,0.0,0.0,-0.9549,-0.9143,-0.88,-0.8237,-0.7988,-0.7988,-0.7988,-0.7988,-0.7988,-0.7988,-0.7988,-0.7988,-0.7988,-0.7988,-0.7988,-0.7988,-0.7988,-0.7988,-0.7988,-0.7988,-0.7988,-0.7988,-0.7988,-0.7988,-0.7988,-0.7988,-0.7988,-0.7988,-0.7988,-0.7988,-0.7988,-0.7988,-0.7988,-0.7988,-0.7988,-0.7988,-0.7988,-0.8343,-0.8499,-0.8071,0.0,0.0,0.0,0.0,0.0,0.0,0.0,-1.2077,-1.1074,-1.1665,0.0,0.0,0.0,0.0,0.0,0.0,0.0,0.0,0.0,0.0,0.0,-1.5689,-1.5808,-1.5808,-1.5808,-1.5808,-1.5808,-1.5808,-1.5855,-1.5985,-1.6486,-1.6754,-1.6899,-1.7401,-1.7314,-1.6913,-1.7414,-1.7301,-1.6919,-1.7421,-1.7608,-1.7444,-1.7699,-1.6075,-1.4553,-1.348,-1.1857,-1.0714,-1.0688,-1.2153,-1.3905,-1.5654,-1.7404,-1.8312,-1.7703,-1.8927,-1.9046,-1.7173,-1.5548,-1.3944,-1.2333,-1.2094,-1.1274,0.0,0.0,-1.2785,-1.0786,-1.1987,-1.1774,-1.0051,0.0,0.0,-0.9063,0.0,-1.0238,-0.9225,-0.9479,-0.901,-0.8017,-0.8013,-0.7988,-0.7988,-0.7988,-0.7988,-0.7988,-0.7988,-0.7988,-0.7988,-0.7988,-0.7988,-0.7988,-0.7988,-0.7988,-0.7988,-0.7988,-0.7988,-0.7988,-0.7988,-0.7988,-0.7988,-0.7988,-0.7988,-0.7988,-0.7988,-0.7988,-0.7988,-0.7988,-0.7988,-0.7988,-0.7988,-0.7988,-0.7988,-0.7988,-0.8013,-0.8013,-0.7988,0.0,0.0,0.0,0.0,0.0,0.0,-1.1098,-1.0701,-0.8113,0.0,0.0,0.0,0.0,0.0,0.0,0.0,0.0,-1.4232,-1.5248,0.0,-1.4712,-1.5452,-1.5808,-1.5808,-1.5808,-1.5808,-1.5808,-1.5808,-1.5985,-1.631,-1.658,-1.6899,-1.7219,-1.7488,-1.7434,-1.7226,-1.7495,-1.7428,-1.7233,-1.7501,-1.7608,-1.7608,-1.8477,-1.6791,-1.5107,-1.3582,-1.1861,-1.0688,-1.0688,-1.1178,-1.2153,-1.3905,-1.4438,-1.5067,-1.6066,-1.849,-1.8867,0.0,-1.4989,-1.3441,0.0,-1.0453,-1.009,-0.9417,-1.111,-1.1639,-1.071,-1.1186,-1.1054,-1.0268,0.0,0.0,0.0,-0.9841,-0.9413,-0.8386,-0.846,-0.8307,-0.7988,-0.7988,-0.7988,-0.7988,-0.7988,-0.7988,-0.7988,-0.7988,-0.7988,-0.7988,-0.7988,-0.7988,-0.7988,-0.7988,-0.7988,-0.7988,-0.7988,-0.7988,-0.7988,-0.7988,-0.7988,-0.7988,-0.7988,-0.7988,-0.7988,-0.7988,-0.7988,-0.7988,-0.7988,-0.7988,-0.7988,-0.7988,-0.7988,-0.7988,-0.7988,-0.7988,-0.7988,-0.7988,-0.7988,0.0,0.0,0.0,0.0,0.0,-0.9915,-1.0318,0.0,-0.9305,0.0,0.0,0.0,0.0,0.0,0.0,0.0,0.0,-1.4449,0.0,-1.5452,-1.483,-1.4949,-1.5808,-1.5808,-1.5808,-1.5815,-1.6039,-1.621,-1.6324,-1.6819,-1.7112,-1.7226,-1.7488,-1.7441,-1.7233,-1.7495,-1.7434,-1.7239,-1.7501,-1.7608,-1.745,-1.8814,-1.7114,-1.5367,-1.3615,-1.1861,-1.0688,-1.0688,-1.0688,-1.1339,-1.3062,-1.3158,-1.367,-1.5309,-1.7261,0.0,-1.4287,-1.3824,-1.2603,-0.997,-0.969,-0.954,-0.9417,-1.0101,-1.0358,-1.0035,0.0,0.0,-0.9768,-0.9553,-0.9391,-0.9309,-0.9179,-0.8747,-0.8098,-0.804,-0.7988,-0.7988,-0.7988,-0.7988,-0.7988,-0.7988,-0.7988,-0.7988,-0.7988,-0.7988,-0.7988,-0.7988,-0.7988,-0.7988,-0.7988,-0.7988,-0.7988,-0.7988,-0.7988,-0.7988,-0.7988,-0.7988,-0.7988,-0.7988,-0.7988,-0.7988,-0.7988,-0.7988,-0.7988,-0.7988,-0.7988,-0.7988,-0.7988,-0.7988,-0.7988,-0.7988,-0.7988,-0.7988,-0.7988,-0.7988,-0.7988,-0.7988,0.0,0.0,0.0,0.0,0.0,0.0,-0.8743,-0.9264,0.0,0.0,0.0,0.0,0.0,0.0,-1.4944,-1.4255,0.0,-1.5069,-1.3876,-1.3876,-1.5099,-1.5557,-1.5808,-1.5815,-1.6163,-1.6297,-1.633,-1.6945,-1.7139,-1.7033,-1.7327,-1.7274,-1.704,-1.7334,-1.736,-1.7239,-1.7501,-1.7608,-1.7391,-1.895,-1.7275,0.0,0.0,-1.2219,0.0,-1.0916,-1.0883,-1.1406,-1.2931,-1.3128,-1.3644,-1.503,-1.5155,-1.438,-1.2423,0.0,0.0,0.0,-0.9696,-0.9551,-0.9417,-0.9284,-0.9134,-0.8916,-0.8781,-0.8737,-0.8726,-0.8574,-0.8526,-0.8522,-0.8366,-0.8298,-0.8287,-0.8084,-0.7988,-0.7988,-0.7988,-0.7988,-0.7988,-0.7988,-0.7988,-0.7988,-0.7988,-0.7988,-0.7988,-0.7988,-0.7988,-0.7988,-0.7988,-0.7988,-0.7988,-0.7988,-0.7988,-0.7988,-0.7988,-0.7988,-0.7988,-0.7988,-0.7988,-0.7988,-0.7988,-0.7988,-0.7988,-0.7988,-0.7988,-0.7988,-0.7988,-0.7988,-0.7988,-0.7988,-0.7988,-0.7988,-0.7988,-0.7988,-0.7988,-0.7988,0.0,0.0,0.0,0.0,0.0,0.0,-0.8426,-0.8349,0.0,0.0,0.0,0.0,0.0,-1.482,-1.5635,-1.4435,-1.3764,-1.3781,-1.2632,-1.2637,-1.3805,-1.5083,-1.5685,-1.5699,-1.6117,-1.6317,-1.633,-1.6965,-1.704,-1.676,-1.708,-1.704,-1.6794,-1.71,-1.7233,-1.7266,-1.7488,-1.7509,-1.7226,0.0,0.0,-1.7763,-1.7339,-1.5816,-1.4232,-1.2902,-1.2672,-1.2347,-1.1439,-1.1306,-1.1457,-1.1808,-1.1753,-1.1437,-1.0837,-1.1743,-1.1642,-0.992,-0.9758,-0.9652,-0.942,-0.9459,-0.9327,-0.8919,-0.9011,-0.8994,-0.8855,-0.873,-0.8655,-0.8652,-0.8417,-0.8298,-0.8287,-0.8084,-0.7988,-0.7988,-0.7988,-0.7988,-0.7988,-0.7988,-0.7988,-0.7988,-0.7988,-0.7988,-0.7988,-0.7988,-0.7988,-0.7988,-0.7988,-0.7988,-0.7988,-0.7988,-0.7988,-0.7988,-0.7988,-0.7988,-0.7988,-0.7988,-0.7988,-0.7988,-0.7988,-0.7988,-0.7988,-0.7988,-0.7988,-0.7988,-0.7988,-0.7988,-0.7988,-0.7988,-0.7988,-0.7988,-0.7988,-0.7988,-0.7988,-0.7988,-0.884,0.0,0.0,-0.8887,-0.905,-0.7872,-0.7808,-0.8003,0.0,0.0,0.0,0.0,-1.1585,-1.2645,-1.4298,-1.306,-1.2461,-1.2609,-1.1314,-1.1368,-1.2775,-1.3945,-1.4496,-1.4557,-1.5959,-1.648,-1.6344,-1.7153,-1.7341,-1.7093,-1.7388,-1.7461,-1.7382,-1.7474,-1.7508,-1.7488,-1.736,-1.6722,-1.5686,-2.1109,-1.9712,-1.8471,-1.8354,-1.6887,-1.5413,-1.4452,-1.4322,-1.3711,-1.2109,-1.1894,-1.16,-1.0787,-1.0582,-1.0436,-1.0325,-1.0909,-1.0868,-0.9859,-0.9792,-0.972,-0.9496,-0.9564,-0.9429,-0.9045,-0.9141,-0.9111,-0.8912,-0.8828,-0.8787,-0.8781,-0.8509,-0.8393,-0.8383,-0.8111,-0.7988,-0.7988,-0.7988,-0.7988,-0.7988,-0.7988,-0.7988,-0.7988,-0.7988,-0.7988,-0.7988,-0.7988,-0.7988,-0.7988,-0.7988,-0.7988,-0.7988,-0.7988,-0.7988,-0.803,-0.8101,-0.8143,-0.8143,-0.8143,-0.8191,-0.8241,-0.8241,-0.8194,-0.8143,-0.8143,-0.8067,-0.7988,-0.7988,-0.7988,-0.7988,-0.7988,-0.7988,-0.7988,-0.7988,-0.7988,-0.7988,-0.7988,-0.8415,0.0,-0.7955,-0.8329,-0.8403,-0.7842,-0.7776,-0.7942,-0.8296,-0.9002,0.0,-1.0482,-1.1294,-1.2174,-1.3103,-1.189,-1.1274,-1.1381,-1.0672,-1.0742,-1.1639,-1.3447,-1.4323,-1.4379,-1.6131,-1.6414,-1.5538,-1.6851,-1.68,-1.5859,-1.666,-1.7086,-1.7181,-1.7181,-1.7294,-1.7335,-1.6575,-1.5792,-1.4824,-2.1109,-1.9903,-1.883,-1.8602,-1.7326,-1.6271,-1.5985,-1.5958,-1.5307,-1.3522,-1.3303,-1.2631,-1.0852,-1.0592,-1.046,-1.0293,-1.0126,-0.9978,-0.9802,-0.9792,-0.9727,-0.9615,-0.9608,-0.9466,-0.9217,-0.9158,-0.9059,-0.8912,-0.8912,-0.8912,-0.8902,-0.8648,-0.8532,-0.8495,-0.8172,-0.8037,-0.7988,-0.7988,-0.7988,-0.7988,-0.7988,-0.7988,-0.7988,-0.7988,-0.7988,-0.7988,-0.7988,-0.7988,-0.7988,-0.7988,-0.7988,-0.7988,-0.7988,-0.7988,-0.804,-0.8197,-0.8294,-0.8328,-0.8328,-0.8417,-0.8509,-0.8509,-0.8417,-0.8328,-0.8328,-0.8201,-0.8074,-0.8054,-0.8067,-0.8067,-0.7998,-0.8033,-0.804,-0.7992,-0.7988,-0.7988,-0.7988,0.0,-0.7868,-0.7975,-0.7902,-0.7881,-0.8033,-0.805,-0.8057,-0.8081,-0.9351,-1.0057,-0.9951,-1.1273,-1.1921,-1.1693,-1.0836,-1.0338,-1.0187,-1.0421,-1.0516,-1.0512,-1.3091,-1.4222,-1.408,-1.5747,-1.5678,-1.4279,-1.5912,-1.5712,-1.4334,-1.5592,-1.6373,-1.6767,-1.6727,-1.686,-1.6972,-1.581,-1.4966,-1.4182,-2.1109,-2.0881,-2.0671,-2.0625,-2.0423,-1.9738,-1.8256,-1.8027,-1.6834,-1.3547,-1.3223,-1.2583,-1.0733,-1.0622,-1.0575,-1.0335,-1.0259,-1.0124,-0.9808,-0.9792,-0.9727,-0.9615,-0.9608,-0.9466,-0.9217,-0.9032,-0.8933,-0.8912,-0.8912,-0.8912,-0.8906,-0.873,-0.8608,-0.8502,-0.8335,-0.8163,-0.7988,-0.7988,-0.7988,-0.7988,-0.7988,-0.7988,-0.7988,-0.7988,-0.7988,-0.7988,-0.7988,-0.7988,-0.7988,-0.7988,-0.7988,-0.7988,-0.7988,-0.7988,-0.7995,-0.8044,-0.8252,-0.8475,-0.8475,-0.8492,-0.8509,-0.8509,-0.8492,-0.8475,-0.8475,-0.8457,-0.8381,-0.8284,-0.8355,-0.8336,-0.806,-0.8147,-0.8194,-0.8037,-0.7988,-0.7988,-0.7988,0.0,-0.7989,-0.7985,-0.7993,-0.804,-0.8243,-0.826,-0.8311,-0.8404,-0.8666,-0.8781,-0.8755,-0.9115,-0.9297,-0.9249,-0.9991,-0.9991,-0.9136,-1.0489,-1.0572,-0.9469,-1.1903,-1.2465,-1.134,-1.2815,-1.3205,-1.2782,-1.3567,-1.4266,-1.4892,-1.5098,-1.5965,-1.708,-1.6807,-1.6734,-1.6715,-1.6295,-1.4776,-1.3006,-2.1109,-2.1109,-2.1056,-2.0902,-2.0875,-2.0618,-1.9814,-1.9682,-1.8465,-1.5055,-1.4656,-1.3639,-1.0796,-1.0555,-1.051,-1.0332,-1.0205,-1.0065,-0.9923,-0.9836,-0.9761,-0.9697,-0.9649,-0.9466,-0.9217,-0.9011,-0.8912,-0.8912,-0.8912,-0.8912,-0.8906,-0.8699,-0.8594,-0.8591,-0.8282,-0.8194,-0.8269,-0.8081,-0.8064,-0.8157,-0.8047,-0.7988,-0.7988,-0.7988,-0.7988,-0.7988,-0.7988,-0.7988,-0.7988,-0.7988,-0.7988,-0.7988,-0.7988,-0.7988,-0.803,-0.814,-0.8313,-0.8543,-0.8682,-0.8726,-0.8726,-0.8726,-0.8665,-0.8604,-0.8604,-0.854,-0.8488,-0.8423,-0.8461,-0.8444,-0.8204,-0.8247,-0.8274,-0.8177,-0.8071,0.0,0.0,-0.8067,-0.8044,-0.8153,-0.8163,-0.8221,-0.8396,-0.841,-0.8437,-0.8502,-0.8509,-0.8543,-0.8601,-0.8672,-0.8723,-0.8804,-0.9432,-0.9536,-0.9052,-1.0559,-1.098,-1.0346,-1.2186,-1.2739,-1.2127,-1.2765,-1.2578,-1.1753,-1.2653,-1.2894,-1.2732,-1.3265,-1.437,-1.5706,-1.5507,-1.586,-1.6379,-1.5534,-1.4402,-1.3287,-2.1109,-2.1109,-2.1042,-2.0815,-2.0775,-2.0775,-2.0775,-2.0775,-1.9719,-1.6749,-1.6059,-1.4612,-1.1298,-1.0644,-1.0399,-1.0322,-1.0106,-0.9987,-0.9987,-0.9876,-0.9792,-0.9792,-0.9652,-0.9432,-0.9214,-0.9011,-0.8912,-0.8912,-0.8912,-0.8912,-0.8906,-0.8699,-0.8632,-0.8696,-0.8324,-0.8277,-0.8492,-0.8204,-0.8163,-0.8281,-0.8077,-0.7988,-0.7988,-0.7988,-0.7988,-0.7988,-0.7988,-0.7988,-0.7988,-0.7988,-0.7988,-0.7988,-0.7988,-0.804,-0.8091,-0.826,-0.842,-0.8584,-0.8794,-0.8885,-0.8912,-0.8912,-0.8825,-0.8737,-0.8737,-0.8672,-0.8577,-0.854,-0.8564,-0.8533,-0.8379,-0.8372,-0.8386,-0.8352,0.0,0.0,0.0,-0.8218,-0.8187,-0.8332,-0.8345,-0.8403,-0.852,-0.8533,-0.855,-0.8584,-0.8587,-0.8638,-0.873,-0.8737,-0.8804,-0.8956,-0.9158,-0.9233,-0.9233,-1.0697,-1.1227,-1.0876,-1.2211,-1.2636,-1.2267,-1.2267,-1.1647,-1.064,-1.1514,-1.1478,-1.0842,-1.1508,-1.2673,-1.405,-1.3819,-1.457,-1.5619,-1.4594,-1.4067,-1.3781,-2.1109,-2.1109,-2.1102,-2.1082,-2.1076,-2.1076,-2.1076,-2.1076,-2.0273,-1.804,-1.6547,-1.4814,-1.2514,-1.1112,-1.0322,-1.0315,-1.0106,-0.9987,-0.9987,-0.9876,-0.9792,-0.9792,-0.9551,-0.9349,-0.9214,-0.9011,-0.8912,-0.8912,-0.8912,-0.8912,-0.8912,-0.8889,-0.8808,-0.871,-0.8676,-0.8594,-0.8498,-0.8345,-0.8284,-0.8281,-0.8077,-0.7988,-0.7988,-0.7988,-0.7988,-0.7988,-0.7988,-0.7988,-0.7988,-0.7988,-0.7988,-0.7988,-0.7988,-0.8136,-0.8281,-0.8294,-0.8472,-0.8699,-0.872,-0.8804,-0.8912,-0.8912,-0.8902,-0.8892,-0.8892,-0.8885,-0.8838,-0.8723,-0.8781,-0.8787,-0.852,-0.8581,-0.8632,-0.8515,0.0,0.0,-0.8492,-0.8485,-0.8481,-0.8492,-0.8492,-0.8526,-0.8679,-0.8693,-0.8727,-0.8869,-0.8879,-0.8882,-0.8892,-0.8892,-0.8988,-0.9162,-0.9315,-0.9393,-0.9393,-1.0979,-1.1004,-0.956,-1.0827,-1.0659,-0.9237,-0.9237,-0.9154,-0.9075,-0.9144,-0.9896,-1.1031,-1.0678,-1.1405,-1.2705,-1.2256,-1.2888,-1.4046,-1.398,-1.3914,-1.3902,-2.1109,-2.1109,-2.1109,-2.1109,-2.1109,-2.0754,-1.9642,-1.9483,-1.8764,-1.6668,-1.5054,-1.3654,-1.2507,-1.1153,-1.0243,-1.0113,-1.0052,-0.9987,-0.9987,-0.9876,-0.9741,-0.9554,-0.9442,-0.9269,-0.9025,-0.894,-0.8912,-0.8912,-0.8912,-0.8912,-0.8909,-0.8814,-0.8791,-0.8818,-0.8655,-0.8642,-0.8723,-0.8506,-0.8485,-0.853,-0.8377,-0.8313,-0.8313,-0.8313,-0.8313,-0.8303,-0.8214,-0.8184,-0.8167,-0.8047,-0.7988,-0.803,-0.8153,-0.8247,-0.8315,-0.8403,-0.855,-0.871,-0.871,-0.8794,-0.8912,-0.8912,-0.8912,-0.8912,-0.8912,-0.8912,-0.8896,-0.8835,-0.8872,-0.8845,-0.8662,-0.8672,-0.8693,-0.8632,0.0,-0.8543,-0.8611,-0.8625,-0.8625,-0.8625,-0.8706,-0.876,-0.8818,-0.8825,-0.8848,-0.8906,-0.8912,-0.8912,-0.8912,-0.9022,-0.9124,-0.9207,-0.9424,-0.9523,-0.9523,-1.0926,-1.1298,-1.0714,-1.1015,-1.0874,-1.0241,-0.932,-0.8912,-0.8912,-0.8912,-0.921,-0.9708,-0.9452,-1.008,-1.122,-1.105,-1.1661,-1.2665,-1.2804,-1.2766,-1.2668,-2.1109,-2.1109,-2.1109,-2.1109,-2.1109,-2.0526,-1.8768,-1.896,-1.8577,-1.6572,-1.5329,-1.4242,-1.3325,-1.1825,-1.0638,-1.0053,-0.9974,-0.9967,-0.9984,-0.9876,-0.973,-0.953,-0.9432,-0.9286,-0.9054,-0.896,-0.8912,-0.8912,-0.8912,-0.8912,-0.8909,-0.8804,-0.8811,-0.8902,-0.872,-0.8716,-0.8892,-0.8662,-0.8615,-0.8696,-0.8543,-0.8509,-0.8509,-0.8509,-0.8509,-0.8495,-0.8396,-0.8362,-0.8342,-0.8163,-0.8088,-0.813,-0.8264,-0.8359,-0.8464,-0.8581,-0.8699,-0.8754,-0.8754,-0.8831,-0.8912,-0.8912,-0.8912,-0.8912,-0.8912,-0.8912,-0.8912,-0.8912,-0.8946,-0.8974,-0.8869,-0.8889,-0.892,-0.892,-0.8832,-0.8828,-0.8906,-0.892,-0.892,-0.892,-0.8971,-0.9008,-0.9008,-0.8936,-0.8912,-0.8912,-0.8912,-0.8912,-0.8912,-0.9104,-0.9231,-0.925,-0.9473,-0.9608,-0.9608,-1.0505,-1.0907,-1.0826,-1.065,-1.0508,-1.0378,-0.9372,-0.8912,-0.8912,-0.8912,-0.8912,-0.8899,-0.8747,-0.9149,-0.9902,-1.0334,-1.0871,-1.1497,-1.2088,-1.2183,-1.1924,-2.1077,-2.1077,-2.1077,-2.1077,-2.1077,-2.0526,-1.8768,-1.9973,-2.0358,-1.8354,-1.7963,-1.7148,-1.5232,-1.3351,-1.1631,-1.0156,-0.991,-0.9886,-1.0005,-0.9876,-0.9792,-0.9792,-0.954,-0.941,-0.941,-0.9061,-0.8912,-0.8912,-0.8912,-0.8912,-0.8912,-0.8912,-0.8912,-0.8912,-0.8912,-0.8912,-0.8899,-0.875,-0.8713,-0.8699,-0.8547,-0.8512,-0.8512,-0.8512,-0.8512,-0.8512,-0.8509,-0.8509,-0.8488,-0.8345,-0.8298,-0.8298,-0.8298,-0.8476,-0.8716,-0.8869,-0.8912,-0.8912,-0.8912,-0.8912,-0.8912,-0.8912,-0.8912,-0.8912,-0.8912,-0.8912,-0.8916,-0.8912,-0.9055,-0.921,-0.921,-0.9305,-0.941,-0.941,-0.941,-0.941,-0.941,-0.9413,-0.9413,-0.941,-0.9274,-0.921,-0.9207,-0.9022,-0.8912,-0.8912,-0.8912,-0.8912,-0.8912,-0.9104,-0.925,-0.9403,-0.953,-0.9608,-0.9608,-0.9717,-0.9673,-0.941,-0.941,-0.9225,-0.8912,-0.8912,-0.8912,-0.8912,-0.8912,-0.8912,-0.8899,-0.8747,-0.8713,-0.8827,-1.0179,-1.0569,-1.0569,-1.2032,-1.2405,-1.1969,-1.9285,-1.9285,-1.9285,-1.9285,-2.0297,-2.01,-1.7146,-1.8148,-1.8546,-1.654,-1.6313,-1.6523,-1.7001,-1.5529,-1.3802,-1.1977,-1.1801,-1.1226,-0.9954,-0.9815,-0.9792,-0.9792,-0.9642,-0.9442,-0.9254,-0.9162,-0.9042,-0.8912,-0.8912,-0.8912,-0.8912,-0.8912,-0.8912,-0.8912,-0.8912,-0.8912,-0.8906,-0.8862,-0.8841,-0.8838,-0.8794,-0.8774,-0.8774,-0.8774,-0.8774,-0.876,-0.8679,-0.8642,-0.8604,-0.8379,-0.8298,-0.8315,-0.8413,-0.8625,-0.8852,-0.8896,-0.8912,-0.8912,-0.8912,-0.8912,-0.8912,-0.8912,-0.9015,-0.9062,-0.8933,-0.9071,-0.9191,-0.8953,-0.914,-0.9311,-0.9228,-0.9305,-0.941,-0.941,-0.941,-0.941,-0.941,-0.9473,-0.9462,-0.9274,-0.9305,-0.926,-0.9022,-0.9055,-0.9049,-0.8919,-0.8912,-0.8912,-0.8912,-0.9104,-0.925,-0.9403,-0.953,-0.9608,-0.9608,-0.9544,-0.9466,-0.941,-0.9171,-0.9076,-0.9114,-0.8956,-0.8912,-0.8912,-0.8912,-0.8912,-0.8906,-0.8862,-0.8781,-0.8743,-0.9231,-0.9278,-0.9141,-0.9674,-0.9697,-0.9417,-1.8506,-1.8506,-1.8736,-1.9419,-2.0392,-2.0164,-1.7371,-1.841,-1.8842,-1.695,-1.7263,-1.7773,-1.8025,-1.7111,-1.5731,-1.39,-1.3049,-1.1836,-1.0009,-0.9822,-0.9792,-0.9792,-0.9707,-0.9581,-0.9369,-0.9301,-0.923,-0.9085,-0.9052,-0.9055,-0.9082,-0.8967,-0.894,-0.9022,-0.8936,-0.8912,-0.8912,-0.8912,-0.8912,-0.8912,-0.8912,-0.8912,-0.8912,-0.8912,-0.8912,-0.8899,-0.8804,-0.8774,-0.8737,-0.8526,-0.8471,-0.8475,-0.8502,-0.8693,-0.8923,-0.9008,-0.8956,-0.8923,-0.9008,-0.8953,-0.8912,-0.8912,-0.9005,-0.9045,-0.8929,-0.912,-0.9267,-0.9059,-0.9262,-0.9442,-0.9379,-0.9456,-0.9554,-0.9554,-0.9554,-0.9554,-0.9554,-0.9635,-0.9625,-0.9468,-0.9449,-0.9401,-0.9193,-0.9203,-0.9121,-0.8923,-0.8912,-0.8912,-0.8912,-0.9022,-0.9192,-0.9403,-0.9469,-0.9547,-0.9608,-0.9517,-0.9441,-0.9318,-0.911,-0.9039,-0.9066,-0.895,-0.8912,-0.8912,-0.8912,-0.8912,-0.8912,-0.8912,-0.8855,-0.8835,-0.9525,-0.9309,-0.8726,-0.9406,-0.9149,-0.8459,-1.8506,-1.8506,-1.8998,-2.0589,-2.1014,-2.0526,-1.8768,-1.9966,-2.0456,-1.8736,-1.9814,-2.0167,-1.8724,-1.8321,-1.7518,-1.5882,-1.3808,-1.1872,-1.0091,-0.9866,-0.9792,-0.9792,-0.9792,-0.9731,-0.9632,-0.9479,-0.9424,-0.941,-0.9271,-0.9274,-0.9403,-0.9061,-0.9028,-0.9204,-0.9001,-0.8912,-0.8912,-0.8912,-0.8912,-0.8912,-0.8912,-0.8912,-0.8912,-0.8912,-0.8912,-0.8912,-0.8912,-0.8912,-0.8889,-0.8733,-0.871,-0.8686,-0.8547,-0.8703,-0.8936,-0.9124,-0.9042,-0.8943,-0.9141,-0.9049,-0.8916,-0.8926,-0.8919,-0.8912,-0.8912,-0.9059,-0.9221,-0.9165,-0.9388,-0.9605,-0.9591,-0.9717,-0.9792,-0.9792,-0.9792,-0.9792,-0.9792,-0.9792,-0.9785,-0.9771,-0.969,-0.9605,-0.9591,-0.9366,-0.9148,-0.896,-0.8936,-0.8926,-0.8912,-0.8912,-0.9048,-0.94,-0.941,-0.9456,-0.9608,-0.9608,-0.9462,-0.9231,-0.9217,-0.9114,-0.8929,-0.8916,-0.8919,-0.8929,-0.8929,-0.8929,-0.8929,-0.8929,-0.8923,-0.9047,-1.0378,-1.008,-0.9075,-1.0402,-0.9969,-0.871,-1.8506,-1.8506,-1.8608,-1.8998,-2.0195,-2.0526,-1.8768,-1.9966,-2.0456,-1.8736,-1.9979,-2.0883,-2.0523,-2.0439,-1.9663,-1.7861,-1.4558,-1.182,-0.9968,-0.9808,-0.9792,-0.9792,-0.9792,-0.9775,-0.9744,-0.9635,-0.95,-0.941,-0.9376,-0.9376,-0.9407,-0.922,-0.9152,-0.9204,-0.9001,-0.8912,-0.8912,-0.8912,-0.8912,-0.8912,-0.8912,-0.8912,-0.8912,-0.8912,-0.8912,-0.8912,-0.8912,-0.8912,-0.8889,-0.8733,-0.871,-0.8706,-0.8672,-0.8764,-0.8916,-0.895,-0.8936,-0.8943,-0.9141,-0.9049,-0.8936,-0.9107,-0.9022,-0.8912,-0.8912,-0.9144,-0.9294,-0.9032,-0.9291,-0.9571,-0.9452,-0.9646,-0.9792,-0.9792,-0.9792,-0.9792,-0.9792,-0.9792,-0.9751,-0.9669,-0.9629,-0.9561,-0.9442,-0.94,-0.9349,-0.9286,-0.9203,-0.9055,-0.8916,-0.8912,-0.9048,-0.94,-0.941,-0.9456,-0.9608,-0.9608,-0.9517,-0.9359,-0.924,-0.9165,-0.9131,-0.8963,-0.8998,-0.9134,-0.9134,-0.9134,-0.9134,-0.9134,-0.9042,-0.8937,-0.9265,-0.9182,-0.8937,-0.9265,-0.9081,-0.871,-1.8506,-1.8506,-1.8768,-1.961,-2.0487,-2.0779,-1.9871,-2.0526,-2.0786,-1.9871,-2.0519,-2.1109,-2.1109,-2.1109,-2.0017,-1.7313,-1.434,-1.184,-1.0026,-0.9832,-0.9792,-0.9792,-0.9792,-0.9792,-0.9792,-0.9717,-0.9673,-0.9591,-0.9523,-0.9527,-0.9585,-0.9318,-0.922,-0.9281,-0.9007,-0.8912,-0.8912,-0.8912,-0.8912,-0.8912,-0.8912,-0.8912,-0.8912,-0.8912,-0.8912,-0.8912,-0.8912,-0.8912,-0.8889,-0.8733,-0.8733,-0.8781,-0.8733,-0.8787,-0.8926,-0.9022,-0.9042,-0.9072,-0.925,-0.9208,-0.9167,-0.9274,-0.9179,-0.9022,-0.8926,-0.9113,-0.9054,-0.8136,-0.8817,-0.9374,-0.8581,-0.9184,-0.9792,-0.9792,-0.9792,-0.9792,-0.9792,-0.9792,-0.9761,-0.972,-0.971,-0.9652,-0.9503,-0.949,-0.9459,-0.9417,-0.9267,-0.9182,-0.915,-0.9079,-0.9181,-0.9483,-0.949,-0.9561,-0.9707,-0.971,-0.9635,-0.9486,-0.9291,-0.921,-0.9204,-0.9005,-0.9018,-0.921,-0.921,-0.921,-0.921,-0.921,-0.9069,-0.8912,-0.8912,-0.8912,-0.8912,-0.8912,-0.8862,-0.8791,-1.8928,-1.8928,-1.9387,-2.0849,-2.1109,-2.1109,-2.1109,-2.1109,-2.1109,-2.1109,-2.1109,-2.0982,-2.0684,-2.0392,-1.8847,-1.5462,-1.3621,-1.19,-1.0074,-0.9859,-0.9792,-0.9792,-0.9792,-0.9792,-0.9792,-0.9792,-0.9792,-0.9792,-0.9703,-0.9677,-0.9781,-0.9444,-0.9315,-0.9396,-0.9096,-0.8933,-0.8912,-0.8912,-0.8912,-0.8912,-0.8912,-0.8912,-0.8912,-0.8912,-0.8912,-0.8912,-0.8912,-0.8912,-0.8892,-0.8767,-0.8804,-0.8889,-0.8764,-0.8808,-0.894,-0.9138,-0.921,-0.922,-0.94,-0.943,-0.9417,-0.9441,-0.9335,-0.9189,-0.9014,-0.9086,-0.8836,-0.7545,-0.8512,-0.9218,-0.8015,-0.8871,-0.9792,-0.9792,-0.9792,-0.9792,-0.9792,-0.9792,-0.9792,-0.9792,-0.9792,-0.9744,-0.9656,-0.9646,-0.9585,-0.9432,-0.9332,-0.9301,-0.9403,-0.9288,-0.9349,-0.9602,-0.9608,-0.968,-0.9788,-0.9792,-0.9734,-0.9642,-0.9393,-0.9233,-0.9207,-0.9028,-0.9042,-0.921,-0.9238,-0.9234,-0.921,-0.921,-0.9069,-0.8912,-0.8912,-0.8912,-0.8912,-0.8912,-0.8912,-0.8912,-2.0748,-2.0748,-2.0817,-2.1046,-2.1109,-2.1109,-2.1109,-2.1109,-2.1109,-2.1109,-2.1109,-2.0519,-1.9024,-1.7506,-1.5639,-1.3221,-1.2914,-1.2012,-0.9958,-0.9802,-0.9792,-0.9792,-0.9792,-0.9792,-0.9792,-0.9792,-0.9792,-0.9792,-0.9771,-0.9771,-0.9788,-0.9635,-0.949,-0.9403,-0.923,-0.9055,-0.8912,-0.8912,-0.8912,-0.8912,-0.8912,-0.8912,-0.8912,-0.8912,-0.8912,-0.8912,-0.8912,-0.8912,-0.8906,-0.8885,-0.8892,-0.8906,-0.8885,-0.8896,-0.894,-0.9138,-0.921,-0.9243,-0.95,-0.9483,-0.9441,-0.9547,-0.9462,-0.9376,-0.9327,-0.926,-0.9154,-0.8921,-0.9278,-0.9549,-0.9337,-0.9573,-0.9792,-0.9792,-0.9792,-0.9792,-0.9792,-0.9792,-0.9792,-0.9792,-0.9792,-0.9785,-0.9765,-0.9761,-0.9704,-0.9591,-0.9557,-0.95,-0.9417,-0.939,-0.9432,-0.9605,-0.9608,-0.968,-0.9788,-0.9792,-0.9781,-0.9761,-0.9625,-0.9437,-0.921,-0.9162,-0.9162,-0.9217,-0.9322,-0.9305,-0.921,-0.921,-0.9069,-0.8912,-0.8912,-0.8912,-0.8912,-0.8912,-0.8912,-0.8912,-2.1109,-2.1109,-2.1109,-2.1109,-2.1109,-2.1109,-2.1109,-2.1109,-2.1109,-2.1109,-2.0265,-1.9349,-1.857,-1.5995,-1.3911,-1.2865,-1.1857,-1.0853,-0.9866,-0.9792,-0.9792,-0.9792,-0.9792,-0.9792,-0.9792,-0.9792,-0.9792,-0.9792,-0.9792,-0.9792,-0.9785,-0.9588,-0.9445,-0.94,-0.9137,-0.897,-0.8912,-0.8912,-0.8912,-0.8912,-0.8912,-0.8912,-0.8912,-0.8912,-0.8912,-0.8912,-0.8912,-0.8912,-0.8912,-0.8912,-0.8912,-0.8912,-0.8912,-0.8967,-0.9097,-0.9162,-0.9301,-0.9447,-0.9469,-0.9554,-0.9625,-0.9612,-0.9557,-0.951,-0.951,-0.9456,-0.9149,-0.8218,-0.8864,-0.9337,-0.8525,-0.9145,-0.9792,-0.9792,-0.9792,-0.9792,-0.9792,-0.9792,-0.9792,-0.9792,-0.9792,-0.9792,-0.9792,-0.9792,-0.9765,-0.9704,-0.9652,-0.9615,-0.9625,-0.9551,-0.9578,-0.9694,-0.9697,-0.9727,-0.9792,-0.9792,-0.9792,-0.9788,-0.9676,-0.954,-0.943,-0.9257,-0.923,-0.9308,-0.9291,-0.9243,-0.921,-0.921,-0.9069,-0.8912,-0.8912,-0.8912,-0.8912,-0.8912,-0.8912,-0.8912]},{"header":{"parameterUnit":"m.s-1","parameterCategory":1,"la1":30.6,"la2":28.766,"lo1":-90.7593,"lo2":-88.6598,"dy":0.0162,"dx":0.0183,"nx":116,"ny":114,"refTime":"2023-10-28T06:00:00:Z","depth":0,"parameterNumber":3,"parameterNumberName":"V-component_of_WINDS"},"data":[0.0,0.0,0.0,0.0,0.0,0.0,0.0,0.0,0.0,0.0,0.0,0.0,0.0,0.0,0.0,0.0,0.0,0.0,0.0,0.0,0.0,0.0,0.0,0.0,0.0,0.0,0.0,0.0,0.0,0.0,0.0,0.0,0.0,0.0,0.0,0.0,0.0,0.0,0.0,0.0,0.0,0.0,0.0,0.0,0.0,0.0,0.0,0.0,0.0,0.0,0.0,0.0,0.0,0.0,0.0,0.0,0.0,0.0,0.0,0.0,0.0,0.0,0.0,0.0,0.0,0.0,0.0,0.0,0.0,0.0,0.0,0.0,0.0,0.0,0.0,0.0,0.0,0.0,0.0,0.0,0.0,0.0,0.0,0.0,0.0,0.0,0.0,0.0,0.0,0.0,0.0,0.0,0.0,0.0,0.0,0.0,0.0,0.0,0.0,0.0,0.0,0.0,0.0,0.0,0.0,0.0,0.0,0.0,0.0,0.0,0.0,0.0,0.0,0.0,0.0,0.0,0.0,0.0,0.0,0.0,0.0,0.0,0.0,0.0,0.0,0.0,0.0,0.0,0.0,0.0,0.0,0.0,0.0,0.0,0.0,0.0,0.0,0.0,0.0,0.0,0.0,0.0,0.0,0.0,0.0,0.0,0.0,0.0,0.0,0.0,0.0,0.0,0.0,0.0,0.0,0.0,0.0,0.0,0.0,0.0,0.0,0.0,0.0,0.0,0.0,0.0,0.0,0.0,0.0,0.0,0.0,0.0,0.0,0.0,0.0,0.0,0.0,0.0,0.0,0.0,0.0,0.0,0.0,0.0,0.0,0.0,0.0,0.0,0.0,0.0,0.0,0.0,0.0,0.0,0.0,0.0,0.0,0.0,0.0,0.0,0.0,0.0,0.0,0.0,0.0,0.0,0.0,0.0,0.0,0.0,0.0,0.0,0.0,0.0,0.0,0.0,0.0,0.0,0.0,0.0,0.0,0.0,0.0,0.0,0.0,0.0,0.0,0.0,0.0,0.0,0.0,0.0,0.0,0.0,0.0,0.0,0.0,0.0,0.0,0.0,0.0,0.0,0.0,0.0,0.0,0.0,0.0,0.0,0.0,0.0,0.0,0.0,0.0,0.0,0.0,0.0,0.0,0.0,0.0,0.0,0.0,0.0,0.0,0.0,0.0,0.0,0.0,0.0,0.0,0.0,0.0,0.0,0.0,0.0,0.0,0.0,0.0,0.0,0.0,0.0,0.0,0.0,0.0,0.0,0.0,0.0,0.0,0.0,0.0,0.0,0.0,0.0,0.0,0.0,0.0,0.0,0.0,0.0,0.0,0.0,0.0,0.0,0.0,0.0,0.0,0.0,0.0,0.0,0.0,0.0,0.0,0.0,0.0,0.0,0.0,0.0,0.0,0.0,0.0,0.0,0.0,0.0,0.0,0.0,0.0,0.0,0.0,0.0,0.0,0.0,0.0,0.0,0.0,0.0,0.0,0.0,0.0,0.0,0.0,0.0,0.0,0.0,0.0,0.0,0.0,0.0,0.0,0.0,0.0,0.0,0.0,0.0,0.0,0.0,0.0,0.0,0.0,0.0,0.0,0.0,0.0,0.0,0.0,0.0,0.0,0.0,0.0,0.0,0.0,0.0,0.0,0.0,0.0,0.0,0.0,0.0,0.0,0.0,0.0,0.0,0.0,0.0,0.0,0.0,0.0,0.0,0.0,0.0,0.0,0.0,0.0,0.0,0.0,0.0,0.0,0.0,0.0,0.0,0.0,0.0,0.0,0.0,0.0,0.0,0.0,0.0,0.0,0.0,0.0,0.0,0.0,0.0,0.0,0.0,0.0,0.0,0.0,0.0,0.0,0.0,0.0,0.0,0.0,0.0,0.0,0.0,0.0,0.0,0.0,0.0,0.0,0.0,0.0,0.0,0.0,0.0,0.0,0.0,0.0,0.0,0.0,0.0,0.0,0.0,0.0,0.0,0.0,0.0,0.0,0.0,0.0,0.0,0.0,0.0,0.0,0.0,0.0,0.0,0.0,0.0,0.0,0.0,0.0,0.0,0.0,0.0,0.0,0.0,0.0,0.0,0.0,0.0,0.0,0.0,0.0,0.0,0.0,0.0,0.0,0.0,0.0,0.0,0.0,0.0,0.0,0.0,0.0,0.0,0.0,0.0,0.0,0.0,0.0,0.0,0.0,0.0,0.0,0.0,0.0,0.0,0.0,0.0,0.0,0.0,0.0,0.0,0.0,0.0,0.0,0.0,0.0,0.0,0.0,0.0,0.0,0.0,0.0,0.0,0.0,0.0,0.0,0.0,0.0,0.0,0.0,0.0,0.0,0.0,0.0,0.0,0.0,0.0,0.0,0.0,0.0,0.0,0.0,0.0,0.0,0.0,0.0,0.0,0.0,0.0,0.0,0.0,0.0,0.0,0.0,0.0,0.0,0.0,0.0,0.0,0.0,0.0,0.0,0.0,0.0,0.0,0.0,0.0,0.0,0.0,0.0,0.0,0.0,0.0,0.0,0.0,0.0,0.0,0.0,0.0,0.0,0.0,0.0,0.0,0.0,0.0,0.0,0.0,0.0,0.0,0.0,0.0,0.0,0.0,0.0,0.0,0.0,0.0,0.0,0.0,0.0,0.0,0.0,0.0,0.0,0.0,0.0,0.0,0.0,0.0,0.0,0.0,0.0,0.0,0.0,0.0,0.0,0.0,0.0,0.0,0.0,0.0,0.0,0.0,0.0,0.0,0.0,0.0,0.0,0.0,0.0,0.0,0.0,0.0,0.0,0.0,0.0,0.0,0.0,0.0,0.0,0.0,0.0,0.0,0.0,0.0,0.0,0.0,0.0,0.0,0.0,0.0,0.0,0.0,0.0,0.0,0.0,0.0,0.0,0.0,0.0,0.0,0.0,0.0,0.0,0.0,0.0,0.0,0.0,0.0,0.0,0.0,0.0,0.0,0.0,0.0,0.0,0.0,0.0,0.0,0.0,0.0,0.0,0.0,0.0,0.0,0.0,0.0,0.0,0.0,0.0,0.0,0.0,0.0,0.0,0.0,0.0,0.0,0.0,0.0,0.0,0.0,0.0,0.0,0.0,0.0,0.0,0.0,0.0,0.0,0.0,0.0,0.0,0.0,0.0,0.0,0.0,0.0,0.0,0.0,0.0,0.0,0.0,0.0,0.0,0.0,0.0,0.0,0.0,0.0,0.0,0.0,0.0,0.0,0.0,0.0,0.0,0.0,0.0,0.0,0.0,0.0,0.0,0.0,0.0,0.0,0.0,0.0,0.0,0.0,0.0,0.0,0.0,0.0,0.0,0.0,0.0,0.0,0.0,0.0,0.0,0.0,0.0,0.0,0.0,0.0,0.0,0.0,0.0,0.0,0.0,0.0,0.0,0.0,0.0,0.0,0.0,0.0,0.0,0.0,0.0,0.0,0.0,0.0,0.0,0.0,0.0,0.0,0.0,0.0,0.0,0.0,0.0,0.0,0.0,0.0,0.0,0.0,0.0,0.0,0.0,0.0,0.0,0.0,0.0,0.0,0.0,0.0,0.0,0.0,0.0,0.0,0.0,0.0,0.0,0.0,0.0,0.0,0.0,0.0,0.0,0.0,0.0,0.0,0.0,0.0,0.0,0.0,0.0,0.0,0.0,0.0,0.0,0.0,0.0,0.0,0.0,0.0,0.0,0.0,0.0,0.0,0.0,0.0,0.0,0.0,0.0,0.0,0.0,0.0,0.0,0.0,0.0,0.0,0.0,0.0,0.0,0.0,0.0,0.0,0.0,0.0,0.0,0.0,0.0,0.0,0.0,0.0,0.0,0.0,0.0,0.0,0.0,0.0,0.0,0.0,0.0,0.0,0.0,0.0,0.0,0.0,0.0,0.0,0.0,0.0,0.0,0.0,0.0,0.0,0.0,0.0,0.0,0.0,0.0,0.0,0.0,0.0,0.0,0.0,0.0,0.0,0.0,0.0,0.0,0.0,0.0,0.0,0.0,0.0,0.0,0.0,0.0,0.0,0.0,0.0,0.0,0.0,0.0,0.0,0.0,0.0,0.0,0.0,0.0,0.0,0.0,0.0,0.0,0.0,0.0,0.0,0.0,0.0,0.0,0.0,0.0,0.0,0.0,0.0,0.0,0.0,0.0,0.0,0.0,0.0,0.0,0.0,0.0,0.0,0.0,0.0,0.0,0.0,0.0,0.0,0.0,0.0,0.0,0.0,0.0,0.0,0.0,0.0,0.0,0.0,0.0,0.0,0.0,0.0,0.0,0.0,0.0,0.0,0.0,0.0,0.0,0.0,0.0,0.0,0.0,0.0,0.0,0.0,0.0,0.0,0.0,0.0,0.0,0.0,0.0,0.0,0.0,0.0,0.0,0.0,0.0,0.0,0.0,0.0,0.0,0.0,0.0,0.0,0.0,0.0,0.0,0.0,0.0,0.0,0.0,0.0,0.0,0.0,0.0,0.0,0.0,0.0,0.0,0.0,0.0,0.0,0.0,0.0,0.0,0.0,0.0,0.0,0.0,0.0,0.0,0.0,0.0,0.0,0.0,0.0,0.0,0.0,0.0,0.0,0.0,0.0,0.0,0.0,0.0,0.0,0.0,0.0,0.0,0.0,0.0,0.0,0.0,0.0,0.0,0.0,0.0,0.0,0.0,0.0,0.0,0.0,0.0,0.0,0.0,0.0,0.0,0.0,0.0,0.0,0.0,0.0,0.0,0.0,0.0,0.0,0.0,0.0,0.0,0.0,0.0,0.0,0.0,0.0,0.0,0.0,0.0,0.0,0.0,0.0,0.0,0.0,0.0,0.0,0.0,0.0,0.0,0.0,0.0,0.0,0.0,0.0,0.0,0.0,0.0,0.0,0.0,0.0,0.0,0.0,0.0,0.0,0.0,0.0,0.0,0.0,0.0,0.0,0.0,0.0,0.0,0.0,0.0,0.0,0.0,0.0,0.0,0.0,0.0,0.0,0.0,0.0,0.0,0.0,0.0,0.0,0.0,0.0,0.0,0.0,0.0,0.0,0.0,0.0,0.0,0.0,0.0,0.0,0.0,0.0,0.0,0.0,0.0,0.0,0.0,0.0,0.0,0.0,0.0,0.0,0.0,0.0,0.0,0.0,0.0,0.0,0.0,0.0,0.0,0.0,0.0,0.0,0.0,0.0,0.0,0.0,0.0,0.0,0.0,0.0,0.0,0.0,0.0,0.0,0.0,0.0,0.0,0.0,0.0,0.0,0.0,0.0,0.0,0.0,0.0,0.0,0.0,0.0,0.0,0.0,0.0,0.0,0.0,0.0,0.0,0.0,0.0,0.0,0.0,0.0,0.0,0.0,0.0,0.0,0.0,0.0,0.0,0.0,0.0,0.0,0.0,0.0,0.0,0.0,0.0,0.0,0.0,0.0,0.0,0.0,0.0,0.0,0.0,0.0,0.0,0.0,0.0,0.0,0.0,0.0,0.0,0.0,0.0,0.0,0.0,0.0,0.0,0.0,0.0,0.0,0.0,0.0,0.0,0.0,0.0,0.0,0.0,0.0,0.0,0.0,0.0,0.0,0.0,0.0,0.0,0.0,0.0,0.0,0.0,0.0,0.0,0.0,0.0,0.0,0.0,0.0,0.0,0.0,0.0,0.0,0.0,0.0,0.0,0.0,0.0,0.0,0.0,0.0,0.0,0.0,0.0,0.0,0.0,0.0,0.0,0.0,0.0,0.0,0.0,0.0,0.0,0.0,0.0,0.0,0.0,0.0,0.0,0.0,0.0,0.0,0.0,0.0,0.0,0.0,0.0,0.0,0.0,0.0,0.0,0.0,0.0,0.0,0.0,0.0,0.0,0.0,0.0,0.0,0.0,0.0,0.0,0.0,0.0,0.0,0.0,0.0,0.0,0.0,0.0,0.0,0.0,0.0,0.0,0.0,0.0,0.0,0.0,0.0,0.0,0.0,0.0,0.0,0.0,0.0,0.0,0.0,0.0,0.0,0.0,0.0,0.0,0.0,0.0,0.0,0.0,0.0,0.0,0.0,0.0,0.0,0.0,0.0,0.0,0.0,0.0,0.0,0.0,0.0,0.0,0.0,0.0,0.0,0.0,0.0,0.0,0.0,2.8926,0.0,0.0,0.0,0.0,0.0,0.0,0.0,0.0,0.0,0.0,0.0,0.0,0.0,0.0,0.0,0.0,0.0,0.0,0.0,0.0,0.0,0.0,0.0,0.0,0.0,0.0,0.0,0.0,0.0,0.0,0.0,0.0,0.0,0.0,0.0,0.0,0.0,0.0,2.3434,2.2684,2.2697,2.3411,2.3702,2.3569,2.3048,0.0,0.0,0.0,0.0,0.0,0.0,0.0,0.0,0.0,0.0,0.0,0.0,0.0,0.0,0.0,0.0,0.0,0.0,0.0,0.0,0.0,0.0,0.0,0.0,0.0,0.0,0.0,0.0,0.0,0.0,0.0,0.0,0.0,0.0,0.0,0.0,0.0,0.0,0.0,0.0,0.0,0.0,0.0,0.0,0.0,0.0,0.0,0.0,0.0,0.0,0.0,0.0,0.0,0.0,0.0,0.0,0.0,0.0,0.0,0.0,0.0,0.0,0.0,0.0,0.0,0.0,0.0,0.0,0.0,0.0,0.0,3.0644,0.0,0.0,0.0,0.0,0.0,0.0,0.0,0.0,0.0,0.0,0.0,0.0,0.0,0.0,0.0,0.0,0.0,0.0,0.0,0.0,0.0,0.0,0.0,2.2103,2.2755,2.4306,2.4382,2.4639,0.0,0.0,0.0,0.0,0.0,0.0,2.3984,2.349,2.392,2.5312,2.4477,2.4577,2.5581,2.6686,2.6362,2.4823,2.4575,0.0,0.0,0.0,0.0,0.0,0.0,0.0,0.0,0.0,0.0,0.0,0.0,0.0,0.0,0.0,0.0,0.0,0.0,0.0,0.0,0.0,0.0,0.0,0.0,0.0,0.0,0.0,0.0,0.0,0.0,0.0,0.0,0.0,0.0,0.0,0.0,0.0,0.0,0.0,0.0,0.0,0.0,0.0,0.0,0.0,0.0,0.0,0.0,0.0,0.0,0.0,0.0,0.0,0.0,0.0,0.0,0.0,0.0,0.0,0.0,0.0,0.0,0.0,3.9003,3.9336,3.9082,3.9941,3.9863,3.8867,3.5312,3.3965,3.4297,3.4141,0.0,0.0,0.0,0.0,0.0,0.0,0.0,0.0,0.0,0.0,0.0,0.0,0.0,0.0,0.0,0.0,0.0,0.0,0.0,0.0,2.2999,2.3107,2.3825,2.5607,2.5997,2.6204,2.631,0.0,0.0,0.0,0.0,0.0,2.4681,2.4584,2.4964,2.5814,2.7755,2.8797,2.8983,2.9934,2.9893,2.8918,2.6782,2.591,2.5942,0.0,0.0,0.0,0.0,0.0,0.0,0.0,0.0,0.0,0.0,0.0,0.0,0.0,0.0,0.0,0.0,0.0,0.0,0.0,0.0,0.0,0.0,0.0,0.0,0.0,0.0,0.0,0.0,0.0,0.0,0.0,0.0,0.0,0.0,0.0,0.0,0.0,0.0,0.0,0.0,0.0,3.0209,3.1229,0.0,0.0,0.0,0.0,0.0,0.0,0.0,0.0,0.0,0.0,0.0,0.0,0.0,3.7741,3.9109,4.0057,4.0566,4.0703,4.2285,4.2266,4.0879,4.1699,4.1621,4.082,4.0254,0.0,3.7851,3.7109,0.0,0.0,0.0,0.0,0.0,0.0,0.0,0.0,0.0,0.0,0.0,0.0,0.0,0.0,0.0,0.0,0.0,0.0,0.0,0.0,0.0,2.4518,2.5415,2.7049,2.8066,2.8323,2.7607,2.8207,0.0,0.0,0.0,2.6473,2.6656,2.6576,2.7215,2.8603,3.1698,3.2853,3.2203,3.2799,3.289,3.2484,3.106,2.9235,2.7197,2.7248,0.0,0.0,0.0,0.0,0.0,0.0,0.0,0.0,0.0,0.0,0.0,0.0,0.0,0.0,0.0,0.0,0.0,0.0,0.0,0.0,0.0,0.0,0.0,0.0,0.0,0.0,0.0,0.0,0.0,0.0,0.0,0.0,0.0,0.0,0.0,0.0,0.0,0.0,0.0,3.2467,3.3964,3.3958,3.4389,3.4284,0.0,0.0,0.0,0.0,0.0,0.0,0.0,0.0,0.0,3.9258,3.9747,4.0346,4.1089,4.1997,4.2676,4.3184,4.3907,4.4141,4.397,4.4322,4.433,4.4062,4.4062,4.3359,4.2051,4.0234,3.9492,3.9453,0.0,0.0,0.0,0.0,3.955,3.959,0.0,0.0,0.0,0.0,0.0,0.0,0.0,0.0,0.0,0.0,0.0,0.0,2.5488,2.624,2.7291,2.8989,3.0055,3.0226,2.9207,2.964,2.9456,2.8408,2.7837,2.7907,2.8698,2.9276,3.0467,3.2297,3.5553,3.6682,3.5815,3.6233,3.6299,3.6042,3.5237,3.2864,2.9486,2.9594,2.8656,2.7088,0.0,0.0,0.0,0.0,0.0,0.0,0.0,0.0,0.0,0.0,0.0,0.0,0.0,0.0,0.0,0.0,0.0,0.0,0.0,0.0,0.0,0.0,0.0,0.0,0.0,0.0,0.0,0.0,0.0,0.0,0.0,0.0,0.0,0.0,0.0,0.0,0.0,3.5358,3.6697,3.6096,3.6999,3.6977,0.0,0.0,0.0,0.0,0.0,0.0,3.9644,4.0715,4.167,4.2493,4.3091,4.3516,4.373,4.4379,4.5025,4.5674,4.5674,4.6031,4.6723,4.6744,4.6694,4.6598,4.6855,4.6465,4.5469,4.2891,4.1973,4.2148,4.1933,4.2246,4.2871,4.3262,4.3164,4.3047,0.0,0.0,0.0,0.0,0.0,0.0,0.0,0.0,0.0,0.0,0.0,2.4981,2.7735,2.835,2.9458,3.1704,3.1726,3.1488,3.1172,3.095,3.0643,3.0188,2.9417,2.9438,3.035,3.2816,3.4893,3.6596,3.9058,4.0231,4.0204,4.08,4.063,3.9776,3.8404,3.6302,3.3667,3.1861,3.0677,2.9816,2.7809,0.0,0.0,0.0,0.0,0.0,0.0,0.0,0.0,0.0,0.0,0.0,0.0,0.0,0.0,0.0,0.0,0.0,0.0,0.0,0.0,0.0,0.0,0.0,0.0,0.0,0.0,0.0,0.0,0.0,0.0,0.0,0.0,0.0,0.0,0.0,0.0,0.0,0.0,3.6947,3.8434,0.0,0.0,0.0,0.0,3.9443,4.1718,4.3149,4.3247,4.4733,4.5988,4.6851,4.6922,4.7347,4.8171,4.821,4.8271,4.831,4.831,4.8331,4.8382,4.8509,4.8116,4.7398,4.8355,4.8262,4.7266,4.4648,4.4062,4.4726,4.3906,4.5098,4.7187,4.6387,4.6601,4.7051,0.0,0.0,0.0,0.0,0.0,0.0,0.0,0.0,2.3587,2.3931,2.5873,2.7818,2.9382,3.1012,3.2506,3.378,3.4714,3.4832,3.3882,3.3556,3.3216,3.2765,3.2031,3.2718,3.5073,3.6715,3.8294,3.9808,4.1384,4.2166,4.2181,4.2178,4.2009,4.1674,4.0729,3.9807,3.8726,3.5745,3.3344,3.148,3.0717,2.9015,0.0,0.0,0.0,0.0,0.0,0.0,0.0,0.0,0.0,0.0,0.0,0.0,0.0,0.0,0.0,0.0,0.0,0.0,0.0,0.0,0.0,0.0,0.0,0.0,0.0,0.0,0.0,0.0,0.0,0.0,0.0,0.0,0.0,0.0,0.0,0.0,0.0,4.1259,4.2827,0.0,4.1473,4.1812,4.2382,4.2945,4.478,4.6138,4.6686,4.8205,4.9201,4.9514,4.8925,4.8767,4.9084,4.8524,4.8234,4.8234,4.8234,4.8297,4.8373,4.8511,4.8441,4.8255,4.8707,4.8711,4.8359,4.7422,4.7226,4.748,4.7168,4.7617,4.8398,4.8086,4.8164,4.8359,0.0,0.0,0.0,0.0,0.0,0.0,0.0,0.0,2.4436,2.5057,2.7531,2.9872,3.1535,3.3468,3.4991,3.5836,3.653,3.6564,3.5749,3.4924,3.4431,3.4413,3.4331,3.5397,3.7753,3.9544,4.1043,4.2234,4.3394,4.3936,4.3932,4.3713,4.3599,4.3584,4.2746,4.2384,4.2195,3.9437,3.6625,3.4031,3.3668,3.2085,2.977,0.0,0.0,0.0,0.0,0.0,0.0,0.0,0.0,0.0,0.0,0.0,0.0,0.0,0.0,0.0,0.0,0.0,0.0,0.0,0.0,0.0,0.0,0.0,0.0,0.0,0.0,0.0,0.0,0.0,0.0,0.0,0.0,0.0,0.0,0.0,4.451,4.4511,4.6541,4.7284,4.5546,4.5772,4.627,4.6852,4.81,4.9105,4.9674,5.0917,5.161,5.161,5.1014,5.0683,5.0683,5.0106,4.9678,4.937,4.9419,4.9361,4.9181,4.9644,4.9595,4.9192,5.0191,5.0293,4.9785,5.0371,5.0625,5.0566,4.9961,5.0098,5.0625,5.0625,5.0625,5.0547,0.0,0.0,0.0,0.0,0.0,0.0,2.3206,2.3915,2.5033,2.6612,2.8573,3.1028,3.4208,3.5645,3.68,3.7863,3.6968,3.6445,3.6719,3.4918,3.4211,3.5099,3.6278,3.7312,3.8209,4.119,4.3147,4.3958,4.5068,4.5594,4.5594,4.5594,4.5594,4.5543,4.4455,4.3961,4.3908,4.2729,4.0487,3.7614,3.6486,3.5097,3.3532,0.0,0.0,0.0,0.0,0.0,0.0,0.0,0.0,0.0,0.0,0.0,0.0,0.0,0.0,0.0,0.0,0.0,0.0,0.0,0.0,0.0,0.0,0.0,0.0,0.0,0.0,0.0,0.0,0.0,0.0,0.0,0.0,0.0,4.1408,4.4189,4.6422,4.6484,4.9311,5.0638,4.9015,5.019,5.1067,5.1067,5.1763,5.2163,5.2163,5.2877,5.3274,5.3274,5.3255,5.3236,5.3236,5.3227,5.279,5.1943,5.2073,5.1748,5.103,5.2066,5.1652,5.0268,5.2867,5.3047,5.1601,5.3301,5.4023,5.3867,5.2148,5.2519,5.4004,5.4004,5.4004,5.375,0.0,0.0,0.0,0.0,0.0,0.0,2.3409,2.4716,2.6117,2.7236,3.0397,3.3357,3.5561,3.7132,3.8386,3.9264,3.8012,3.7202,3.729,3.5644,3.5689,3.7956,3.8919,4.0584,4.3096,4.343,4.4077,4.5121,4.5448,4.5594,4.5594,4.5594,4.5594,4.5601,4.5621,4.5633,4.5598,4.5035,4.3955,4.2412,3.974,3.7828,3.6449,0.0,0.0,0.0,0.0,0.0,0.0,0.0,0.0,0.0,0.0,0.0,0.0,0.0,0.0,0.0,0.0,0.0,0.0,0.0,0.0,0.0,0.0,0.0,0.0,0.0,0.0,0.0,0.0,0.0,0.0,0.0,0.0,4.5131,4.4748,4.7129,4.9387,5.0652,5.2067,5.276,5.2309,5.2553,5.2745,5.2745,5.343,5.3836,5.3836,5.4585,5.5011,5.5011,5.4453,5.4145,5.4145,5.3607,5.3214,5.2987,5.313,5.3072,5.2866,5.3251,5.3196,5.2808,5.3648,5.373,5.332,5.3808,5.4375,5.4824,5.3711,5.3574,5.4004,5.4004,5.4004,5.3848,0.0,0.0,0.0,0.0,0.0,0.0,2.3785,2.5254,2.6798,2.8034,3.1393,3.4348,3.6112,3.7448,3.8384,3.8843,3.7724,3.6997,3.6997,3.6528,3.7146,3.9103,4.0597,4.2378,4.4559,4.4612,4.4949,4.5594,4.5594,4.5594,4.5614,4.5975,4.6144,4.6178,4.6781,4.704,4.703,4.6843,4.6494,4.5907,4.3996,4.1946,3.9918,3.8777,3.7984,3.7337,3.6159,3.5659,3.5478,3.4987,0.0,0.0,0.0,0.0,0.0,0.0,0.0,0.0,0.0,0.0,0.0,0.0,0.0,0.0,0.0,0.0,0.0,0.0,0.0,0.0,0.0,0.0,0.0,0.0,4.6366,4.829,4.9047,5.0488,5.1953,5.3342,5.413,5.456,5.456,5.4432,5.4359,5.4359,5.4751,5.4991,5.4991,5.5458,5.5862,5.6228,5.5785,5.5568,5.562,5.5204,5.4679,5.4029,5.4156,5.4038,5.3695,5.4202,5.4223,5.3931,5.4745,5.4883,5.457,5.4941,5.539,0.0,0.0,0.0,0.0,0.0,5.4863,5.4473,0.0,0.0,0.0,0.0,0.0,0.0,2.4308,2.5621,2.7249,2.9042,3.191,3.4468,3.6229,3.7063,3.7492,3.7492,3.6751,3.635,3.6492,3.7515,3.8564,3.9557,4.1689,4.3228,4.4065,4.5073,4.5594,4.5594,4.5594,4.5648,4.5763,4.6547,4.6947,4.7062,4.787,4.8255,4.8255,4.8255,4.8255,4.8235,4.8139,4.6371,4.3636,4.2197,4.185,4.188,4.0093,3.8761,3.7816,3.7515,0.0,0.0,0.0,0.0,0.0,0.0,0.0,0.0,0.0,0.0,0.0,0.0,0.0,0.0,0.0,0.0,0.0,0.0,0.0,0.0,0.0,0.0,0.0,0.0,4.961,5.1777,5.3309,5.3705,5.4127,5.4911,5.5519,5.5883,5.5883,5.5769,5.5708,5.5708,5.5785,5.5805,5.5708,0.0,0.0,0.0,0.0,5.7197,5.7211,5.7254,5.6521,5.5076,5.5215,5.4861,5.4146,5.5036,5.5019,5.4375,5.5937,5.6152,5.5508,5.6289,5.6601,5.6523,5.5742,5.5918,5.6601,5.6601,5.6113,5.543,0.0,0.0,0.0,0.0,0.0,0.0,2.5057,2.597,2.7635,3.0564,3.2614,3.4695,3.7015,3.7419,3.7492,3.7492,3.6751,3.6698,3.7612,3.848,3.9889,4.1928,4.308,4.4177,4.5259,4.5496,4.5594,4.5594,4.5594,4.5956,4.6639,4.6812,4.7255,4.7908,4.8779,4.9144,4.9144,4.9144,4.9144,4.9086,4.8375,4.7566,4.6723,4.643,4.5372,4.4001,4.3623,4.2555,4.132,4.1251,4.0279,3.8977,3.8356,3.677,0.0,0.0,0.0,0.0,0.0,0.0,0.0,0.0,0.0,0.0,0.0,0.0,0.0,0.0,0.0,0.0,0.0,0.0,0.0,4.8847,5.1178,5.3133,5.4135,5.4863,5.5406,5.5665,5.5724,5.5748,5.5748,5.5721,5.5708,5.5708,5.6343,5.6439,5.5747,5.703,5.7599,5.7166,5.7848,5.7932,5.738,5.7526,5.7092,5.6116,0.0,0.0,5.6072,5.6269,5.6269,5.6113,5.6445,5.6504,5.6367,5.6523,5.6601,5.6582,5.6406,5.6445,5.6601,5.6601,5.6484,5.625,0.0,0.0,0.0,0.0,0.0,0.0,2.5288,2.608,2.7616,3.043,3.2204,3.3818,3.5466,3.5649,3.5484,3.5073,3.5055,3.6058,3.8443,3.9521,4.1017,4.3217,4.4221,4.5021,4.559,4.6033,4.624,4.624,4.6644,4.7067,4.7524,4.8394,4.9009,4.9452,5.0721,5.1298,5.1298,5.1298,5.1298,5.126,5.0832,5.055,5.021,4.8499,4.7233,4.6333,4.6152,4.5603,4.4929,4.4757,4.3576,4.2057,4.1555,4.003,3.8306,0.0,0.0,0.0,0.0,0.0,0.0,0.0,0.0,0.0,0.0,0.0,0.0,0.0,0.0,4.5208,0.0,0.0,5.0124,5.1877,5.3117,5.4145,5.4972,5.5458,5.5717,5.5789,5.5734,5.5708,5.5708,5.5708,5.5708,5.5708,5.6093,5.6388,5.6449,5.7284,5.8017,5.8586,5.902,5.9117,5.8802,5.8908,5.8554,5.7799,5.787,5.789,5.789,5.7441,5.7246,5.7226,5.6797,5.6601,5.6601,5.6601,5.6601,5.6601,5.6601,5.6601,5.6601,5.6601,5.6601,5.6543,0.0,0.0,0.0,0.0,0.0,0.0,0.0,2.6172,2.7525,3.0099,3.1561,3.2662,3.3476,3.3568,3.336,3.2883,3.3715,3.5778,3.9288,4.0684,4.2217,4.4157,4.527,4.584,4.584,4.6682,4.7139,4.7139,4.7947,4.8432,4.8644,5.0202,5.1015,5.1246,5.2606,5.3197,5.3197,5.3197,5.3197,5.3197,5.3197,5.3197,5.289,5.0139,4.8986,4.8789,4.8361,4.7946,4.755,4.7296,4.5951,4.4419,4.4384,4.3188,4.1619,4.0627,4.1041,0.0,0.0,0.0,0.0,0.0,0.0,0.0,0.0,0.0,4.4417,4.5883,4.7411,4.9039,5.0889,5.1952,5.3028,5.4424,5.4699,5.4974,5.5642,5.5748,5.5749,5.5779,5.5759,5.5749,5.5784,5.5808,5.5808,5.5808,5.5943,5.6384,5.7191,5.7567,5.8453,5.9995,6.0195,6.0268,6.0233,6.0234,5.9885,5.9199,5.9199,5.9199,5.918,5.8476,5.8066,5.7851,5.6973,5.6601,5.6601,5.6601,5.6601,5.6621,5.6797,5.6855,5.6836,5.666,5.6601,5.6601,0.0,0.0,0.0,0.0,0.0,0.0,0.0,0.0,2.7726,3.0858,3.1409,3.1843,3.2644,3.2736,3.2993,3.3605,3.511,3.7361,4.0499,4.2164,4.3736,4.5349,4.6265,4.6755,4.6755,4.7543,4.7966,4.7966,4.8836,4.9649,5.0438,5.1332,5.2178,5.2933,5.3121,5.3197,5.3197,5.3197,5.3197,5.3197,5.3197,5.3197,5.3159,5.2774,5.2159,5.1385,5.062,4.9161,4.7585,4.755,4.6676,4.5735,4.6489,4.5453,4.3962,4.3995,4.3003,4.1912,4.1991,4.2304,4.3346,4.6432,4.6303,4.6582,0.0,0.0,5.0378,5.1278,5.2129,5.2563,5.2078,5.3216,5.4302,5.4494,5.5109,5.5638,5.5853,5.5883,5.5936,5.6125,5.6001,5.5959,5.6128,5.6143,5.6143,5.6143,5.6818,5.7258,5.7362,5.8848,5.9832,6.0166,6.0927,6.1019,6.037,6.037,5.998,5.9199,5.9199,5.9199,5.9199,5.9101,5.8633,5.7851,5.6973,5.6601,5.6601,5.6601,5.6601,5.668,5.7441,5.7754,5.7656,5.6894,5.6601,5.6601,0.0,0.0,0.0,0.0,0.0,0.0,0.0,0.0,0.0,2.9004,2.9298,2.9604,3.0418,3.0509,3.106,3.2459,3.4388,3.692,4.0163,4.2211,4.4216,4.6279,4.6716,4.712,4.7582,4.8413,4.8856,4.8856,5.0197,5.1043,5.1433,5.2779,5.3606,5.3972,5.4453,5.4645,5.4645,5.4645,5.4645,5.4645,5.4645,5.4645,5.4607,5.4126,5.3337,5.2316,5.0998,4.9342,0.0,4.7761,4.6648,4.5369,4.634,4.5437,4.4101,4.4575,4.4395,4.4206,4.4899,4.5898,4.7007,0.0,4.8842,5.0019,5.2273,5.266,5.2903,5.4145,5.5037,5.5625,5.5697,5.5848,5.5973,0.0,5.5932,5.604,5.6676,5.6366,5.6133,5.6305,5.6236,5.6371,5.6842,5.6897,5.6897,5.6897,5.7209,5.7654,5.8231,5.8519,5.9402,6.1025,6.0927,6.0952,6.1152,6.1152,6.0996,6.0644,6.0644,6.0644,6.0644,6.0137,5.918,5.7851,5.6973,5.6601,5.6601,5.6601,5.6601,5.664,5.6992,5.7148,5.7168,5.7305,5.7363,5.7285,0.0,0.0,0.0,0.0,0.0,0.0,0.0,0.0,0.0,0.0,2.7475,2.7695,2.8271,2.8546,2.9294,3.0813,3.3511,3.6398,3.9387,4.2007,4.4467,4.6794,4.7101,4.762,4.8432,4.9317,4.9764,4.9764,5.1447,5.2255,5.2294,5.403,5.4818,5.4857,5.5439,5.5708,5.5708,5.5708,5.5708,5.5708,5.5708,5.5574,5.528,5.4391,5.3152,5.1729,5.0503,4.895,4.7381,4.695,4.5783,4.4659,4.5442,4.4818,4.3953,4.4782,4.5314,4.5839,4.6769,4.8128,0.0,4.9121,5.0816,5.2631,5.31,5.3932,5.4973,5.6291,5.7086,5.7656,5.7943,5.7521,5.7068,5.6947,5.6392,5.6249,5.7014,5.6619,5.6211,5.6117,5.6104,5.638,5.7104,5.7174,5.7274,5.7527,5.7313,5.7714,5.8916,5.8194,5.8971,6.1621,6.0859,6.082,6.1699,6.1699,6.1699,6.1699,6.1699,6.1699,6.166,6.0566,5.9277,5.7851,5.6973,5.6601,5.6601,5.6601,5.6738,5.6953,5.6953,5.7246,5.7695,5.8105,5.7949,5.7441,0.0,0.0,0.0,0.0,0.0,0.0,0.0,0.0,0.0,0.0,0.0,0.0,0.0,2.7365,2.8172,2.9011,3.3017,3.6359,3.8409,4.1836,4.473,4.6803,4.7658,4.8471,4.9336,5.0207,5.0649,5.0649,5.2337,5.3159,5.3197,5.4876,5.567,5.567,5.5689,5.5708,5.5708,5.5708,5.5708,5.5708,5.5708,5.5228,5.4418,5.3349,5.1428,4.9302,4.9245,4.7993,4.6106,4.4546,4.3945,4.386,4.4092,4.4003,4.4034,4.5231,4.5677,4.5965,4.6779,4.7747,4.8901,5.044,5.2193,5.3941,5.5448,5.6458,5.7312,5.8077,5.8361,5.8213,5.7398,5.7317,5.7123,5.6361,5.6206,5.6252,5.6415,5.6405,5.6138,5.5429,5.5332,5.5664,0.0,5.6621,5.6972,5.7812,5.7109,5.7383,5.9101,5.8379,5.9062,6.1621,6.0859,6.082,6.1699,6.1699,6.1699,6.1699,6.1699,6.1699,6.164,5.998,5.875,5.7851,5.6973,5.6601,5.6601,5.6601,5.7109,5.7851,5.7851,5.8848,6.0195,5.9433,5.8086,5.664,0.0,0.0,0.0,0.0,0.0,0.0,0.0,0.0,0.0,0.0,0.0,0.0,0.0,0.0,0.0,0.0,3.2687,3.5324,3.7551,4.0812,4.3651,4.5808,4.6805,4.7966,4.9375,4.9687,5.0111,5.0707,5.1798,5.2332,5.239,5.4107,5.4895,5.4934,5.5458,5.5708,5.5708,5.5708,5.5708,5.5651,5.5131,5.4663,5.4077,5.2014,4.97,4.7279,0.0,4.3861,4.2773,4.2217,4.1642,4.1383,4.2804,4.2819,4.2556,4.3678,4.5291,4.6915,4.7767,4.8996,5.0428,5.2139,5.3379,5.4798,5.7103,5.7845,5.833,5.9243,5.8966,5.8304,5.742,5.6862,5.6474,5.6302,5.6309,5.6575,5.7295,5.6908,5.6227,5.539,5.5801,0.0,0.0,0.0,0.0,5.8652,5.7969,5.7969,5.914,5.7832,5.8203,6.0762,6.0039,6.0273,6.1699,6.1699,6.1699,6.1699,6.1699,6.1406,6.0801,5.9707,5.8711,5.7851,5.6973,5.6933,5.7461,5.7461,5.7988,5.8769,5.8769,5.9101,5.957,5.9297,5.8828,5.8242,0.0,0.0,0.0,0.0,0.0,0.0,0.0,0.0,0.0,0.0,0.0,0.0,0.0,0.0,0.0,0.0,0.0,3.4017,3.6136,3.8829,4.1536,4.4201,4.4627,4.56,4.7336,4.7028,4.7409,4.8567,4.9365,5.0112,5.0853,5.2264,5.3157,5.3587,5.4107,5.4684,5.5222,5.4559,5.4436,5.4559,5.3042,5.2154,5.152,4.9147,4.6916,0.0,4.2146,4.0744,4.0005,3.9433,3.9303,3.9616,4.0945,4.1954,4.283,4.3862,4.5822,4.791,4.9016,5.0508,5.2055,5.3449,5.4366,5.5555,5.7957,5.8256,5.8327,5.9335,5.8572,5.7388,5.6225,5.5379,5.4886,5.4961,5.5036,5.5503,5.6757,5.6443,5.5897,5.5351,5.5781,5.5918,0.0,0.0,0.0,5.8594,5.793,5.7812,5.8691,5.7383,5.7637,5.9902,5.9473,5.9863,6.1211,6.1543,6.1699,6.1699,6.1387,6.0781,5.9941,5.9101,5.8437,5.7871,5.7305,5.7558,5.8359,5.8359,5.8867,5.9609,5.9316,5.957,6.0058,5.9746,5.9824,5.9922,0.0,0.0,0.0,0.0,0.0,0.0,0.0,0.0,0.0,0.0,0.0,0.0,0.0,0.0,0.0,0.0,0.0,0.0,3.4154,3.605,3.8628,4.1982,4.1364,4.1749,4.351,4.2682,4.3015,4.4613,4.5395,4.6764,4.8681,4.9488,5.0474,5.1545,5.1603,5.2536,5.3982,5.2209,5.1892,5.2366,4.9657,4.8061,4.7094,4.5091,4.3373,4.1801,3.9969,3.8896,3.8125,3.6603,3.7305,3.8852,3.9033,4.1609,4.4752,4.5751,4.7265,4.8959,5.051,5.2179,5.363,5.4375,5.5142,5.6192,5.8033,5.7776,5.7412,5.8331,5.7171,5.5486,0.0,0.0,5.253,5.2594,5.2722,5.3404,5.5045,5.5279,5.5304,0.0,0.0,0.0,0.0,0.0,0.0,5.7832,0.0,5.6992,5.793,5.7109,5.7383,5.9082,5.9121,5.9531,6.039,6.1269,6.168,6.1621,6.0801,6.0,5.9238,5.832,5.789,5.789,5.789,5.8398,5.9199,5.9238,5.9746,6.039,5.9629,6.0293,6.1601,6.0762,6.0996,6.1465,0.0,0.0,0.0,0.0,0.0,0.0,0.0,0.0,0.0,0.0,0.0,0.0,0.0,0.0,0.0,0.0,0.0,0.0,3.2233,3.464,3.6716,3.8316,3.9449,4.0454,4.1379,4.1341,4.2048,4.3504,4.3907,4.455,4.5424,4.6275,4.6733,4.6862,4.7506,4.8161,4.8724,4.8248,4.8275,4.8523,4.715,4.639,4.5863,4.4103,4.2592,4.1245,3.9817,3.915,3.8952,3.8848,4.0181,4.2017,4.2799,4.4193,4.5845,4.7382,4.8973,5.0575,5.2282,5.3466,5.4409,5.52,5.5625,5.617,5.7405,5.7043,5.6362,5.6074,5.4447,5.2599,0.0,0.0,0.0,5.2467,5.3753,0.0,5.6093,5.6249,0.0,5.6269,0.0,5.7246,5.7246,5.7246,0.0,0.0,5.7461,5.7265,5.8789,5.7422,5.7109,5.8203,5.8223,5.8926,6.039,6.1269,6.1367,6.0723,6.0508,6.0293,6.0039,5.8574,5.789,5.789,5.789,5.8398,5.9258,5.9844,6.0605,6.1348,6.1133,6.1328,6.168,6.1445,6.1504,6.164,0.0,0.0,0.0,0.0,0.0,0.0,0.0,0.0,0.0,0.0,0.0,0.0,0.0,0.0,0.0,0.0,0.0,0.0,0.0,3.2432,3.4041,3.5366,3.632,3.6996,3.7436,3.7846,3.8451,3.9272,4.0111,4.0919,4.1714,4.2208,4.2613,4.2976,4.3465,4.4186,4.5,4.4168,4.4386,0.0,0.0,4.2948,4.3177,4.1777,4.1128,4.0848,4.0127,4.0747,4.1925,4.2302,4.2979,4.3977,4.5777,4.6939,4.7949,4.9665,5.101,5.2224,5.3522,5.4434,5.5158,5.5659,5.5846,5.5976,5.6233,5.5662,5.4705,5.3477,5.1708,5.0012,4.8785,4.8961,0.0,0.0,0.0,0.0,5.5759,5.5993,5.6287,0.0,5.7265,0.0,5.8398,5.8125,5.8418,0.0,5.8144,5.7598,5.8574,5.7695,5.7226,5.7324,5.7695,5.8535,5.9863,6.0703,6.0703,5.9863,5.9863,5.9863,5.9824,5.8105,5.7694,5.8349,0.0,5.8807,5.9626,6.0443,6.1087,6.1516,6.1516,6.1516,6.152,6.1584,6.161,6.1573,0.0,0.0,0.0,0.0,0.0,0.0,0.0,0.0,0.0,0.0,0.0,0.0,0.0,0.0,0.0,0.0,0.0,0.0,0.0,0.0,3.1272,3.2973,3.2966,3.299,3.3165,3.3697,3.3997,3.4021,3.5397,3.6653,3.7735,3.7735,3.8302,3.9314,3.9303,4.0237,4.1672,4.0041,4.0322,4.1682,3.9329,3.9065,3.9957,0.0,3.9604,4.0644,4.0931,4.2799,4.5266,4.6079,4.586,4.5685,4.8251,4.9542,5.0451,5.215,5.2989,5.3535,5.4298,5.4941,5.5451,5.5681,5.5668,5.5444,5.4867,5.3965,5.2714,5.083,4.9159,4.7782,4.6923,4.696,4.7772,4.9809,0.0,5.2465,5.5027,5.5496,5.6146,5.7715,5.7324,5.7578,5.9199,5.8574,5.8769,6.0449,5.9023,5.8066,5.8066,5.7969,5.75,5.6621,5.7421,5.8183,5.8827,5.9724,5.9762,5.8961,5.8961,5.902,5.9078,5.734,5.7404,5.8876,5.8871,0.0,6.0072,6.0939,6.1306,6.1306,6.1306,6.1306,6.1323,6.1451,6.1504,6.1416,0.0,0.0,0.0,0.0,0.0,0.0,0.0,0.0,0.0,0.0,2.6368,2.6846,0.0,0.0,0.0,0.0,0.0,0.0,0.0,0.0,0.0,3.1113,3.1669,3.1921,3.191,3.2178,3.224,3.2087,3.2583,3.3152,3.3779,3.3779,3.411,3.4655,3.4663,3.5315,3.6413,3.6085,3.6397,3.7107,3.7288,3.7682,3.8226,3.8714,0.0,0.0,4.2678,4.3752,4.482,4.8095,4.9132,4.9267,5.0538,5.1363,5.2206,5.3933,5.3877,5.3426,5.4271,5.4164,5.3974,5.4719,5.4441,5.3969,5.3845,5.2555,0.0,0.0,4.7538,4.643,4.5717,4.6198,4.7609,5.0383,5.174,5.3389,0.0,0.0,5.7558,0.0,0.0,0.0,0.0,0.0,0.0,0.0,0.0,5.8965,5.8965,5.8281,5.75,5.6621,5.7347,5.7463,5.6895,5.8281,5.8551,5.7711,5.7711,5.8081,5.8728,5.7044,5.7164,5.8722,5.8719,0.0,6.0074,6.0933,6.1306,6.1306,6.1306,6.1306,6.1323,6.1451,6.1504,6.1494,0.0,0.0,0.0,0.0,0.0,0.0,0.0,2.5786,2.6738,2.874,2.9009,2.8925,2.8767,2.9343,2.9701,0.0,0.0,0.0,0.0,0.0,0.0,2.9744,3.0475,3.0661,3.0207,3.1085,3.1101,3.0185,0.0,3.1517,3.1397,3.1786,3.2092,3.2309,3.2739,3.3213,3.3687,3.3687,3.4156,3.4922,3.5748,3.6566,3.7433,3.8424,0.0,0.0,4.3682,4.4849,4.57,4.7714,4.943,5.1036,5.285,5.3276,5.3339,5.4625,5.4527,5.3992,5.401,5.4053,5.4086,5.4119,5.3855,5.3221,5.185,0.0,0.0,4.7031,4.6071,4.5574,4.5213,4.5937,0.0,4.9301,5.0525,5.214,0.0,0.0,0.0,0.0,0.0,0.0,0.0,0.0,0.0,0.0,0.0,6.0004,5.9087,5.7755,5.6818,5.6407,5.6739,5.6712,5.6301,5.7439,5.7603,5.6781,5.7192,5.7623,5.7976,5.6761,5.7086,5.8595,5.8607,0.0,5.9809,6.0689,6.1037,6.1037,6.1037,6.1037,6.1068,6.1198,6.1241,6.1265,0.0,0.0,0.0,0.0,0.0,0.0,0.0,2.6901,2.8192,3.1218,3.1843,3.1638,3.061,3.07,3.0706,0.0,0.0,0.0,0.0,0.0,0.0,0.0,0.0,0.0,2.8912,0.0,0.0,2.8895,3.0282,0.0,0.0,0.0,0.0,0.0,3.1861,3.223,3.2406,3.2406,3.2982,0.0,0.0,3.5845,0.0,0.0,0.0,0.0,0.0,4.5477,4.6334,4.6987,4.8769,5.1144,5.3553,5.4061,5.3881,5.4388,5.4365,5.4031,5.3483,5.3639,5.388,5.366,5.3183,5.2255,5.0264,4.9254,0.0,4.5553,4.5045,4.5014,4.4928,4.5642,4.6683,0.0,4.9114,5.0735,5.3551,0.0,0.0,0.0,0.0,0.0,0.0,0.0,0.0,0.0,0.0,0.0,5.8923,5.7169,5.6194,5.6194,5.6161,5.6143,5.6143,5.6738,5.6719,5.6091,5.6738,5.7033,5.7013,5.6579,5.702,5.8206,5.8556,0.0,0.0,6.0441,6.0806,6.0806,6.0806,6.0806,6.0821,6.0949,6.1001,6.1031,0.0,0.0,0.0,0.0,0.0,0.0,0.0,2.7849,2.9636,3.2002,3.368,3.4335,3.3506,3.2167,3.1007,0.0,0.0,0.0,0.0,0.0,0.0,0.0,0.0,0.0,0.0,0.0,0.0,2.8895,2.9765,0.0,0.0,0.0,0.0,0.0,0.0,3.1729,3.2406,3.2406,0.0,0.0,0.0,0.0,0.0,0.0,0.0,0.0,0.0,4.4963,4.5336,4.7199,4.8121,4.881,5.0576,5.231,5.358,5.2933,0.0,0.0,5.2422,5.1976,5.1867,5.3241,5.1857,5.0213,5.0453,0.0,4.6472,4.5122,4.4821,4.4783,4.4653,4.487,4.5693,4.7625,4.8894,5.059,5.3429,0.0,0.0,0.0,0.0,0.0,0.0,0.0,0.0,0.0,0.0,0.0,5.8718,5.7117,5.6194,5.6194,5.6024,5.5928,5.5928,5.588,5.5825,5.5743,5.5825,5.5864,5.5883,5.6596,5.7004,5.7214,5.8748,0.0,0.0,6.0441,6.0806,6.0806,6.0806,6.0806,6.0821,6.0949,6.1001,6.1031,0.0,0.0,0.0,0.0,0.0,0.0,2.6998,2.786,2.9654,3.3474,3.45,3.5051,3.5507,3.4362,3.2955,3.1444,0.0,0.0,0.0,0.0,0.0,0.0,0.0,0.0,0.0,0.0,3.0036,3.0282,3.0598,0.0,0.0,0.0,0.0,0.0,0.0,3.209,3.2406,3.2406,0.0,0.0,0.0,0.0,0.0,0.0,0.0,0.0,0.0,0.0,4.4064,4.531,4.6407,4.7268,4.7408,4.8722,5.0404,5.1375,5.1639,5.1621,5.1723,5.1816,5.1893,5.2064,5.0792,4.9404,4.9052,0.0,4.5972,4.4997,4.4712,4.4612,4.4599,4.4758,4.5213,4.6186,4.6823,4.8005,5.0332,0.0,0.0,0.0,0.0,0.0,0.0,0.0,0.0,0.0,0.0,0.0,5.7699,5.6558,5.5896,5.5896,5.5822,5.5789,5.5789,5.5722,5.5708,5.5708,5.5708,5.5708,5.5708,5.6055,5.6497,5.7036,5.7709,0.0,0.0,5.9877,6.0319,6.0806,6.0806,6.0806,6.0818,6.0864,6.0887,6.0878,0.0,0.0,0.0,0.0,0.0,2.5021,2.7425,2.8196,2.9989,3.4105,3.4986,3.5533,3.6281,3.5422,3.4189,3.2669,3.1873,0.0,0.0,0.0,0.0,0.0,0.0,0.0,0.0,0.0,3.0649,3.1545,3.1774,3.2283,0.0,0.0,3.295,3.273,0.0,0.0,0.0,0.0,0.0,0.0,0.0,0.0,0.0,0.0,0.0,0.0,0.0,0.0,0.0,0.0,0.0,4.5446,4.4899,4.5644,4.7134,4.9265,5.0286,5.0759,5.091,5.1459,5.1879,5.149,5.0159,4.8812,0.0,0.0,4.5155,4.4788,4.4411,4.4221,4.452,4.4725,4.4961,4.5194,4.5637,4.6618,4.861,4.9094,0.0,0.0,0.0,0.0,0.0,0.0,0.0,0.0,0.0,0.0,5.7036,5.617,5.5708,5.5708,5.5708,5.5708,5.5708,5.5708,5.5708,5.5708,5.5708,5.5843,5.6074,5.6074,5.642,5.7003,5.7267,0.0,0.0,5.9396,6.0012,6.0806,6.0806,6.0806,6.0806,6.0806,6.0806,6.0806,0.0,0.0,0.0,0.0,0.0,0.0,2.7425,2.9145,3.1054,3.3495,3.5257,3.6109,3.5653,3.4833,3.4115,3.3634,3.2678,0.0,0.0,0.0,0.0,0.0,0.0,0.0,0.0,0.0,3.1581,3.2388,3.3125,3.3889,3.4679,3.4679,3.4258,3.3494,0.0,0.0,0.0,0.0,0.0,0.0,0.0,0.0,0.0,0.0,0.0,0.0,0.0,0.0,0.0,0.0,0.0,0.0,0.0,4.3653,4.4351,4.6431,4.8252,4.9659,4.9853,5.0548,5.1341,5.1949,5.0078,4.8259,0.0,4.6112,4.3706,4.4368,4.3876,4.3557,4.4357,4.4666,4.4864,4.508,4.5986,4.737,4.932,5.0381,0.0,0.0,0.0,0.0,0.0,0.0,0.0,0.0,0.0,0.0,5.7003,5.617,5.5708,5.5708,5.5708,5.5708,5.5708,5.5708,5.5708,5.5708,5.5708,5.6151,5.6983,5.6983,5.6983,0.0,0.0,0.0,0.0,5.916,6.0012,6.0806,6.0806,6.0806,6.0806,6.0806,6.0806,6.0806,0.0,0.0,0.0,0.0,0.0,0.0,0.0,2.7414,2.8992,3.2516,3.3433,3.422,3.5407,3.4785,3.4082,3.3591,3.2774,0.0,0.0,0.0,0.0,0.0,0.0,0.0,0.0,0.0,3.3036,3.3977,3.4714,3.5468,3.626,3.5706,3.5432,3.5367,3.4657,3.4341,0.0,0.0,0.0,0.0,0.0,0.0,0.0,0.0,0.0,0.0,0.0,0.0,0.0,0.0,0.0,0.0,0.0,0.0,0.0,4.4097,4.5979,4.7692,4.8399,4.8732,4.8921,4.911,4.7903,4.67,4.6764,4.4903,4.3221,4.343,4.3273,4.3222,4.3612,4.4417,4.5163,4.564,4.6355,4.7221,0.0,0.0,0.0,0.0,0.0,0.0,0.0,0.0,0.0,0.0,0.0,0.0,5.6132,5.6401,5.6324,5.5728,5.5708,5.5997,5.6574,5.5997,5.6299,5.7453,5.6261,5.6151,5.6983,5.6382,5.6112,0.0,0.0,0.0,0.0,5.769,5.8305,5.9088,5.9088,5.9435,5.9915,5.9915,6.0281,6.0806,0.0,0.0,0.0,0.0,0.0,0.0,0.0,2.7121,2.84,3.0913,3.2032,3.3138,3.4584,3.4485,3.425,3.412,3.36,0.0,0.0,0.0,0.0,0.0,0.0,0.0,3.2792,3.3141,3.4051,3.5575,3.6022,3.6812,3.7858,3.7364,3.6927,3.6526,3.588,3.5373,0.0,0.0,0.0,0.0,0.0,0.0,3.8554,0.0,0.0,0.0,0.0,0.0,0.0,0.0,0.0,0.0,0.0,0.0,0.0,0.0,4.3271,4.4982,4.6878,4.7593,4.7785,4.7739,4.6585,0.0,4.5363,4.362,4.2103,4.2413,4.227,4.2235,4.2662,4.37,4.4621,4.4991,4.5709,4.6612,0.0,0.0,0.0,0.0,0.0,0.0,0.0,0.0,0.0,0.0,0.0,0.0,5.6228,5.7016,5.7247,5.6703,5.6684,5.6786,5.7003,5.6786,5.7223,5.8294,5.7203,5.6973,5.7459,5.6593,5.6189,0.0,0.0,0.0,0.0,5.6997,5.7517,5.8294,5.8294,5.8607,5.9088,5.9396,5.9838,6.0358,0.0,0.0,0.0,0.0,0.0,0.0,0.0,2.7941,2.8968,2.9078,3.1066,3.2722,3.3328,3.3854,3.4399,3.4931,0.0,0.0,0.0,0.0,0.0,0.0,0.0,0.0,3.3477,3.3565,3.4679,3.6919,3.7015,3.7812,3.9224,3.9277,3.8525,3.7107,3.7087,3.6385,0.0,0.0,0.0,0.0,0.0,0.0,0.0,0.0,0.0,0.0,0.0,0.0,0.0,0.0,0.0,0.0,0.0,0.0,0.0,0.0,0.0,0.0,0.0,4.6699,4.7321,4.7192,4.5761,4.4388,4.4374,4.2293,0.0,4.1352,4.1013,4.0848,4.166,4.2729,4.3523,4.363,4.4519,4.5807,0.0,0.0,0.0,0.0,0.0,0.0,0.0,0.0,0.0,0.0,0.0,0.0,5.6907,5.7857,5.8338,5.8204,5.8377,5.803,5.7099,5.7896,5.8338,5.8377,5.8338,5.8338,5.8352,5.742,5.7003,0.0,0.0,0.0,0.0,5.692,5.7382,5.8127,5.8127,5.8179,5.8377,5.9069,5.9396,5.9608,0.0,0.0,0.0,0.0,0.0,0.0,0.0,0.0,0.0,0.0,3.0818,3.1672,3.2224,3.2754,3.3298,0.0,0.0,0.0,0.0,0.0,0.0,0.0,0.0,0.0,3.3477,3.41,3.4951,3.6083,3.7268,3.8041,3.8399,3.9013,3.8919,3.8203,3.7958,3.7677,0.0,0.0,0.0,0.0,0.0,0.0,0.0,0.0,0.0,0.0,3.7999,3.7918,0.0,0.0,0.0,0.0,0.0,0.0,0.0,0.0,4.0203,4.0715,4.231,0.0,4.3043,4.303,4.2651,4.2264,0.0,4.11,4.0241,4.0554,4.053,0.0,4.1774,4.2722,4.3754,4.498,4.5564,4.6295,0.0,0.0,0.0,0.0,0.0,0.0,0.0,0.0,0.0,0.0,0.0,5.6709,5.6035,5.805,5.8627,5.7343,5.9209,5.9492,5.8011,5.8198,5.8607,5.9204,5.8583,5.8627,5.9165,5.769,5.7003,0.0,0.0,0.0,5.6011,5.6016,5.6132,5.6299,5.6299,5.7126,5.8236,5.7767,5.8401,5.9435,0.0,0.0,0.0,0.0,0.0,0.0,0.0,0.0,0.0,0.0,0.0,0.0,0.0,0.0,0.0,0.0,0.0,0.0,0.0,0.0,0.0,0.0,0.0,3.3643,3.403,3.4811,3.5925,3.7416,3.8241,3.9013,3.9726,4.0154,4.0039,3.9439,3.8903,3.8645,0.0,0.0,0.0,0.0,4.13,0.0,0.0,0.0,0.0,0.0,3.8232,3.8103,0.0,3.9276,3.9343,3.9096,0.0,0.0,0.0,0.0,3.9261,3.9417,4.0085,4.1186,4.2151,4.2151,4.1794,4.1456,4.1433,4.0455,3.9597,3.9723,3.9826,0.0,0.0,4.2164,4.3208,4.4276,4.5271,0.0,0.0,0.0,0.0,0.0,0.0,0.0,0.0,0.0,0.0,0.0,0.0,5.7396,5.6915,5.8934,5.9685,5.8767,6.0075,5.9992,5.8313,5.8665,5.8871,5.8929,5.8511,5.8319,5.8325,5.7401,5.6786,0.0,0.0,0.0,5.5708,5.5708,5.5708,5.5708,5.5708,5.628,5.7107,5.7036,5.7824,5.8896,0.0,0.0,0.0,0.0,0.0,0.0,0.0,0.0,0.0,0.0,0.0,0.0,0.0,0.0,0.0,0.0,0.0,0.0,0.0,0.0,0.0,0.0,3.4408,3.475,3.4873,3.5486,3.6837,3.8943,3.9189,3.9961,4.1253,4.1499,4.12,4.0467,3.9761,3.9472,0.0,0.0,0.0,0.0,4.1642,0.0,0.0,0.0,0.0,0.0,0.0,0.0,0.0,4.0278,4.0286,3.9795,4.0249,0.0,0.0,0.0,0.0,0.0,3.8851,4.0851,4.2731,4.2288,4.1628,4.1097,4.1141,3.9989,3.8935,3.9073,3.931,0.0,0.0,4.1813,0.0,0.0,0.0,0.0,0.0,0.0,0.0,0.0,0.0,0.0,0.0,0.0,0.0,0.0,0.0,5.8107,5.8107,5.9569,6.0416,6.0416,6.0531,5.9858,5.8313,5.9108,5.9031,5.8107,5.8236,5.7915,5.719,5.706,5.6593,5.5882,0.0,0.0,5.5708,5.5708,5.5708,5.5708,5.5708,5.5785,5.5978,5.6574,5.7343,5.8107,0.0,0.0,0.0,0.0,0.0,0.0,0.0,0.0,0.0,0.0,0.0,0.0,0.0,0.0,0.0,0.0,0.0,0.0,0.0,0.0,0.0,3.59,3.5116,3.4986,3.5626,3.574,3.632,3.7348,3.8662,3.9417,3.968,4.0979,4.12,4.0489,4.0192,4.0281,4.0707,4.1561,0.0,0.0,0.0,0.0,0.0,0.0,0.0,0.0,0.0,0.0,0.0,3.8993,3.9001,3.8901,3.8972,0.0,0.0,0.0,0.0,0.0,3.994,4.1574,4.245,3.9959,3.9724,3.9929,3.9291,3.9013,3.8935,3.9073,3.9795,4.0743,0.0,4.3109,4.4341,0.0,0.0,0.0,0.0,0.0,0.0,0.0,0.0,0.0,0.0,0.0,0.0,0.0,0.0,5.7209,5.7209,5.8146,5.8684,5.8684,5.9338,5.9261,5.8313,5.9108,5.8723,5.7209,5.7953,5.8223,5.8088,5.7343,5.6926,5.6766,0.0,5.5708,5.5708,5.5708,5.5708,5.5708,5.5708,5.6151,5.6728,5.6112,5.6459,5.7209,0.0,0.0,0.0,0.0,0.0,0.0,0.0,0.0,0.0,0.0,0.0,0.0,0.0,0.0,0.0,0.0,0.0,0.0,0.0,0.0,3.7658,3.7739,3.7282,3.6644,3.5819,3.6627,3.7434,3.8234,3.9392,4.0147,4.0558,4.1271,4.1411,4.1099,4.1,4.1184,4.1586,4.2198,0.0,0.0,0.0,0.0,0.0,0.0,0.0,0.0,0.0,0.0,0.0,0.0,3.9206,3.9409,3.8541,0.0,0.0,0.0,0.0,0.0,3.8939,4.0642,4.1868,4.0158,4.0963,4.181,4.0414,4.0153,4.0233,4.0369,4.0753,0.0,0.0,0.0,4.606,0.0,0.0,0.0,0.0,0.0,0.0,0.0,0.0,0.0,0.0,0.0,0.0,0.0,0.0,0.0,5.7036,5.7838,5.8294,5.8294,5.9088,5.8896,5.7613,5.8434,5.7992,5.6305,5.6703,5.6896,5.6876,5.6478,5.6305,5.6285,0.0,5.5708,5.5708,5.5708,5.5708,5.5708,5.5708,5.5939,5.6305,5.6382,5.6362,5.6439,0.0,0.0,0.0,0.0,0.0,0.0,0.0,0.0,0.0,0.0,0.0,0.0,0.0,0.0,0.0,0.0,0.0,0.0,0.0,3.785,3.8283,3.9076,3.9031,3.8293,3.678,3.7887,3.8762,3.9294,4.0105,4.0878,4.1604,4.1604,4.1604,4.1604,4.1681,4.1902,4.2238,4.2562,4.2872,0.0,0.0,0.0,0.0,0.0,0.0,0.0,0.0,0.0,0.0,0.0,0.0,0.0,0.0,0.0,0.0,3.7549,3.7594,3.8085,3.8464,4.0008,4.1334,4.0749,4.2069,4.3148,4.1693,4.1217,4.1132,4.1393,4.1705,0.0,0.0,4.5174,0.0,0.0,0.0,0.0,0.0,0.0,0.0,0.0,0.0,0.0,0.0,0.0,0.0,0.0,0.0,0.0,5.7016,5.7353,5.7639,5.785,5.8446,5.8163,5.6877,5.7612,5.7223,5.5708,5.5708,5.5708,5.5708,5.5708,5.5708,5.5708,5.5708,5.5708,5.5708,5.5708,5.5708,5.5708,5.5708,5.5708,5.5785,5.6439,5.6266,5.5901,0.0,0.0,0.0,0.0,0.0,0.0,0.0,0.0,0.0,0.0,0.0,0.0,0.0,0.0,0.0,0.0,0.0,0.0,0.0,3.7994,3.8627,3.9425,3.9174,3.9163,3.9499,3.9613,3.9542,3.9294,4.0105,4.0878,4.1604,4.1604,4.1604,4.1615,4.1924,4.2249,4.2571,4.2854,4.316,4.347,0.0,0.0,0.0,0.0,0.0,0.0,0.0,0.0,0.0,0.0,0.0,0.0,0.0,0.0,3.8295,3.8924,3.8715,3.8602,4.0165,4.0853,4.1057,4.0687,4.1199,4.1738,4.1599,4.0953,4.054,4.1186,4.2293,0.0,0.0,4.6209,0.0,0.0,0.0,0.0,0.0,0.0,0.0,0.0,0.0,0.0,0.0,0.0,0.0,0.0,0.0,0.0,5.6964,5.5937,5.5707,5.6503,5.6598,5.6579,5.6445,5.688,5.6613,5.5708,5.5708,5.5708,5.5708,5.5708,5.5708,5.5708,5.5708,5.5708,5.5708,5.5708,5.5708,5.5708,5.5708,5.5708,5.5708,5.5766,5.5747,5.5728,0.0,0.0,0.0,0.0,0.0,0.0,0.0,0.0,0.0,0.0,0.0,0.0,0.0,0.0,0.0,0.0,0.0,0.0,0.0,3.8164,3.8914,3.9709,4.0103,4.0289,4.0293,4.0417,4.0418,4.0296,4.0887,4.1323,4.1604,4.1604,4.1604,4.1604,4.1736,4.1977,4.231,4.2621,4.2995,4.34,4.3686,0.0,0.0,0.0,0.0,0.0,0.0,0.0,0.0,0.0,3.8764,3.8826,3.8097,3.7679,3.744,3.7247,3.7001,3.7061,3.8193,3.9764,4.119,4.1556,4.2221,4.2732,4.2573,4.2891,4.3463,4.435,4.4934,0.0,0.0,0.0,0.0,0.0,0.0,0.0,0.0,0.0,0.0,0.0,0.0,0.0,0.0,0.0,0.0,0.0,0.0,0.0,5.5835,5.5358,5.5146,5.5212,5.5705,5.5724,5.5223,5.6158,5.6192,5.5325,5.5582,5.5571,5.5325,5.5325,5.5192,5.4959,5.4959,5.4959,5.4959,5.4959,5.5088,5.5343,5.5599,5.5708,5.5708,5.5708,5.5708,5.5708,0.0,0.0,0.0,0.0,0.0,0.0,0.0,0.0,0.0,0.0,0.0,0.0,0.0,0.0,0.0,0.0,0.0,0.0,3.7422,3.8256,3.9056,3.9853,4.0432,4.0738,4.0755,4.0946,4.1006,4.0895,4.1364,4.1604,4.1604,4.1604,4.1604,4.1604,4.1604,4.1801,4.2114,4.2341,4.2739,4.3232,4.3563,4.3822,0.0,0.0,0.0,0.0,0.0,0.0,0.0,0.0,3.8926,3.8982,3.7837,3.7292,3.6998,3.6441,3.6492,3.6862,3.7427,3.9094,4.0903,4.1781,4.2561,4.3308,4.4046,4.4456,4.514,4.6775,4.6919,4.7047,4.8009,0.0,0.0,0.0,0.0,0.0,0.0,0.0,0.0,0.0,0.0,0.0,0.0,0.0,0.0,0.0,0.0,0.0,0.0,5.4763,5.4567,5.4288,5.4815,5.4842,5.4272,5.5429,5.5632,5.4924,5.5319,5.5375,5.5088,5.5088,5.4888,5.4503,5.4503,5.4503,5.4503,5.4503,5.4901,5.5541,5.5782,5.5986,5.6074,5.5805,5.5708,5.5708,0.0,0.0,0.0,0.0,0.0,0.0,0.0,0.0,0.0,0.0,0.0,0.0,0.0,0.0,0.0,0.0,0.0,0.0,3.743,3.8248,3.9038,3.9835,3.9882,4.0259,4.1058,4.1279,4.123,4.09,4.137,4.1604,4.1604,4.1604,4.1604,4.1587,4.1604,4.1773,4.2075,4.2075,4.2436,4.3005,4.3352,4.3681,0.0,0.0,0.0,0.0,0.0,0.0,0.0,0.0,3.9038,3.8313,3.8294,3.7756,3.7129,3.711,3.7804,3.8593,3.8596,3.9183,4.0041,4.1056,4.1819,4.3086,4.5955,4.5274,4.4848,4.7799,4.7838,4.7315,4.7308,0.0,0.0,0.0,0.0,0.0,0.0,0.0,0.0,0.0,0.0,0.0,0.0,0.0,0.0,0.0,0.0,0.0,0.0,5.4048,5.3805,5.3796,5.3796,5.3796,5.3796,5.4659,5.4895,5.4503,5.489,5.5081,5.5081,5.5081,5.4881,5.4487,5.4487,5.4487,5.4495,5.4495,5.5242,5.6373,5.6314,5.6569,5.6882,5.6016,5.5708,5.5708,0.0,0.0,0.0,0.0,0.0,0.0,0.0,0.0,0.0,0.0,0.0,0.0,0.0,0.0,0.0,0.0,0.0,0.0,3.6292,3.7065,3.7716,3.8182,3.8884,3.922,3.9132,3.9839,4.0588,4.1395,4.1525,4.1604,4.1604,4.1604,4.1323,4.0843,4.1358,4.1044,4.0183,4.0945,4.1445,4.178,4.2301,4.3059,4.3772,0.0,0.0,0.0,0.0,0.0,0.0,0.0,0.0,0.0,3.8488,3.8569,3.8519,3.6766,3.6868,3.754,3.7534,3.8294,3.9556,4.152,0.0,0.0,4.7039,4.6415,4.6034,0.0,4.8761,4.8785,4.8592,0.0,0.0,0.0,0.0,0.0,0.0,0.0,0.0,0.0,0.0,0.0,0.0,0.0,0.0,0.0,0.0,0.0,0.0,5.3888,5.3673,5.34,5.339,5.339,5.339,5.3924,5.4125,5.4013,5.4468,5.4516,5.4194,5.4194,5.3978,5.3583,5.3583,5.3583,5.3612,5.3878,5.4223,5.4627,5.5223,5.5536,5.5676,5.569,5.5708,5.5708,0.0,0.0,0.0,0.0,0.0,0.0,0.0,0.0,0.0,0.0,3.3132,3.2959,0.0,0.0,0.0,0.0,0.0,0.0,0.0,3.6929,3.7436,3.7955,3.8745,3.9202,3.9329,3.9896,4.0629,4.1604,4.1604,4.1604,4.1604,4.1747,4.149,4.0948,4.1536,4.1049,3.9817,4.0468,4.0874,4.1129,4.155,4.2323,4.3132,0.0,0.0,0.0,0.0,0.0,0.0,0.0,0.0,0.0,3.8563,3.8657,3.8812,3.7395,3.7794,3.872,3.885,3.9822,4.1237,4.315,4.4361,4.5565,4.7335,0.0,0.0,0.0,4.9803,5.0317,4.9816,0.0,0.0,0.0,0.0,0.0,0.0,0.0,0.0,0.0,0.0,0.0,0.0,0.0,0.0,0.0,0.0,0.0,0.0,5.2769,5.2789,5.3188,5.2884,5.2884,5.3196,5.3604,5.372,5.3565,5.4014,5.3987,5.3565,5.373,5.3575,5.3196,5.3196,5.3196,5.3275,5.4349,5.4708,5.4658,5.5688,5.5995,5.584,5.5739,5.5708,5.5708,0.0,0.0,0.0,0.0,0.0,0.0,0.0,0.0,0.0,0.0,3.3224,3.3208,0.0,0.0,0.0,0.0,0.0,0.0,0.0,3.729,3.7719,3.856,3.9152,3.9878,4.0737,4.0834,4.1078,4.1499,4.158,4.1637,4.1675,4.1956,4.1899,4.158,4.1871,4.1378,4.0327,4.0246,4.0407,4.0694,4.0823,4.1361,4.2026,4.1388,0.0,0.0,0.0,0.0,0.0,0.0,0.0,0.0,3.8563,3.8407,3.8524,3.848,3.9656,4.1059,4.1351,4.2444,4.3817,4.5226,4.5403,0.0,4.74,4.986,5.1346,4.9817,0.0,5.1568,0.0,0.0,0.0,0.0,0.0,0.0,0.0,0.0,0.0,0.0,0.0,0.0,0.0,0.0,0.0,0.0,0.0,0.0,0.0,5.1206,5.1471,5.2939,5.227,5.227,5.3086,5.3454,5.3481,5.3196,5.3565,5.3546,5.3217,5.3575,5.3554,5.3196,5.3196,5.3227,5.3403,5.5289,5.5871,5.5707,5.6915,5.7143,5.6733,5.5986,5.5708,5.5708,0.0,0.0,0.0,0.0,0.0,0.0,0.0,0.0,0.0,0.0,0.0,0.0,0.0,0.0,0.0,0.0,0.0,0.0,0.0,3.5806,3.6652,3.7716,3.923,3.9903,3.9637,4.0264,4.0637,4.0737,4.1415,4.1878,4.2142,4.2061,4.1822,4.1443,4.1303,4.0439,3.903,3.8367,3.8456,3.9056,3.8502,3.9191,4.0456,4.016,4.0162,0.0,0.0,0.0,0.0,0.0,0.0,0.0,3.8563,3.9201,3.989,3.7989,3.8688,4.0096,4.0165,4.0619,0.0,4.471,4.6944,4.8695,4.9767,5.049,5.0673,4.9629,5.0238,0.0,0.0,0.0,0.0,0.0,0.0,0.0,0.0,0.0,0.0,0.0,0.0,0.0,0.0,0.0,0.0,0.0,0.0,0.0,5.1059,5.0894,5.0967,5.1316,5.1151,5.1444,5.2262,5.2338,5.2659,0.0,5.3303,5.3274,5.3196,5.3285,5.3274,5.3196,5.3196,5.339,5.371,5.4158,5.4495,5.4815,5.5401,5.5573,5.5524,5.564,5.5708,5.5805,0.0,0.0,0.0,0.0,0.0,0.0,0.0,0.0,0.0,0.0,0.0,0.0,0.0,0.0,0.0,0.0,0.0,0.0,0.0,0.0,3.6915,3.8895,4.051,4.1135,4.0647,4.0883,4.1036,4.1036,4.1162,4.1503,4.2071,4.2148,4.2004,4.1675,4.1443,4.0376,3.8768,3.8411,3.8277,3.8312,3.824,3.8636,3.9215,3.9118,3.909,3.9073,3.8841,0.0,0.0,0.0,0.0,0.0,0.0,0.0,4.0077,3.9239,3.9885,4.1007,4.1681,4.2498,0.0,4.6385,0.0,5.0096,5.0347,5.0559,5.0572,5.0111,0.0,0.0,0.0,0.0,0.0,0.0,0.0,0.0,0.0,0.0,0.0,0.0,0.0,0.0,0.0,0.0,0.0,0.0,0.0,5.0225,5.0225,4.9829,4.9976,5.0765,5.0417,5.061,5.1426,5.1426,5.1646,5.2058,5.2435,5.2839,5.3196,5.3196,5.3196,5.3196,5.3196,5.3326,5.3573,5.437,5.4627,5.4604,5.5606,5.5757,5.5411,5.561,5.5708,5.5766,0.0,0.0,0.0,0.0,0.0,0.0,0.0,0.0,0.0,0.0,0.0,0.0,0.0,0.0,0.0,0.0,0.0,0.0,0.0,0.0,0.0,4.048,4.1793,4.2368,4.2197,4.1803,4.1604,4.1604,4.0891,4.095,4.175,4.2017,4.2076,4.1929,4.158,4.0456,3.8789,3.8676,3.8263,3.772,3.8101,3.8119,3.7945,3.7815,3.7717,3.7619,3.7634,3.8264,3.9119,3.9314,0.0,0.0,0.0,0.0,3.9758,4.061,4.1204,4.1914,4.3212,4.4834,4.6515,4.8079,4.9479,0.0,5.0061,5.0352,5.0707,0.0,0.0,0.0,0.0,0.0,0.0,0.0,0.0,0.0,0.0,0.0,0.0,0.0,0.0,0.0,0.0,0.0,0.0,0.0,0.0,4.938,4.938,4.8691,4.8939,5.0325,4.9729,4.9766,5.0582,5.0582,5.0655,5.082,5.1463,5.2215,5.2994,5.2994,5.3067,5.3196,5.3196,5.3293,5.3538,5.4917,5.5172,5.4843,5.6227,5.6324,5.5708,5.5708,5.5708,5.5728,0.0,0.0,0.0,0.0,0.0,0.0,0.0,0.0,0.0,0.0,3.2197,3.3272,0.0,0.0,0.0,0.0,0.0,0.0,0.0,0.0,0.0,4.0498,4.1452,4.2092,4.2514,4.192,4.1609,4.1609,4.075,4.073,4.1457,4.1274,4.1381,4.1702,4.0806,3.9661,3.829,3.6855,3.6333,3.6369,3.5534,3.5575,3.6079,3.5506,3.579,3.6461,3.6016,3.6882,3.8284,3.8427,3.8982,0.0,0.0,0.0,3.9633,3.9758,3.9929,4.0297,4.1245,0.0,4.5787,0.0,4.8366,4.9562,0.0,0.0,5.0707,0.0,0.0,0.0,0.0,0.0,0.0,0.0,0.0,0.0,0.0,0.0,0.0,0.0,0.0,0.0,0.0,0.0,0.0,0.0,4.8903,4.8471,4.8471,4.8351,4.8406,4.8627,4.8517,4.8893,4.9757,4.9747,5.0115,5.0802,5.0912,5.1371,5.216,5.216,5.2546,5.3196,5.3196,5.3623,5.434,5.4568,5.5012,5.556,5.5791,5.5805,5.5708,5.5708,5.5708,5.5805,0.0,0.0,0.0,0.0,0.0,0.0,0.0,0.0,0.0,0.0,0.0,3.3238,0.0,0.0,0.0,0.0,0.0,0.0,0.0,0.0,0.0,3.9577,4.113,4.1893,4.1758,4.1732,4.1497,4.1052,4.0209,4.0454,4.1714,4.1144,4.1397,4.2276,4.1106,4.0145,3.9252,3.7737,3.6892,3.6534,3.5965,3.5719,3.5658,3.5276,3.5461,3.5876,3.5684,0.0,3.753,3.8102,3.8544,3.8963,3.9458,0.0,0.0,0.0,3.9964,4.0795,4.2794,4.435,4.5745,0.0,4.812,4.8663,4.8663,0.0,0.0,0.0,0.0,0.0,0.0,0.0,0.0,0.0,0.0,0.0,0.0,0.0,0.0,0.0,0.0,0.0,0.0,0.0,0.0,0.0,4.7581,4.7636,4.7636,4.7636,4.7838,4.8296,4.7856,4.8021,4.8857,4.8416,4.8838,5.0068,5.0115,5.0794,5.2005,5.2005,5.2435,5.3196,5.3196,5.342,5.3795,5.4014,5.4328,5.4685,5.5167,5.5237,5.5048,5.5288,5.5356,5.5413,0.0,0.0,0.0,0.0,0.0,0.0,0.0,0.0,0.0,0.0,0.0,0.0,0.0,0.0,0.0,0.0,0.0,0.0,0.0,0.0,0.0,3.8789,4.0407,4.1238,4.1151,4.1358,4.1182,4.0569,3.9731,4.0195,4.1864,4.1164,4.1657,4.3059,4.1783,4.0741,3.9841,3.8564,3.7617,3.6894,3.636,3.5841,3.5387,3.5293,3.5315,3.5409,3.54,0.0,0.0,0.0,0.0,0.0,3.9057,3.927,0.0,0.0,0.0,4.1017,0.0,0.0,4.5078,4.6676,4.7443,4.7793,0.0,0.0,0.0,0.0,0.0,0.0,0.0,0.0,0.0,0.0,0.0,0.0,0.0,0.0,0.0,0.0,0.0,0.0,0.0,0.0,0.0,0.0,4.6461,4.681,4.681,4.681,4.7067,4.7682,4.7104,4.7085,4.7672,4.7296,4.7819,4.9205,4.9252,5.0115,5.1712,5.1712,5.2252,5.3196,5.3196,5.3261,5.338,5.3692,5.3878,5.4048,5.4682,5.476,5.4543,5.4845,5.5014,5.5088,0.0,0.0,0.0,0.0,0.0,0.0,0.0,0.0,0.0,0.0,0.0,0.0,3.339,3.3462,3.3562,3.3787,3.3066,0.0,0.0,0.0,0.0,3.8605,3.8943,0.0,4.1261,4.0817,4.0542,4.0505,3.9568,3.9943,4.1516,4.1156,4.2036,4.3886,4.2664,4.1027,3.9101,3.8198,3.7536,3.696,3.5495,3.4863,3.4835,3.4836,0.0,0.0,0.0,0.0,0.0,0.0,0.0,0.0,0.0,0.0,0.0,0.0,0.0,0.0,0.0,4.2009,0.0,4.4048,4.5644,0.0,0.0,0.0,0.0,0.0,0.0,0.0,0.0,0.0,0.0,0.0,0.0,0.0,0.0,0.0,0.0,0.0,0.0,0.0,0.0,0.0,0.0,0.0,4.5938,4.5957,4.5957,4.5957,4.5975,4.6012,4.5975,4.5975,4.6012,4.6737,4.7516,4.8351,4.8379,4.9232,5.0857,5.0857,5.172,5.3196,5.3196,5.3422,5.3768,5.3796,5.4057,5.4471,5.45,5.4519,5.4503,5.4527,5.4768,5.5088,0.0,0.0,0.0,0.0,0.0,0.0,0.0,0.0,0.0,0.0,0.0,0.0,0.0,3.3626,3.3719,3.3782,3.3532,0.0,0.0,0.0,0.0,3.7355,3.8454,3.94,4.0186,4.053,4.0163,3.9096,3.9307,3.9718,4.0304,4.1204,4.2032,4.2695,4.2047,4.1776,4.1634,3.917,3.8353,3.8518,0.0,0.0,0.0,0.0,0.0,0.0,0.0,0.0,0.0,0.0,0.0,0.0,0.0,0.0,0.0,0.0,0.0,0.0,0.0,0.0,0.0,4.3693,4.4724,4.5374,0.0,0.0,0.0,0.0,0.0,0.0,0.0,0.0,0.0,0.0,0.0,0.0,0.0,0.0,0.0,0.0,0.0,0.0,0.0,0.0,0.0,0.0,0.0,4.5122,4.5122,4.5122,4.5369,4.5883,4.5406,4.5388,4.5883,4.67,4.7507,4.8296,4.8296,4.8912,5.0059,5.0563,5.1408,5.2454,5.2976,5.3274,5.3412,5.3412,5.3514,5.37,5.3951,5.3897,5.3729,5.429,5.4597,5.4745,0.0,0.0,0.0,0.0,0.0,0.0,0.0,0.0,0.0,3.1596,0.0,0.0,0.0,0.0,3.3616,3.3415,3.3642,3.3697,3.3421,3.4149,3.5208,3.656,3.7696,3.8815,3.9908,4.0234,3.9971,3.9145,3.917,3.9308,3.9627,4.0397,4.1072,4.1566,4.0785,4.1504,4.3132,4.0603,0.0,3.9833,0.0,0.0,3.7033,0.0,0.0,0.0,0.0,0.0,0.0,0.0,0.0,0.0,0.0,0.0,0.0,0.0,0.0,0.0,3.8723,0.0,0.0,0.0,4.3372,4.3835,0.0,0.0,0.0,0.0,0.0,0.0,0.0,0.0,0.0,0.0,0.0,0.0,0.0,0.0,0.0,0.0,0.0,0.0,0.0,0.0,0.0,0.0,0.0,0.0,4.4305,4.4305,4.4544,4.5085,4.458,4.469,4.5498,4.6039,4.6819,4.7911,4.7911,4.8508,4.9629,5.0133,5.0949,5.2024,5.2564,5.2957,5.3196,5.3196,5.3196,5.3238,5.3485,5.3515,5.3464,5.4049,5.4452,5.4731,0.0,0.0,0.0,0.0,0.0,0.0,0.0,0.0,3.278,3.3178,0.0,0.0,0.0,0.0,0.0,3.2796,3.3446,3.3532,3.2711,3.3378,3.4616,3.6412,0.0,0.0,4.0531,3.9946,3.9977,4.076,3.9101,3.8713,3.9514,3.8676,3.9164,4.0666,3.9045,4.014,4.3132,0.0,4.1467,4.0716,0.0,3.8693,3.8585,0.0,0.0,0.0,3.9117,3.8837,0.0,0.0,0.0,0.0,0.0,0.0,0.0,0.0,0.0,0.0,0.0,0.0,0.0,0.0,0.0,0.0,4.4917,0.0,0.0,0.0,0.0,0.0,0.0,0.0,0.0,0.0,0.0,0.0,0.0,0.0,0.0,0.0,0.0,0.0,0.0,0.0,0.0,0.0,4.3506,4.3506,4.3506,4.3506,4.3506,4.3506,4.3506,4.3892,4.47,4.47,4.5507,4.7058,4.7094,4.7948,4.9537,4.9509,5.0408,5.1969,5.1987,5.2454,5.3196,5.3196,5.3196,5.3196,5.3196,5.3462,5.3805,5.3823,5.4358,5.5088,0.0,0.0,0.0,0.0,0.0,3.4635,3.3549,3.3425,3.3557,0.0,0.0,0.0,3.5144,3.5453,3.583,3.6247,3.5965,3.5346,3.4406,3.4002,3.4616,3.6412,3.6622,3.7919,4.0531,3.9946,3.9702,3.9927,3.8845,3.8131,3.7805,3.815,3.8557,3.8995,3.917,3.9758,4.0528,3.9076,0.0,4.1499,3.9578,3.913,0.0,0.0,0.0,0.0,0.0,3.9781,3.9688,0.0,4.0273,4.0476,0.0,0.0,0.0,0.0,0.0,0.0,3.619,0.0,0.0,0.0,0.0,0.0,4.2526,4.3143,4.3662,0.0,0.0,0.0,0.0,0.0,0.0,0.0,0.0,0.0,0.0,0.0,0.0,0.0,0.0,0.0,0.0,0.0,0.0,0.0,4.3506,4.3506,4.3506,4.3506,4.3506,4.3506,4.3506,4.3892,4.47,4.47,4.5214,4.625,4.6828,4.7333,4.7819,4.9031,5.0133,5.1151,5.1738,5.2454,5.3196,5.3196,5.3196,5.3196,5.3196,5.3462,5.3851,5.4178,5.4629,5.5088,0.0,0.0,0.0,0.0,0.0,3.638,3.5917,3.5607,3.5708,0.0,0.0,0.0,3.6941,3.7344,3.7643,3.7708,3.7327,3.6488,3.5092,3.4632,3.5051,3.6438,3.6562,3.802,4.1042,4.0025,3.9846,4.0591,3.907,3.8056,3.7611,3.7399,3.7474,3.7793,3.7593,3.8081,3.8926,0.0,0.0,0.0,4.0146,0.0,0.0,4.0707,4.0647,0.0,0.0,0.0,4.158,4.0672,4.0967,0.0,0.0,0.0,0.0,0.0,0.0,0.0,0.0,0.0,0.0,0.0,0.0,0.0,4.1409,4.214,4.2701,0.0,0.0,0.0,0.0,0.0,0.0,0.0,0.0,0.0,0.0,0.0,0.0,0.0,0.0,0.0,0.0,4.3506,4.3506,4.3506,4.3506,4.3506,4.3506,4.3506,4.3506,4.3506,4.3506,4.3726,4.4195,4.4195,4.4599,4.5406,4.6205,4.6773,4.7131,4.8453,4.9701,5.0839,5.1298,5.1958,5.2729,5.3067,5.3196,5.3196,5.3196,5.3462,5.3842,5.4101,5.4492,5.484,0.0,0.0,3.8865,3.8938,3.8883,3.8836,3.8836,3.8346,3.85,0.0,3.901,3.8618,3.9676,3.9606,3.9166,3.8356,3.8226,3.7381,3.5441,3.5311,3.5662,3.6449,3.6507,3.8131,4.157,4.0215,4.0243,4.1873,3.9571,3.8388,3.8257,3.6648,3.6273,3.6898,3.5302,0.0,0.0,0.0,0.0,3.9443,4.0648,4.1141,0.0,0.0,4.2387,0.0,4.1882,4.2427,4.3494,4.1426,4.0939,0.0,0.0,0.0,0.0,0.0,3.7266,0.0,0.0,0.0,0.0,0.0,0.0,0.0,4.0978,4.1532,4.1752,4.1768,0.0,0.0,0.0,0.0,0.0,0.0,0.0,0.0,0.0,0.0,0.0,0.0,0.0,0.0,4.3496,4.3506,4.3506,4.3506,4.3506,4.3506,4.3506,4.3506,4.3506,4.3506,4.3506,4.3506,4.3506,4.3506,4.3873,4.4571,4.5461,4.626,4.7012,4.7893,4.9169,5.0674,5.0765,5.1261,5.206,5.2865,5.3159,5.3086,5.3177,5.3462,5.3805,5.3805,5.4148,5.4608,0.0,4.012,3.9863,4.0516,4.0102,3.9669,3.9669,3.9658,3.9789,4.0277,4.0179,4.0938,4.3231,4.2174,4.1474,4.1924,4.0802,3.9286,3.7455,3.6053,3.5655,3.6466,3.6601,3.7926,4.0607,4.0554,4.0678,4.1035,3.9902,3.8982,3.8257,3.6648,3.5972,3.6085,3.5058,3.487,3.5414,0.0,0.0,3.7899,3.9464,0.0,4.2227,4.2454,4.1956,4.1104,4.0806,4.1253,4.2025,0.0,4.1394,4.0468,0.0,0.0,0.0,0.0,0.0,0.0,0.0,0.0,0.0,0.0,0.0,0.0,3.9541,4.041,4.1437,0.0,0.0,0.0,0.0,0.0,0.0,0.0,0.0,0.0,0.0,0.0,0.0,0.0,0.0,0.0,4.3522,4.3506,4.3506,4.3506,4.3506,4.3506,4.3506,4.3506,4.3506,4.3506,4.3506,4.3506,4.3506,4.3506,4.3579,4.3745,4.5213,4.5975,4.6177,4.7645,4.8857,4.9858,5.0508,5.1261,5.206,5.2865,5.2821,5.2289,5.2939,5.3462,5.3805,5.3805,5.4504,5.5324,4.0423,4.0604,4.0885,4.1794,4.1525,4.1341,4.1782,4.1541,4.1502,4.2114,4.2396,4.3032,4.4369,4.3701,4.3107,4.3018,4.2263,4.0856,3.8645,3.7673,3.7206,3.7192,3.7254,3.8486,4.1031,4.0403,4.0483,4.141,4.0184,3.9151,3.8275,3.7061,3.6318,3.5961,3.5021,3.5106,3.6004,0.0,3.809,3.9728,4.0747,0.0,4.147,4.2066,4.1827,4.1085,4.0666,4.0714,4.1114,4.1896,4.182,0.0,0.0,4.0886,4.0948,0.0,4.0056,4.0318,0.0,0.0,0.0,3.9737,0.0,0.0,0.0,3.9689,4.0194,4.0706,0.0,0.0,0.0,0.0,0.0,0.0,0.0,0.0,0.0,0.0,0.0,0.0,0.0,0.0,4.3531,4.3506,4.3506,4.3506,4.3506,4.3506,4.3506,4.3506,4.3506,4.3506,4.3506,4.3506,4.3506,4.3506,4.3506,4.3506,4.4727,4.5516,4.5938,4.7159,4.8398,4.9629,5.0023,5.0665,5.1463,5.227,5.2362,5.2079,5.2884,5.3326,5.3495,5.3495,5.3903,5.4382,4.0277,4.0846,4.1632,4.2619,4.2783,4.3029,4.3724,4.3267,4.3135,4.3943,4.4296,4.4402,4.4198,4.4037,4.3704,4.31,4.2473,4.1429,3.9825,3.9081,3.8496,3.8005,3.796,3.8944,4.1077,4.0117,4.0238,4.1535,4.039,3.9301,3.8275,3.748,3.6802,3.6243,3.5305,3.5862,3.7465,0.0,0.0,4.1682,0.0,4.193,4.0769,4.1431,4.1615,4.1414,4.0735,4.0496,4.0623,4.1452,0.0,4.2136,4.1212,4.2042,0.0,0.0,0.0,0.0,0.0,0.0,0.0,0.0,0.0,4.0351,0.0,0.0,0.0,3.9849,0.0,0.0,0.0,0.0,0.0,0.0,0.0,0.0,0.0,0.0,0.0,0.0,0.0,0.0,0.0,4.3376,4.3322,4.3488,4.3359,4.3341,4.3488,4.3506,4.3506,4.3506,4.3506,4.3506,4.3506,4.3506,4.3506,4.3506,4.4323,4.5122,4.592,4.6737,4.7911,4.9362,4.9537,4.9968,5.0637,5.1601,5.2005,5.2079,5.2884,5.3196,5.3196,5.3196,5.3351,5.3572,4.1042,4.1237,4.1632,4.2619,4.3376,4.3862,4.3955,4.4031,4.4136,4.4252,4.43,4.399,4.3096,0.0,0.0,0.0,0.0,0.0,4.1799,0.0,3.7591,3.8225,3.8147,3.8278,3.8694,3.9965,4.0372,3.9871,4.0409,3.9858,3.8275,3.748,3.7065,3.6957,3.6243,3.6764,0.0,0.0,3.9694,0.0,4.2724,4.3014,0.0,4.1542,4.0993,4.0462,4.0491,4.0496,4.0611,0.0,4.1561,4.179,0.0,4.3023,0.0,0.0,0.0,0.0,0.0,0.0,0.0,0.0,4.2388,0.0,0.0,0.0,4.0421,3.993,0.0,0.0,0.0,0.0,0.0,0.0,0.0,0.0,0.0,0.0,0.0,0.0,0.0,0.0,0.0,4.2966,4.2727,4.3451,4.2837,4.2745,4.3451,4.3506,4.3506,4.3506,4.3506,4.3506,4.3506,4.3506,4.3506,4.3506,4.4323,4.5122,4.592,4.6737,4.7599,4.8489,4.9252,4.9647,4.9839,5.1363,5.2005,5.2079,5.2884,5.3196,5.3196,5.3196,5.3875,5.4706,4.0622,4.1598,4.2459,4.3011,4.3688,4.4169,4.4169,4.464,4.5002,4.5002,4.5002,4.501,0.0,0.0,0.0,0.0,0.0,4.1845,0.0,0.0,3.9924,4.0428,0.0,0.0,4.0453,4.0691,4.0628,4.0297,4.0165,3.9483,3.8294,3.7943,3.7846,3.7887,3.7135,0.0,3.9321,0.0,4.0217,0.0,0.0,0.0,0.0,4.2149,4.1547,4.0421,4.0477,4.0496,4.0619,0.0,4.1862,0.0,0.0,0.0,0.0,0.0,0.0,0.0,0.0,0.0,0.0,0.0,0.0,0.0,0.0,0.0,3.9539,0.0,0.0,0.0,0.0,0.0,0.0,0.0,4.1106,0.0,0.0,0.0,0.0,0.0,0.0,0.0,0.0,0.0,0.0,0.0,4.3194,4.3139,4.3469,4.3506,4.3506,4.3506,4.3506,4.3506,4.3506,4.3506,4.3506,4.3506,4.3836,4.4433,4.5223,4.5544,4.6406,4.7617,4.7984,4.8701,4.9647,5.0326,5.1161,5.2024,5.2362,5.2803,5.3238,5.3464,5.3857,5.4335,4.0293,0.0,4.2721,4.2911,4.373,4.4351,4.4351,4.4856,4.5268,4.5408,0.0,0.0,4.6394,4.5444,0.0,0.0,4.3754,4.292,0.0,0.0,4.1428,0.0,0.0,0.0,0.0,0.0,4.0797,4.0797,3.9984,3.9283,3.8657,3.8407,3.8472,3.8782,3.8231,3.8961,4.0637,0.0,0.0,4.1922,4.2709,4.2576,4.1943,4.2219,4.1864,4.1185,4.0935,4.1012,4.1335,4.2155,4.2661,0.0,4.3503,0.0,0.0,0.0,0.0,0.0,4.3409,0.0,0.0,0.0,0.0,0.0,0.0,0.0,0.0,0.0,0.0,0.0,0.0,0.0,0.0,0.0,0.0,4.0892,0.0,0.0,0.0,0.0,0.0,0.0,0.0,0.0,0.0,4.3469,4.3304,4.3267,4.3488,4.3506,4.3506,4.3506,4.3506,4.3506,4.3506,4.3506,4.3506,4.3506,4.3506,4.392,4.47,4.47,4.5471,4.6782,4.7003,4.7783,4.8958,4.9399,5.0408,5.1675,5.1675,5.216,5.2936,5.3442,5.3796,5.4083,4.0464,4.1273,0.0,4.2022,4.3393,4.4501,4.4501,0.0,0.0,0.0,0.0,0.0,0.0,0.0,0.0,0.0,0.0,4.1282,4.3357,0.0,4.0688,0.0,0.0,4.138,0.0,0.0,0.0,4.0797,3.9984,3.9589,3.9533,3.8694,3.8757,3.957,3.9673,4.0641,4.2235,4.2373,4.3028,4.4,4.4039,4.411,4.3921,0.0,4.1477,4.2912,4.2062,0.0,0.0,4.3805,4.4034,0.0,0.0,0.0,0.0,0.0,0.0,0.0,0.0,0.0,0.0,4.2238,0.0,0.0,0.0,0.0,4.0516,0.0,0.0,0.0,0.0,0.0,0.0,0.0,0.0,0.0,0.0,0.0,0.0,0.0,0.0,0.0,0.0,0.0,0.0,4.3433,4.2782,4.2671,4.3451,4.3506,4.3506,4.3506,4.3506,4.3506,4.3506,4.3506,4.3506,4.3506,4.3506,4.392,4.47,4.47,4.514,4.5975,4.6755,4.7131,4.7314,4.894,5.0096,5.0839,5.0839,5.1334,5.2134,5.2923,5.3758,5.4487,0.0,0.0,0.0,0.0,0.0,0.0,0.0,4.5284,0.0,0.0,0.0,0.0,0.0,4.8137,4.7361,0.0,0.0,4.4911,4.5192,4.4511,0.0,0.0,0.0,4.4374,0.0,0.0,0.0,0.0,4.1316,4.1185,4.1185,4.0885,4.1204,4.2031,4.1624,4.2137,0.0,0.0,0.0,0.0,0.0,4.4288,4.5544,0.0,0.0,4.3066,4.2777,4.2854,0.0,4.3972,4.4178,4.4255,4.5156,4.5315,4.5113,4.4874,4.4777,0.0,0.0,0.0,4.2903,4.2339,0.0,0.0,0.0,0.0,0.0,0.0,0.0,0.0,0.0,0.0,0.0,0.0,0.0,0.0,0.0,0.0,0.0,0.0,0.0,0.0,0.0,0.0,0.0,4.269,4.2451,4.2653,4.3451,4.3506,4.3506,4.3506,4.3506,4.3506,4.3506,4.3506,4.3506,4.3506,4.3506,4.3635,4.3901,4.3901,4.4635,4.592,4.6195,4.6902,4.7948,4.8508,4.9242,5.0004,5.0004,5.05,5.1348,5.2405,5.2828,5.3002,4.2167,0.0,0.0,0.0,0.0,0.0,0.0,0.0,0.0,0.0,4.914,0.0,5.1816,0.0,4.97,0.0,4.8496,4.7108,4.6133,4.5974,0.0,4.4737,4.5761,0.0,0.0,0.0,0.0,0.0,0.0,4.2461,4.2461,4.2155,4.248,4.3289,4.285,4.3073,4.3833,0.0,4.4197,0.0,0.0,4.4777,0.0,0.0,4.4147,4.4276,0.0,4.372,4.407,4.459,4.4702,4.4753,4.541,4.5443,4.5237,4.5012,4.4872,4.468,4.4077,4.3581,0.0,4.291,4.2096,0.0,4.1341,0.0,0.0,0.0,0.0,0.0,0.0,0.0,0.0,0.0,0.0,0.0,0.0,3.5952,0.0,0.0,0.0,0.0,0.0,0.0,4.157,4.1856,4.1874,4.2213,0.0,0.0,4.3506,4.3506,4.3506,4.3506,4.3506,4.3506,4.3506,4.3506,4.3506,4.3506,4.3506,4.3506,4.4075,4.5085,4.5645,4.6489,4.7489,4.8058,4.8802,4.9574,4.9252,4.9637,5.0503,5.1563,5.1988,5.2196,0.0,0.0,0.0,0.0,4.4684,0.0,0.0,0.0,4.9361,0.0,5.0804,5.2234,5.261,5.1571,5.0854,5.0854,4.9346,0.0,4.6241,4.6253,0.0,0.0,4.4887,4.4533,4.2967,0.0,0.0,0.0,0.0,4.3376,4.3395,4.2537,4.2574,4.3357,4.3357,0.0,4.3926,4.4752,4.529,4.5594,4.5594,4.5624,4.5658,4.5609,4.6028,4.6393,4.4894,4.4898,4.5594,4.5594,4.5594,4.5594,4.5594,4.5594,4.5436,4.4609,4.4355,4.4329,4.4164,4.4101,4.4067,4.3865,0.0,0.0,0.0,0.0,4.3294,0.0,0.0,0.0,0.0,0.0,0.0,0.0,0.0,0.0,0.0,0.0,0.0,0.0,0.0,0.0,0.0,4.0322,4.0212,4.0975,4.104,0.0,0.0,0.0,4.3451,4.3506,4.3506,4.3506,4.3506,4.3506,4.3506,4.3506,4.3506,4.3506,4.3506,4.3506,4.3524,4.3653,4.5223,4.5902,4.6012,4.7645,4.8765,4.9399,4.8618,4.8802,4.9629,5.044,5.1247,5.2057,4.3937,4.4566,4.5284,0.0,4.5352,4.5427,0.0,0.0,0.0,0.0,5.2148,5.328,5.3468,5.2419,5.1688,5.1688,5.0432,0.0,0.0,0.0,0.0,4.6244,4.7242,4.6858,4.4704,4.5333,0.0,4.5054,0.0,0.0,4.5078,4.4245,4.3982,4.4188,4.4188,0.0,4.4785,4.5013,4.529,4.5594,4.5594,4.5903,0.0,0.0,4.6028,4.6489,4.559,4.5417,4.5594,4.5594,4.5594,4.5594,4.5594,4.5594,4.5556,4.5321,4.5263,4.512,4.4427,4.4245,4.4209,4.4058,4.3531,4.3114,0.0,0.0,0.0,0.0,0.0,0.0,0.0,0.0,0.0,0.0,0.0,0.0,0.0,0.0,0.0,3.7066,0.0,0.0,0.0,3.9662,4.0,4.0194,4.0212,0.0,0.0,0.0,0.0,4.3469,4.3506,4.3506,4.3506,4.3506,4.3506,4.3506,4.3506,4.3506,4.3506,4.3506,4.3828,4.4452,4.5461,4.5902,4.6012,4.7645,4.8076,4.7783,4.815,4.8434,4.8732,4.9542,5.0344,5.1146,4.4744,0.0,0.0,4.8401,0.0,0.0,4.8944,0.0,0.0,5.1538,5.3017,0.0,5.3319,5.2823,5.2451,5.2286,5.1418,0.0,4.9303,0.0,0.0,4.6903,4.7385,4.6757,4.469,4.5335,0.0,4.5046,0.0,0.0,4.5165,4.4714,4.4501,4.4501,0.0,4.4867,4.5505,4.5681,4.5854,4.6009,4.5717,0.0,0.0,4.5732,4.5825,4.6115,4.5732,4.5594,4.5594,4.5594,4.5594,4.5594,4.5594,4.5594,4.5594,4.5594,4.5594,4.5494,4.4994,4.4878,4.4861,4.4776,4.4397,4.4096,4.4393,4.4452,4.4338,0.0,0.0,0.0,0.0,0.0,0.0,0.0,0.0,0.0,0.0,0.0,0.0,0.0,3.721,0.0,0.0,3.8788,3.8696,3.8348,0.0,0.0,0.0,0.0,0.0,4.3488,4.3506,4.3506,4.3506,4.3506,4.3506,4.3506,4.3506,4.3506,4.3506,4.3506,4.3938,4.4737,4.5553,4.6104,4.6516,4.7783,4.8021,4.7672,4.8113,4.8296,4.8402,4.9195,4.9791,5.0296,0.0,0.0,0.0,0.0,0.0,0.0,0.0,5.1815,0.0,5.2366,0.0,5.4194,5.2837,5.2938,5.2964,5.2558,0.0,5.13,5.0083,4.9737,4.8818,4.7128,4.6632,4.566,4.4099,4.4723,0.0,0.0,0.0,4.4585,4.4658,4.4545,4.4501,4.4501,0.0,0.0,0.0,4.6263,4.6445,4.6419,4.5825,4.5594,4.5594,4.5594,4.5594,4.5594,4.5594,4.5594,4.5594,4.5594,4.5594,4.5594,4.5594,4.5594,4.5594,4.5594,4.5594,4.5594,4.5594,4.5594,4.5594,4.5594,4.5594,4.554,4.539,4.5337,4.5337,4.5337,4.4643,4.4074,0.0,0.0,0.0,0.0,0.0,0.0,0.0,0.0,0.0,0.0,0.0,0.0,0.0,0.0,0.0,0.0,0.0,0.0,0.0,0.0,0.0,4.3488,4.3506,4.3543,4.3653,0.0,4.3543,4.3653,4.3543,4.3506,4.3506,4.3506,4.3883,4.459,4.5498,4.6241,4.6856,4.7874,4.8296,4.8296,4.8296,4.8296,4.8392,4.9139,4.9453,4.9622,0.0,0.0,0.0,0.0,0.0,5.3374,5.4595,5.4731,5.4353,5.3401,5.5135,5.5597,5.3345,5.2865,5.2538,5.2138,5.1675,0.0,0.0,0.0,0.0,4.8972,4.7612,4.6427,4.5469,4.4377,4.4359,0.0,4.4279,4.4321,4.5472,4.4808,4.4501,4.4501,0.0,0.0,4.5277,4.5449,0.0,4.5762,4.5658,4.5594,4.5594,4.5594,4.5594,4.5594,4.5594,4.5594,4.5594,4.5594,4.5594,4.5594,4.5594,4.5594,4.5594,4.5594,4.5594,4.5594,4.5594,4.5594,4.5594,4.5594,4.5594,4.5586,4.5559,4.5555,4.5555,4.5555,4.5402,4.5058,4.4279,0.0,0.0,0.0,0.0,0.0,0.0,0.0,0.0,0.0,0.0,0.0,0.0,0.0,0.0,0.0,0.0,0.0,0.0,0.0,0.0,0.0,4.3506,0.0,0.0,0.0,4.3828,4.448,4.3818,4.3506,4.3506,4.3506,4.3579,4.38,4.5259,4.5608,4.5287,4.7416,4.8296,4.8296,4.8296,4.8296,4.8354,4.8839,4.9218,4.9622,0.0,0.0,0.0,0.0,0.0,0.0,0.0,5.7303,0.0,5.517,5.5416,5.5106,5.3398,5.3408,5.3199,5.233,5.2274,5.2009,5.1339,5.1348,5.0605,4.8903,4.7895,0.0,4.551,4.4113,4.4184,4.5791,4.4181,4.4179,4.5679,4.4883,4.4501,4.4526,0.0,4.54,0.0,0.0,0.0,4.6086,4.5732,4.5594,4.5594,4.5594,4.5594,4.5594,4.5594,4.5594,4.5594,4.5594,4.5594,4.5594,4.5594,4.5594,4.5594,4.5594,4.5594,4.5594,4.5594,4.5594,4.5594,4.5594,4.5594,4.5594,4.5594,4.5594,4.5594,4.5594,4.5594,4.5281,4.4293,4.2515,0.0,0.0,0.0,0.0,0.0,0.0,0.0,0.0,0.0,0.0,0.0,0.0,0.0,0.0,0.0,0.0,0.0,0.0,0.0,0.0,0.0,0.0,0.0,0.0,0.0,4.4066,4.369,4.3506,4.3506,4.3506,4.3726,4.4176,4.4947,4.5526,4.6076,4.7654,4.8058,4.7728,4.8131,4.8039,4.7784,4.8604,4.9019,4.9311,0.0,5.3508,0.0,0.0,5.6212,0.0,5.8418,5.9084,5.8748,5.694,5.5885,5.486,5.3736,5.4089,5.3934,5.2743,5.3056,5.289,5.1897,5.2026,5.1214,4.9178,4.8286,4.7097,4.5506,4.4137,4.4031,0.0,4.3932,4.3951,0.0,4.4735,0.0,0.0,0.0,0.0,0.0,0.0,4.636,4.6343,4.581,4.5594,4.5594,4.5594,4.5594,4.5594,4.5594,4.5594,4.5594,4.5594,4.5594,4.5594,4.5594,4.5594,4.5594,4.5594,4.5594,4.5594,4.5594,4.5594,4.5594,4.5594,4.5594,4.5594,4.5594,4.5594,4.5594,4.5594,4.5594,4.5281,4.4293,4.3384,0.0,0.0,0.0,0.0,0.0,0.0,0.0,0.0,0.0,0.0,0.0,0.0,0.0,0.0,0.0,0.0,0.0,0.0,0.0,0.0,0.0,4.3614,4.3831,0.0,4.3598,4.3763,4.3579,4.3506,4.3506,4.3506,4.3855,4.4443,4.4626,4.5617,4.7168,4.7966,4.7929,4.7424,4.8058,4.7911,4.7481,4.8426,4.8839,4.8986,0.0,0.0,0.0,0.0,0.0,0.0,5.9113,5.9284,5.906,5.8148,5.7557,5.6653,5.5089,5.4615,5.4072,5.3204,5.3509,5.3693,5.3572,5.2921,5.2279,5.1682,4.9469,4.7664,4.6414,4.4769,4.3711,0.0,0.0,4.3434,0.0,0.0,0.0,0.0,0.0,0.0,0.0,4.5407,4.552,4.5688,4.5624,4.5594,4.5594,4.5594,4.5594,4.5594,4.5594,4.5594,4.5594,4.5594,4.5594,4.5594,4.5594,4.5594,4.5594,4.5594,4.5594,4.5594,4.5594,4.5594,4.5594,4.5594,4.5594,4.5594,4.5594,4.5594,4.5594,4.5594,4.5594,4.5281,4.4293,4.4105,4.406,0.0,0.0,0.0,0.0,0.0,0.0,0.0,0.0,0.0,0.0,3.7576,0.0,0.0,0.0,0.0,0.0,0.0,0.0,4.2733,0.0,4.3975,4.493,4.4002,4.3873,4.4571,4.3846,4.3506,4.3506,4.3506,4.3543,4.3653,4.437,4.5617,4.7168,4.7966,4.826,4.8205,4.826,4.8241,4.8196,4.8317,4.8586,4.8913,0.0,0.0,0.0,0.0,0.0,0.0,0.0,6.0207,6.0025,5.9414,5.8446,5.7377,5.6243,5.5524,5.4888,5.4322,5.399,5.3914,5.4204,5.3424,5.2672,5.2032,4.9857,4.7974,4.6533,4.5331,4.4647,0.0,0.0,0.0,0.0,0.0,0.0,0.0,0.0,4.5483,4.5312,4.5429,4.5522,4.5594,4.5594,4.5594,4.5594,4.5594,4.5594,4.5594,4.5594,4.5594,4.5594,4.5594,4.5594,4.5594,4.5594,4.5594,4.5594,4.5594,4.5594,4.5594,4.5594,4.5594,4.5594,4.5594,4.5594,4.5594,4.5594,4.5594,4.5594,4.5594,4.5594,4.5481,4.5081,4.4546,4.4359,0.0,0.0,0.0,0.0,0.0,0.0,0.0,0.0,0.0,0.0,0.0,3.8301,0.0,0.0,0.0,0.0,0.0,0.0,4.2614,0.0,4.3705,4.4147,4.3705,4.3653,4.3975,4.3653,4.3506,4.3506,4.3506,4.3506,4.3561,4.4856,4.5792,4.648,4.7764,4.7728,4.6966,4.7911,4.7709,4.6985,4.7929,4.8393,4.8577,5.7528,0.0,5.8092,0.0,5.9115,5.9266,6.0596,6.0684,6.0424,5.9965,5.8913,5.7807,5.6774,5.5812,5.5083,5.4689,5.425,5.4204,5.464,5.3853,5.3072,5.2372,5.0481,0.0,4.7236,4.6244,4.5625,4.5386,4.5464,0.0,0.0,0.0,0.0,0.0,4.5533,4.5576,4.5405,4.555,4.5594,4.5594,4.5594,4.5594,4.5594,4.5594,4.5594,4.5594,4.5594,4.5594,4.5594,4.5594,4.5594,4.5594,4.5594,4.5594,4.5594,4.5594,4.5594,4.5594,4.5594,4.5594,4.5594,4.5594,4.5594,4.5594,4.5594,4.5594,4.5594,4.5594,4.5594,4.5594,4.5594,4.5015,4.4767,4.5481,0.0,0.0,0.0,0.0,0.0,0.0,0.0,3.9891,3.9513,3.9301,0.0,0.0,0.0,0.0,0.0,0.0,0.0,0.0,0.0,0.0,0.0,4.3549,4.3506,4.3506,4.3506,4.3506,4.3506,4.3506,4.3635,4.392,4.5296,4.603,4.6351,4.7728,4.7489,4.6388,4.7764,4.7452,4.6406,4.7783,4.8296,4.8335,5.8576,5.9346,5.9757,6.0028,6.0469,6.0762,6.0806,6.0411,5.9931,5.9458,5.899,5.808,5.647,5.5163,5.4254,5.3851,5.4221,5.4655,5.5061,5.4274,5.3613,0.0,0.0,5.0113,4.8903,4.7636,4.636,4.5105,0.0,0.0,4.4177,0.0,4.5943,4.5341,4.6205,4.622,4.5609,4.559,4.5594,4.5594,4.5594,4.5594,4.5594,4.5594,4.5594,4.5594,4.5594,4.5594,4.5594,4.5594,4.5594,4.5594,4.5594,4.5594,4.5594,4.5594,4.5594,4.5594,4.5594,4.5594,4.5594,4.5594,4.5594,4.5594,4.5594,4.5594,4.5594,4.5594,4.5594,4.5594,4.5594,4.559,4.559,4.5594,0.0,0.0,0.0,0.0,0.0,0.0,4.062,3.9676,4.0325,0.0,0.0,0.0,0.0,0.0,0.0,0.0,0.0,4.269,4.3209,0.0,4.3889,4.3634,4.3506,4.3506,4.3506,4.3506,4.3506,4.3506,4.392,4.4737,4.5553,4.6351,4.7149,4.7966,4.7819,4.7168,4.7984,4.7801,4.7186,4.8003,4.8296,4.8296,5.8601,5.9167,5.962,6.0025,6.0489,6.0806,6.0806,6.0678,6.0411,5.9931,5.9283,5.8521,5.7687,5.6176,5.5184,0.0,5.4743,5.4801,0.0,5.4733,5.3947,5.3236,5.185,5.0412,4.8939,4.8452,4.7761,4.6797,0.0,0.0,0.0,4.6549,4.6139,4.5523,4.5787,4.5796,4.5594,4.5594,4.5594,4.5594,4.5594,4.5594,4.5594,4.5594,4.5594,4.5594,4.5594,4.5594,4.5594,4.5594,4.5594,4.5594,4.5594,4.5594,4.5594,4.5594,4.5594,4.5594,4.5594,4.5594,4.5594,4.5594,4.5594,4.5594,4.5594,4.5594,4.5594,4.5594,4.5594,4.5594,4.5594,4.5594,4.5594,4.5594,4.5594,0.0,0.0,0.0,0.0,0.0,4.0905,3.9717,0.0,4.0006,0.0,0.0,0.0,0.0,0.0,0.0,0.0,0.0,4.3421,0.0,4.3634,4.3767,4.3726,4.3506,4.3506,4.3506,4.3524,4.4066,4.4461,4.4773,4.6131,4.6856,4.7168,4.7966,4.7838,4.7186,4.7984,4.7819,4.7204,4.8003,4.8296,4.8354,5.8555,5.9075,5.9553,6.0018,6.0489,6.0806,6.0806,6.0806,6.0628,6.0161,5.966,5.9064,5.8277,5.7239,0.0,5.5999,5.5189,5.5,5.5657,5.4953,5.4107,5.3236,5.2116,5.091,4.96,0.0,0.0,4.828,4.8581,4.8454,4.7893,4.7082,4.6489,4.6071,4.5744,4.5594,4.5594,4.5594,4.5594,4.5594,4.5594,4.5594,4.5594,4.5594,4.5594,4.5594,4.5594,4.5594,4.5594,4.5594,4.5594,4.5594,4.5594,4.5594,4.5594,4.5594,4.5594,4.5594,4.5594,4.5594,4.5594,4.5594,4.5594,4.5594,4.5594,4.5594,4.5594,4.5594,4.5594,4.5594,4.5594,4.5594,4.5594,4.5594,4.5594,4.5594,4.5594,0.0,0.0,0.0,0.0,0.0,0.0,4.1132,4.1358,0.0,0.0,0.0,0.0,0.0,0.0,4.2943,4.3629,0.0,4.3685,4.4345,4.4345,4.3695,4.3555,4.3506,4.3524,4.4333,4.47,4.4792,4.6397,4.6929,4.6718,4.7526,4.7379,4.6737,4.7544,4.7535,4.7204,4.8003,4.8296,4.8354,5.843,5.9028,0.0,0.0,6.0397,0.0,6.0746,6.0752,6.0616,6.0189,6.0146,5.9691,5.851,5.8337,5.7809,5.6622,0.0,0.0,0.0,5.4991,5.4164,5.3236,5.2486,5.164,5.0726,4.9957,4.9548,4.949,4.8625,4.8197,4.8178,4.7293,4.6908,4.6851,4.5994,4.5594,4.5594,4.5594,4.5594,4.5594,4.5594,4.5594,4.5594,4.5594,4.5594,4.5594,4.5594,4.5594,4.5594,4.5594,4.5594,4.5594,4.5594,4.5594,4.5594,4.5594,4.5594,4.5594,4.5594,4.5594,4.5594,4.5594,4.5594,4.5594,4.5594,4.5594,4.5594,4.5594,4.5594,4.5594,4.5594,4.5594,4.5594,4.5594,4.5594,4.5594,4.5594,0.0,0.0,0.0,0.0,0.0,0.0,4.2851,4.3204,0.0,0.0,0.0,0.0,0.0,4.3894,4.3548,4.3857,4.4072,4.4128,4.5262,4.5281,4.4203,4.3804,4.3613,4.3649,4.4433,4.4755,4.4792,4.6452,4.6737,4.6049,4.6847,4.6737,4.614,4.6902,4.7186,4.7278,4.7966,4.827,4.8393,0.0,0.0,5.8903,5.9009,5.9415,5.9855,6.0215,6.0264,6.0351,6.061,6.0634,6.0527,6.022,5.9594,5.884,5.794,5.6767,5.597,5.5725,5.5516,5.4741,5.3255,5.3645,5.2895,5.0745,5.1106,5.101,5.038,4.951,4.9086,4.9067,4.7582,4.6908,4.6851,4.5994,4.5594,4.5594,4.5594,4.5594,4.5594,4.5594,4.5594,4.5594,4.5594,4.5594,4.5594,4.5594,4.5594,4.5594,4.5594,4.5594,4.5594,4.5594,4.5594,4.5594,4.5594,4.5594,4.5594,4.5594,4.5594,4.5594,4.5594,4.5594,4.5594,4.5594,4.5594,4.5594,4.5594,4.5594,4.5594,4.5594,4.5594,4.5594,4.5594,4.5594,4.5594,4.5594,4.4442,0.0,0.0,4.3077,4.2464,4.2996,4.3047,4.3051,0.0,0.0,0.0,0.0,4.4997,4.5117,4.3923,4.4266,4.4742,4.537,4.5912,4.624,4.6358,4.5346,4.4865,4.4886,4.5381,4.5278,4.4828,4.7049,4.7562,4.6883,4.7691,4.7893,4.7755,4.7929,4.8021,4.7966,4.7535,4.7969,4.8729,5.7997,5.8383,5.8583,5.821,5.853,5.8936,5.9199,5.923,5.9535,6.036,6.0482,6.0559,6.0788,6.0012,5.9184,5.8371,5.7291,5.6404,5.5736,5.5708,5.5126,5.3857,5.4241,5.3472,5.1298,5.1678,5.1505,5.0707,5.0226,4.9995,4.9957,4.8259,4.7447,4.7389,4.6148,4.5594,4.5594,4.5594,4.5594,4.5594,4.5594,4.5594,4.5594,4.5594,4.5594,4.5594,4.5594,4.5594,4.5594,4.5594,4.5594,4.5594,4.5594,4.5594,4.5686,4.609,4.6182,4.6182,4.6182,4.6451,4.674,4.674,4.6471,4.6182,4.6182,4.5898,4.5594,4.5594,4.5594,4.5594,4.5594,4.5594,4.5594,4.5594,4.5594,4.5594,4.5594,4.4723,0.0,4.4827,4.4004,4.3612,4.4192,4.4244,4.4194,4.4089,4.4748,0.0,4.4846,4.5937,4.6035,4.4864,4.5564,4.6183,4.6619,4.6807,4.7231,4.7903,4.6513,4.5862,4.5865,4.6273,4.6111,4.5609,4.7095,4.7197,4.6305,4.6562,4.6865,4.7205,4.7205,4.7434,4.771,4.7462,4.7543,4.7834,5.7997,5.8318,5.8386,5.768,5.7913,5.8178,5.8257,5.8284,5.8661,5.9759,6.0008,6.0233,6.0578,6.0069,5.9319,5.8377,5.7613,5.6766,5.5766,5.5708,5.5343,5.453,5.4491,5.3683,5.1942,5.1774,5.1375,5.0707,5.0707,5.0707,5.0649,4.9048,4.8235,4.8024,4.6494,4.5725,4.5594,4.5594,4.5594,4.5594,4.5594,4.5594,4.5594,4.5594,4.5594,4.5594,4.5594,4.5594,4.5594,4.5594,4.5594,4.5594,4.5594,4.5594,4.5744,4.649,4.6889,4.7081,4.7081,4.7582,4.8101,4.8101,4.7582,4.7081,4.7081,4.6509,4.5936,4.5821,4.5898,4.5898,4.5652,4.5706,4.5744,4.5614,4.5594,4.5594,4.5594,0.0,4.4763,4.5518,4.4955,4.484,4.5706,4.5802,4.584,4.5975,4.6351,4.6563,4.6566,4.7067,4.7048,4.636,4.717,4.7741,4.8053,4.8123,4.8562,4.9322,4.7608,4.6793,4.6876,4.7147,4.7026,4.6612,4.7215,4.6788,4.5634,4.5281,4.5524,4.6067,4.5957,4.6324,4.6948,4.7167,4.6929,4.6662,5.7997,5.8058,5.8071,5.7942,5.7973,5.8147,5.8568,5.8619,5.8708,5.8972,5.9645,6.0003,5.9727,6.0242,5.9973,5.8429,5.8184,5.7415,5.5805,5.5708,5.5343,5.453,5.4491,5.3683,5.1942,5.1221,5.0822,5.0707,5.0707,5.0707,5.0668,4.9668,4.8817,4.8062,4.712,4.6297,4.5594,4.5594,4.5594,4.5594,4.5594,4.5594,4.5594,4.5594,4.5594,4.5594,4.5594,4.5594,4.5594,4.5594,4.5594,4.5594,4.5594,4.5594,4.5633,4.5763,4.6797,4.7908,4.7908,4.8005,4.8101,4.8101,4.8005,4.7908,4.7908,4.7812,4.7528,4.6831,4.7235,4.7278,4.5859,4.6201,4.6471,4.5725,4.5594,4.5594,4.5594,0.0,4.5455,4.5575,4.5475,4.5744,4.6601,4.6697,4.6985,4.7663,4.7775,4.7814,4.7818,4.8586,4.8969,4.8859,4.8034,4.8433,5.0211,5.0564,5.0966,5.1401,4.9105,4.8199,4.8516,4.8249,4.7718,4.7085,4.851,4.8451,4.7321,4.7256,4.7115,4.6847,4.6177,4.5975,4.6003,4.5386,4.5903,4.68,5.7997,5.7997,5.785,5.7428,5.7354,5.7426,5.7647,5.7671,5.8011,5.9008,5.9471,5.9672,5.9517,5.9858,5.9608,5.8409,5.7877,5.7267,5.6459,5.5958,5.5535,5.517,5.4722,5.3683,5.1942,5.1106,5.0707,5.0707,5.0707,5.0707,5.0668,4.9336,4.874,4.8721,4.6971,4.6471,4.6894,4.5975,4.5879,4.6259,4.5782,4.5594,4.5594,4.5594,4.5594,4.5594,4.5594,4.5594,4.5594,4.5594,4.5594,4.5594,4.5594,4.5594,4.5686,4.6163,4.7144,4.8293,4.924,4.949,4.949,4.949,4.9144,4.8798,4.8798,4.8432,4.7985,4.762,4.7832,4.7735,4.6528,4.662,4.6774,4.6374,4.5917,0.0,0.0,4.5898,4.5763,4.624,4.6297,4.6624,4.7466,4.7543,4.7697,4.8062,4.8101,4.8293,4.8779,4.9183,4.963,5.0091,4.9977,5.0375,5.1337,5.1327,5.1379,5.157,4.98,4.9036,4.9211,4.9029,4.8856,4.872,4.8816,4.8652,4.8251,4.7134,4.6727,4.6687,4.5847,4.5416,4.5231,4.5033,4.5161,4.54,5.7997,5.7997,5.7813,5.7189,5.7079,5.7079,5.7079,5.7079,5.7473,5.853,5.8905,5.9019,5.8807,5.9048,5.8973,5.8352,5.7497,5.7003,5.7003,5.6189,5.5708,5.5708,5.4741,5.3491,5.1923,5.1106,5.0707,5.0707,5.0707,5.0707,5.0668,4.9336,4.8952,4.9317,4.736,4.7091,4.8005,4.6528,4.6297,4.6812,4.5956,4.5594,4.5594,4.5594,4.5594,4.5594,4.5594,4.5594,4.5594,4.5594,4.5594,4.5594,4.5594,4.5744,4.6033,4.6697,4.7601,4.8682,5.0034,5.0553,5.0707,5.0707,5.0207,4.9707,4.9707,4.9183,4.8644,4.8432,4.8567,4.8394,4.737,4.7331,4.7408,4.7216,0.0,0.0,0.0,4.6605,4.6432,4.7101,4.7178,4.7505,4.8317,4.8394,4.849,4.8682,4.8702,4.899,4.9668,4.9707,5.0091,5.0957,5.1774,5.2197,5.2197,5.1997,5.1845,5.172,5.0498,4.9869,4.978,4.978,4.9949,5.0193,4.9258,4.8986,4.903,4.703,4.6386,4.6498,4.5466,4.4841,4.4569,4.4833,4.453,4.4128,5.7997,5.7997,5.7978,5.7923,5.7905,5.7905,5.7905,5.7905,5.7549,5.6568,5.747,5.78,5.6742,5.767,5.8352,5.8313,5.7497,5.7003,5.7003,5.6189,5.5708,5.5708,5.4164,5.2851,5.1923,5.1106,5.0707,5.0707,5.0707,5.0707,5.0707,5.0572,5.0111,4.9394,4.9202,4.874,4.8043,4.7178,4.6831,4.6812,4.5956,4.5594,4.5594,4.5594,4.5594,4.5594,4.5594,4.5594,4.5594,4.5594,4.5594,4.5594,4.5594,4.6144,4.6812,4.6889,4.8048,4.9336,4.9452,5.0091,5.0707,5.0707,5.0649,5.0592,5.0592,5.0553,5.0284,4.9471,4.9957,4.9995,4.8317,4.8663,4.8952,4.8139,0.0,0.0,4.8005,4.7966,4.7947,4.8005,4.8005,4.8355,4.9221,4.9298,4.9649,5.0457,5.0515,5.0534,5.0592,5.0592,5.0971,5.1793,5.2659,5.3101,5.3101,5.3514,5.3489,5.3032,5.177,5.0967,5.0609,5.0609,5.0624,5.0658,5.0567,5.0325,4.9889,4.8166,4.7277,4.6802,4.5244,4.4398,4.4045,4.4086,4.4046,4.4009,5.7997,5.7997,5.7997,5.7997,5.7997,5.8104,5.8386,5.8439,5.8182,5.7536,5.8081,5.7984,5.6563,5.7542,5.8088,5.7536,5.719,5.7003,5.7003,5.6189,5.5241,5.4184,5.3549,5.2568,5.1183,5.0861,5.0707,5.0707,5.0707,5.0707,5.0688,5.0149,5.0014,5.0168,4.9086,4.9009,4.963,4.824,4.7966,4.8375,4.7509,4.7144,4.7144,4.7144,4.7144,4.7086,4.6586,4.6413,4.6317,4.5782,4.5594,4.5686,4.624,4.662,4.7005,4.7505,4.849,4.9394,4.9394,5.0034,5.0707,5.0707,5.0707,5.0707,5.0707,5.0707,5.0611,5.0265,5.0476,5.0322,4.9125,4.9183,4.9298,4.8952,0.0,4.8293,4.8836,4.8913,4.8913,4.8913,4.9375,4.9841,5.0168,5.0207,5.0341,5.0668,5.0707,5.0707,5.0707,5.1164,5.1582,5.1885,5.3274,5.401,5.401,5.3405,5.3009,5.2811,5.1271,5.0483,5.0336,5.0594,5.0707,5.0707,5.0707,5.0614,5.0382,4.9198,4.8195,4.7301,4.6699,4.5603,4.4441,4.493,4.4798,4.4359,5.7997,5.7997,5.7997,5.7997,5.7997,5.8164,5.8632,5.857,5.8365,5.8032,5.7968,5.7521,5.6316,5.685,5.7223,5.7011,5.6747,5.6709,5.6983,5.6189,5.5184,5.4049,5.3491,5.2664,5.1515,5.0976,5.0707,5.0707,5.0707,5.0707,5.0688,5.0091,5.013,5.0649,4.9452,4.9591,5.0592,4.9125,4.8856,4.9317,4.8452,4.8101,4.8101,4.8101,4.8101,4.8024,4.7466,4.7274,4.7158,4.6297,4.6013,4.6105,4.6716,4.7255,4.7851,4.8663,4.9336,4.9803,4.9803,5.0245,5.0707,5.0707,5.0707,5.0707,5.0707,5.0707,5.0707,5.0707,5.0899,5.0894,5.0298,5.0414,5.0587,5.0587,5.0087,4.9909,5.051,5.0587,5.0587,5.0587,5.0875,5.1087,5.1087,5.0842,5.0707,5.0707,5.0707,5.0707,5.0707,5.1467,5.2019,5.2294,5.3722,5.4491,5.4491,5.3888,5.331,5.2768,5.1628,5.0799,5.0308,5.0565,5.0707,5.0707,5.0707,5.0707,5.063,4.9764,4.8917,4.8133,4.7722,4.6741,4.5584,4.6017,4.5668,4.499,5.8008,5.8008,5.8008,5.8008,5.8008,5.8164,5.8632,5.8315,5.7892,5.7554,5.6756,5.6089,5.5749,5.5346,5.5613,5.6874,5.6203,5.6069,5.692,5.6189,5.5708,5.5708,5.4107,5.3197,5.3197,5.1553,5.0707,5.0707,5.0707,5.0707,5.0707,5.0707,5.0707,5.0707,5.0707,5.0707,5.063,4.9784,4.9413,4.9336,4.8471,4.812,4.812,4.812,4.812,4.812,4.8101,4.8101,4.7985,4.7178,4.6908,4.6908,4.6908,4.8067,4.9591,5.0457,5.0707,5.0707,5.0707,5.0707,5.0707,5.0707,5.0707,5.0707,5.0707,5.0707,5.0726,5.0707,5.1356,5.1904,5.1904,5.2601,5.3197,5.3197,5.3197,5.3197,5.3197,5.3217,5.3217,5.3197,5.2428,5.1904,5.1885,5.1164,5.0707,5.0707,5.0707,5.0707,5.0707,5.1467,5.2294,5.3159,5.4049,5.4491,5.4491,5.5285,5.4857,5.3197,5.3197,5.2318,5.0707,5.0707,5.0707,5.0707,5.0707,5.0707,5.063,4.9764,4.9413,4.9274,4.8015,4.755,4.755,4.7161,4.6499,4.5866,5.8484,5.8484,5.8484,5.8484,5.8224,5.8271,5.9065,5.8786,5.8375,5.8041,5.7719,5.7152,5.6155,5.6235,5.6402,5.6498,5.6276,5.6115,5.6096,5.5843,5.5708,5.5708,5.4684,5.3549,5.2313,5.1793,5.1279,5.0707,5.0707,5.0707,5.0707,5.0707,5.0707,5.0707,5.0707,5.0707,5.0668,5.0418,5.0303,5.0284,5.0034,4.9918,4.9918,4.9918,4.9918,4.9841,4.9221,4.9009,4.8798,4.737,4.6908,4.7005,4.7562,4.8913,5.0361,5.0611,5.0707,5.0707,5.0707,5.0707,5.0707,5.0707,5.1125,5.1395,5.0822,5.1611,5.2125,5.0938,5.1837,5.264,5.2,5.2601,5.3197,5.3197,5.3197,5.3197,5.3197,5.3722,5.3664,5.2428,5.2601,5.2351,5.1164,5.1356,5.1318,5.0745,5.0707,5.0707,5.0707,5.1467,5.2294,5.3159,5.4049,5.4491,5.4491,5.4126,5.3683,5.3197,5.201,5.1471,5.1524,5.0957,5.0707,5.0707,5.0707,5.0707,5.0668,5.0418,4.9957,4.9428,4.9657,4.9012,4.8005,4.8498,4.7796,4.6677,5.8694,5.8694,5.8642,5.8461,5.819,5.8249,5.9,5.8725,5.8423,5.839,5.7932,5.7348,5.6737,5.6631,5.6605,5.6539,5.6381,5.6288,5.6225,5.5882,5.5708,5.5708,5.5228,5.4337,5.2967,5.2582,5.2178,5.1688,5.1337,5.1356,5.1669,5.1015,5.0861,5.1164,5.0842,5.0707,5.0707,5.0707,5.0707,5.0707,5.0707,5.0707,5.0707,5.0707,5.0707,5.063,5.0091,4.9918,4.9707,4.8355,4.7889,4.7908,4.8062,4.9298,5.0765,5.1087,5.0957,5.0765,5.1087,5.0938,5.0707,5.0707,5.1068,5.1298,5.0803,5.1722,5.239,5.1375,5.2529,5.3549,5.3024,5.3626,5.4184,5.4184,5.4184,5.4184,5.4184,5.4645,5.4587,5.3524,5.3587,5.3318,5.2304,5.2024,5.1563,5.0765,5.0707,5.0707,5.0707,5.1164,5.1967,5.3159,5.3703,5.4145,5.4491,5.3972,5.3371,5.2678,5.1664,5.126,5.1414,5.0919,5.0707,5.0707,5.0707,5.0707,5.0707,5.0707,5.038,4.9947,5.0317,4.9921,4.9173,4.9545,4.8917,4.7971,5.8694,5.8694,5.8578,5.8142,5.8031,5.8164,5.8632,5.8297,5.8168,5.8642,5.7647,5.7048,5.7414,5.6806,5.6527,5.6907,5.6562,5.646,5.6865,5.6132,5.5708,5.5708,5.5708,5.5362,5.4626,5.376,5.3274,5.3197,5.2409,5.2428,5.3159,5.1553,5.1202,5.1865,5.1048,5.0707,5.0707,5.0707,5.0707,5.0707,5.0707,5.0707,5.0707,5.0707,5.0707,5.0707,5.0707,5.0707,5.0572,4.9687,4.9394,4.926,4.8471,4.9356,5.0842,5.1582,5.1279,5.088,5.1678,5.1318,5.0726,5.0784,5.0745,5.0707,5.0707,5.1375,5.1962,5.1813,5.3241,5.4472,5.4395,5.5107,5.5708,5.5708,5.5708,5.5708,5.5708,5.5708,5.567,5.5593,5.4953,5.4472,5.4395,5.2947,5.1717,5.0976,5.0842,5.0784,5.0707,5.0707,5.1476,5.314,5.3197,5.3626,5.4491,5.4491,5.3664,5.2019,5.1942,5.1524,5.0803,5.0726,5.0745,5.0803,5.0803,5.0803,5.0803,5.0803,5.0765,5.0663,5.0308,5.0388,5.0658,5.0283,4.9833,4.9394,5.8694,5.8694,5.8683,5.8578,5.8238,5.8164,5.8632,5.8297,5.8168,5.8642,5.8127,5.7767,5.7854,5.7718,5.7513,5.73,5.6676,5.6212,5.5995,5.5805,5.5708,5.5708,5.5708,5.5612,5.5439,5.4645,5.3876,5.3197,5.3005,5.3005,5.3178,5.212,5.1736,5.1865,5.1048,5.0707,5.0707,5.0707,5.0707,5.0707,5.0707,5.0707,5.0707,5.0707,5.0707,5.0707,5.0707,5.0707,5.0572,4.9687,4.9394,4.9375,4.9183,4.9861,5.0726,5.0919,5.0842,5.088,5.1678,5.1318,5.0842,5.1486,5.1164,5.0707,5.0707,5.1856,5.2544,5.1221,5.2861,5.428,5.3606,5.4703,5.5708,5.5708,5.5708,5.5708,5.5708,5.5708,5.5478,5.4838,5.4607,5.4222,5.3549,5.314,5.2851,5.2664,5.2024,5.1356,5.0726,5.0707,5.1476,5.314,5.3197,5.3626,5.4491,5.4491,5.3972,5.2909,5.2236,5.1813,5.162,5.0996,5.1029,5.164,5.164,5.164,5.164,5.164,5.1279,5.0683,5.0604,5.0619,5.0683,5.0604,5.0062,4.9394,5.8694,5.8694,5.8632,5.8397,5.8157,5.8074,5.8329,5.8164,5.8092,5.8329,5.8146,5.7997,5.7997,5.7997,5.7928,5.7754,5.6852,5.6308,5.6321,5.5939,5.5708,5.5708,5.5708,5.5708,5.5708,5.5285,5.4857,5.4395,5.401,5.403,5.4357,5.2678,5.212,5.2467,5.1246,5.0707,5.0707,5.0707,5.0707,5.0707,5.0707,5.0707,5.0707,5.0707,5.0707,5.0707,5.0707,5.0707,5.0572,4.9687,4.9687,4.9957,4.9529,4.9995,5.0784,5.1164,5.1279,5.1452,5.2294,5.2222,5.1991,5.2428,5.189,5.1164,5.0784,5.1683,5.2348,5.1549,5.3042,5.4374,5.399,5.4881,5.5708,5.5708,5.5708,5.5708,5.5708,5.5708,5.5535,5.5126,5.5068,5.4741,5.3895,5.3818,5.3645,5.3236,5.239,5.1909,5.1895,5.1491,5.2068,5.378,5.3818,5.4222,5.5049,5.5068,5.4645,5.3799,5.2524,5.1904,5.1865,5.1068,5.1144,5.1904,5.1904,5.1904,5.1904,5.1904,5.1433,5.0707,5.0707,5.0707,5.0707,5.0707,5.0418,5.0014,5.858,5.858,5.8471,5.807,5.7997,5.7997,5.7997,5.7997,5.7997,5.7997,5.7997,5.8042,5.8108,5.819,5.8114,5.7832,5.7009,5.6594,5.6769,5.6093,5.5708,5.5708,5.5708,5.5708,5.5708,5.5708,5.5708,5.5708,5.503,5.5054,5.5651,5.339,5.2659,5.3121,5.1587,5.0822,5.0707,5.0707,5.0707,5.0707,5.0707,5.0707,5.0707,5.0707,5.0707,5.0707,5.0707,5.0707,5.0592,4.988,5.0091,5.0572,4.9861,5.0111,5.0861,5.1659,5.1904,5.212,5.314,5.3313,5.3236,5.3371,5.2774,5.1947,5.1284,5.1529,5.1929,5.2034,5.3368,5.4539,5.465,5.5229,5.5708,5.5708,5.5708,5.5708,5.5708,5.5708,5.5708,5.5708,5.5708,5.5439,5.4761,5.4703,5.4357,5.3491,5.2755,5.2582,5.3159,5.2505,5.2851,5.4453,5.4491,5.4895,5.5689,5.5708,5.5381,5.4684,5.3101,5.2197,5.1885,5.1202,5.1279,5.1904,5.2058,5.2038,5.1904,5.1904,5.1433,5.0707,5.0707,5.0707,5.0707,5.0707,5.0707,5.0707,5.8085,5.8085,5.8081,5.802,5.7997,5.7997,5.7997,5.7997,5.7997,5.7997,5.7997,5.8146,5.8549,5.898,5.8492,5.6702,5.7073,5.697,5.5937,5.5766,5.5708,5.5708,5.5708,5.5708,5.5708,5.5708,5.5708,5.5708,5.5593,5.5593,5.5689,5.4645,5.3818,5.3159,5.2178,5.1356,5.0707,5.0707,5.0707,5.0707,5.0707,5.0707,5.0707,5.0707,5.0707,5.0707,5.0707,5.0707,5.0668,5.0553,5.0592,5.0668,5.0553,5.0611,5.0861,5.1659,5.1904,5.2255,5.3876,5.378,5.3371,5.4145,5.3664,5.3005,5.2895,5.2351,5.1914,5.1915,5.33,5.4502,5.4519,5.5172,5.5708,5.5708,5.5708,5.5708,5.5708,5.5708,5.5708,5.5708,5.5708,5.567,5.5555,5.5535,5.5208,5.4395,5.4203,5.3876,5.3236,5.3082,5.3491,5.4472,5.4491,5.4895,5.5689,5.5708,5.5651,5.5535,5.4587,5.3351,5.1904,5.1793,5.1793,5.1942,5.2697,5.2601,5.1904,5.1904,5.1433,5.0707,5.0707,5.0707,5.0707,5.0707,5.0707,5.0707,5.7997,5.7997,5.7997,5.7997,5.7997,5.7997,5.7997,5.7997,5.7997,5.7997,5.8235,5.8463,5.8674,5.8922,5.8505,5.7144,5.7162,5.6824,5.5775,5.5708,5.5708,5.5708,5.5708,5.5708,5.5708,5.5708,5.5708,5.5708,5.5708,5.5708,5.567,5.4376,5.3568,5.314,5.1818,5.1034,5.0707,5.0707,5.0707,5.0707,5.0707,5.0707,5.0707,5.0707,5.0707,5.0707,5.0707,5.0707,5.0707,5.0707,5.0707,5.0707,5.0707,5.1015,5.1428,5.1793,5.2582,5.3409,5.3703,5.4184,5.4587,5.4511,5.4203,5.3933,5.3933,5.3626,5.3243,5.2821,5.3687,5.4519,5.4592,5.5205,5.5708,5.5708,5.5708,5.5708,5.5708,5.5708,5.5708,5.5708,5.5708,5.5708,5.5708,5.5708,5.5555,5.5208,5.4741,5.453,5.4587,5.4164,5.4318,5.5151,5.517,5.5343,5.5708,5.5708,5.5708,5.5689,5.4876,5.4107,5.3313,5.2332,5.2178,5.262,5.2524,5.2255,5.1904,5.1904,5.1433,5.0707,5.0707,5.0707,5.0707,5.0707,5.0707,5.0707]}]]